| time (UTC) | temp F | wind direction | speed knots | gust knots | rain 1hr in | rain 24hr in | rain mn in | humidity % | barometer mb |
| 20260906040155 | 77 | 0 | 0.9 | 5.2 | 0.00 | 0.00 | 0.00 | 79 | 993.1 |
| 20260906040056 | 77 | 270 | 0.9 | 5.2 | 0.00 | 0.00 | 0.00 | 79 | 993.1 |
| 20260906035959 | 77 | 0 | 0.9 | 5.2 | 0.00 | 0.00 | 0.00 | 79 | 993.1 |
| 20260906035955 | 77 | 319 | 0.9 | 5.2 | 0.00 | 0.00 | 0.00 | 79 | 993.1 |
| 20260906035855 | 77 | 302 | 0.9 | 5.2 | 0.00 | 0.00 | 0.00 | 79 | 993.1 |
| 20260906035756 | 77 | 182 | 0.9 | 5.2 | 0.00 | 0.00 | 0.00 | 79 | 993.1 |
| 20260906035655 | 77 | 0 | 0.9 | 5.2 | 0.00 | 0.00 | 0.00 | 79 | 993.1 |
| 20260906035555 | 77 | 0 | 0.9 | 5.2 | 0.00 | 0.00 | 0.00 | 79 | 993.1 |
| 20260906035505 | 77 | 355 | 0.9 | 5.2 | 0.00 | 0.00 | 0.00 | 79 | 993.1 |
| 20260906035502 | 77 | 11 | 0.9 | 5.2 | 0.00 | 0.00 | 0.00 | 79 | 993.1 |
| 20260906035355 | 77 | 0 | 0.9 | 5.2 | 0.00 | 0.00 | 0.00 | 79 | 993.1 |
| 20260906035255 | 77 | 0 | 0.9 | 5.2 | 0.00 | 0.00 | 0.00 | 79 | 993.1 |
| 20260906035221 | 77 | 0 | 0.9 | 5.2 | 0.00 | 0.00 | 0.00 | 79 | 993.1 |
| 20260906035156 | 77 | 353 | 0.9 | 5.2 | 0.00 | 0.00 | 0.00 | 79 | 993.1 |
| 20260906035117 | 77 | 0 | 0.9 | 3.5 | 0.00 | 0.00 | 0.00 | 79 | 993.1 |
| 20260906034955 | 77 | 345 | 0.9 | 5.2 | 0.00 | 0.00 | 0.00 | 79 | 993.1 |
| 20260906034855 | 78 | 184 | 0.9 | 5.2 | 0.00 | 0.00 | 0.00 | 79 | 993.1 |
| 20260906034756 | 78 | 330 | 0.9 | 5.2 | 0.00 | 0.00 | 0.00 | 79 | 993.1 |
| 20260906034656 | 78 | 319 | 0.9 | 5.2 | 0.00 | 0.00 | 0.00 | 79 | 993.0 |
| 20260906034556 | 78 | 0 | 0.9 | 5.2 | 0.00 | 0.00 | 0.00 | 79 | 993.0 |
| 20260906034456 | 78 | 0 | 0.9 | 5.2 | 0.00 | 0.00 | 0.00 | 79 | 993.0 |
| 20260906034355 | 78 | 0 | 0.9 | 5.2 | 0.00 | 0.00 | 0.00 | 79 | 993.0 |
| 20260906034255 | 78 | 19 | 0.9 | 5.2 | 0.00 | 0.00 | 0.00 | 79 | 993.0 |
| 20260906034156 | 78 | 208 | 0.9 | 5.2 | 0.00 | 0.00 | 0.00 | 79 | 993.0 |
| 20260906034056 | 78 | 330 | 0.9 | 5.2 | 0.00 | 0.00 | 0.00 | 80 | 993.0 |
| 20260906034000 | 78 | 233 | 0.9 | 5.2 | 0.00 | 0.00 | 0.00 | 80 | 993.0 |
| 20260906033956 | 78 | 338 | 0.9 | 5.2 | 0.00 | 0.00 | 0.00 | 80 | 993.0 |
| 20260906033855 | 78 | 194 | 0.9 | 2.6 | 0.00 | 0.00 | 0.00 | 80 | 993.0 |
| 20260906033756 | 78 | 0 | 0.0 | 2.6 | 0.00 | 0.00 | 0.00 | 80 | 993.0 |
| 20260906033655 | 78 | 188 | 0.9 | 2.6 | 0.00 | 0.00 | 0.00 | 80 | 992.9 |
| 20260906033556 | 78 | 0 | 0.9 | 4.3 | 0.00 | 0.00 | 0.00 | 80 | 992.9 |
| 20260906033459 | 78 | 0 | 0.9 | 4.3 | 0.00 | 0.00 | 0.00 | 80 | 992.9 |
| 20260906033455 | 78 | 340 | 0.9 | 4.3 | 0.00 | 0.00 | 0.00 | 80 | 992.9 |
| 20260906033356 | 78 | 0 | 0.0 | 4.3 | 0.00 | 0.00 | 0.00 | 80 | 992.9 |
| 20260906033255 | 78 | 0 | 0.9 | 4.3 | 0.00 | 0.00 | 0.00 | 80 | 992.9 |
| 20260906033156 | 78 | 332 | 0.9 | 4.3 | 0.00 | 0.00 | 0.00 | 80 | 992.9 |
| 20260906033055 | 78 | 326 | 0.9 | 4.3 | 0.00 | 0.00 | 0.00 | 80 | 992.8 |
| 20260906032956 | 78 | 0 | 0.0 | 4.3 | 0.00 | 0.00 | 0.00 | 80 | 992.8 |
| 20260906032856 | 78 | 0 | 0.9 | 4.3 | 0.00 | 0.00 | 0.00 | 80 | 992.8 |
| 20260906032756 | 78 | 0 | 0.9 | 4.3 | 0.00 | 0.00 | 0.00 | 80 | 992.7 |
| 20260906032732 | 78 | 0 | 0.9 | 3.5 | 0.00 | 0.00 | 0.00 | 80 | 992.7 |
| 20260906032655 | 78 | 353 | 0.9 | 4.3 | 0.00 | 0.00 | 0.00 | 80 | 992.7 |
| 20260906032621 | 78 | 0 | 0.9 | 3.5 | 0.00 | 0.00 | 0.00 | 80 | 992.7 |
| 20260906032453 | 78 | 0 | 0.9 | 3.5 | 0.00 | 0.00 | 0.00 | 80 | 992.7 |
| 20260906032352 | 78 | 0 | 0.9 | 3.5 | 0.00 | 0.00 | 0.00 | 79 | 992.7 |
| 20260906032250 | 78 | 307 | 0.9 | 3.5 | 0.00 | 0.00 | 0.00 | 79 | 992.7 |
| 20260906032150 | 78 | 211 | 0.9 | 3.5 | 0.00 | 0.00 | 0.00 | 79 | 992.7 |
| 20260906032102 | 78 | 350 | 0.9 | 3.5 | 0.00 | 0.00 | 0.00 | 79 | 992.7 |
| 20260906031957 | 78 | 0 | 0.9 | 3.5 | 0.00 | 0.00 | 0.00 | 79 | 992.7 |
| 20260906031950 | 78 | 339 | 0.9 | 3.5 | 0.00 | 0.00 | 0.00 | 79 | 992.7 |
| 20260906031847 | 78 | 0 | 0.9 | 3.5 | 0.00 | 0.00 | 0.00 | 79 | 992.7 |
| 20260906031748 | 78 | 279 | 0.9 | 3.5 | 0.00 | 0.00 | 0.00 | 79 | 992.7 |
| 20260906031646 | 78 | 353 | 0.9 | 3.5 | 0.00 | 0.00 | 0.00 | 79 | 992.7 |
| 20260906031545 | 78 | 358 | 0.9 | 3.5 | 0.00 | 0.00 | 0.00 | 79 | 992.7 |
| 20260906031457 | 78 | 0 | 0.0 | 2.6 | 0.00 | 0.00 | 0.00 | 79 | 992.7 |
| 20260906031445 | 78 | 0 | 0.9 | 2.6 | 0.00 | 0.00 | 0.00 | 79 | 992.7 |
| 20260906031345 | 78 | 339 | 0.0 | 2.6 | 0.00 | 0.00 | 0.00 | 79 | 992.7 |
| 20260906031245 | 78 | 290 | 0.0 | 3.5 | 0.00 | 0.00 | 0.00 | 79 | 992.7 |
| 20260906031145 | 78 | 0 | 0.9 | 3.5 | 0.00 | 0.00 | 0.00 | 79 | 992.7 |
| 20260906031041 | 78 | 353 | 0.9 | 3.5 | 0.00 | 0.00 | 0.00 | 79 | 992.7 |
| 20260906030955 | 78 | 342 | 0.9 | 3.5 | 0.00 | 0.00 | 0.00 | 79 | 992.7 |
| 20260906030941 | 78 | 0 | 0.9 | 3.5 | 0.00 | 0.00 | 0.00 | 79 | 992.6 |
| 20260906030841 | 78 | 347 | 0.9 | 3.5 | 0.00 | 0.00 | 0.00 | 79 | 992.6 |
| 20260906030741 | 78 | 0 | 0.9 | 3.5 | 0.00 | 0.00 | 0.00 | 79 | 992.6 |
| 20260906030638 | 78 | 4 | 0.9 | 3.5 | 0.00 | 0.00 | 0.00 | 79 | 992.6 |
| 20260906030535 | 78 | 322 | 0.9 | 3.5 | 0.00 | 0.00 | 0.00 | 79 | 992.6 |
| 20260906030455 | 78 | 331 | 0.9 | 3.5 | 0.00 | 0.00 | 0.00 | 79 | 992.6 |
| 20260906030435 | 78 | 0 | 0.9 | 3.5 | 0.00 | 0.00 | 0.00 | 79 | 992.6 |
| 20260906030332 | 78 | 318 | 0.9 | 3.5 | 0.00 | 0.00 | 0.00 | 79 | 992.6 |
| 20260906030232 | 78 | 0 | 0.9 | 4.3 | 0.00 | 0.00 | 0.00 | 78 | 992.6 |
| 20260906030216 | 78 | 328 | 0.9 | 4.3 | 0.00 | 0.00 | 0.00 | 78 | 992.6 |
| 20260906030133 | 78 | 6 | 0.9 | 4.3 | 0.00 | 0.00 | 0.00 | 78 | 992.6 |
| 20260906030118 | 78 | 0 | 0.9 | 4.3 | 0.00 | 0.00 | 0.00 | 78 | 992.6 |
| 20260906025932 | 78 | 343 | 0.9 | 4.3 | 0.00 | 0.00 | 0.00 | 78 | 992.5 |
| 20260906025832 | 78 | 0 | 0.9 | 4.3 | 0.00 | 0.00 | 0.00 | 78 | 992.5 |
| 20260906025732 | 78 | 347 | 0.9 | 4.3 | 0.00 | 0.00 | 0.00 | 78 | 992.5 |
| 20260906025632 | 79 | 315 | 0.9 | 4.3 | 0.00 | 0.00 | 0.00 | 78 | 992.6 |
| 20260906025533 | 79 | 0 | 0.9 | 4.3 | 0.00 | 0.00 | 0.00 | 78 | 992.6 |
| 20260906025454 | 79 | 0 | 0.9 | 4.3 | 0.00 | 0.00 | 0.00 | 78 | 992.6 |
| 20260906025442 | 79 | 8 | 0.9 | 4.3 | 0.00 | 0.00 | 0.00 | 78 | 992.6 |
| 20260906025332 | 79 | 0 | 0.9 | 4.3 | 0.00 | 0.00 | 0.00 | 78 | 992.6 |
| 20260906025233 | 79 | 342 | 0.9 | 4.3 | 0.00 | 0.00 | 0.00 | 78 | 992.6 |
| 20260906025133 | 79 | 9 | 0.9 | 3.5 | 0.00 | 0.00 | 0.00 | 78 | 992.6 |
| 20260906025032 | 79 | 0 | 0.9 | 3.5 | 0.00 | 0.00 | 0.00 | 78 | 992.6 |
| 20260906024933 | 79 | 0 | 0.9 | 3.5 | 0.00 | 0.00 | 0.00 | 78 | 992.6 |
| 20260906024842 | 79 | 0 | 0.9 | 3.5 | 0.00 | 0.00 | 0.00 | 78 | 992.7 |
| 20260906024732 | 79 | 354 | 0.9 | 3.5 | 0.00 | 0.00 | 0.00 | 78 | 992.7 |
| 20260906024632 | 79 | 349 | 0.9 | 3.5 | 0.00 | 0.00 | 0.00 | 78 | 992.7 |
| 20260906024534 | 79 | 15 | 0.9 | 3.5 | 0.00 | 0.00 | 0.00 | 78 | 992.7 |
| 20260906024455 | 79 | 4 | 0.9 | 3.5 | 0.00 | 0.00 | 0.00 | 78 | 992.7 |
| 20260906024432 | 79 | 0 | 0.9 | 3.5 | 0.00 | 0.00 | 0.00 | 77 | 992.7 |
| 20260906024332 | 79 | 0 | 0.9 | 3.5 | 0.00 | 0.00 | 0.00 | 77 | 992.7 |
| 20260906024232 | 79 | 354 | 0.9 | 2.6 | 0.00 | 0.00 | 0.00 | 77 | 992.7 |
| 20260906024132 | 79 | 0 | 0.9 | 2.6 | 0.00 | 0.00 | 0.00 | 77 | 992.7 |
| 20260906024032 | 79 | 0 | 0.9 | 2.6 | 0.00 | 0.00 | 0.00 | 77 | 992.7 |
| 20260906023955 | 79 | 0 | 0.9 | 2.6 | 0.00 | 0.00 | 0.00 | 77 | 992.7 |
| 20260906023932 | 79 | 355 | 0.9 | 2.6 | 0.00 | 0.00 | 0.00 | 77 | 992.7 |
| 20260906023832 | 79 | 347 | 0.9 | 2.6 | 0.00 | 0.00 | 0.00 | 77 | 992.6 |
| 20260906023733 | 79 | 358 | 0.9 | 2.6 | 0.00 | 0.00 | 0.00 | 77 | 992.7 |
| 20260906023633 | 79 | 333 | 0.9 | 4.3 | 0.00 | 0.00 | 0.00 | 77 | 992.6 |
| 20260906023532 | 79 | 350 | 0.9 | 4.3 | 0.00 | 0.00 | 0.00 | 77 | 992.6 |
| 20260906023455 | 79 | 322 | 0.9 | 4.3 | 0.00 | 0.00 | 0.00 | 77 | 992.6 |
| 20260906023430 | 79 | 0 | 0.9 | 4.3 | 0.00 | 0.00 | 0.00 | 77 | 992.6 |
| 20260906023330 | 79 | 353 | 0.9 | 4.3 | 0.00 | 0.00 | 0.00 | 77 | 992.6 |
| 20260906023235 | 79 | 331 | 0.9 | 4.3 | 0.00 | 0.00 | 0.00 | 77 | 992.5 |
| 20260906023229 | 79 | 0 | 0.9 | 4.3 | 0.00 | 0.00 | 0.00 | 77 | 992.6 |
| 20260906023129 | 79 | 243 | 0.9 | 4.3 | 0.00 | 0.00 | 0.00 | 77 | 992.5 |
| 20260906023111 | 79 | 0 | 0.9 | 4.3 | 0.00 | 0.00 | 0.00 | 77 | 992.5 |
| 20260906022929 | 79 | 0 | 0.9 | 4.3 | 0.00 | 0.00 | 0.00 | 77 | 992.5 |
| 20260906022829 | 79 | 0 | 0.9 | 4.3 | 0.00 | 0.00 | 0.00 | 77 | 992.5 |
| 20260906022730 | 79 | 11 | 0.9 | 4.3 | 0.00 | 0.00 | 0.00 | 77 | 992.5 |
| 20260906022630 | 80 | 357 | 0.9 | 4.3 | 0.00 | 0.00 | 0.00 | 77 | 992.5 |
| 20260906022530 | 80 | 356 | 0.9 | 3.5 | 0.00 | 0.00 | 0.00 | 77 | 992.5 |
| 20260906022455 | 80 | 0 | 0.9 | 3.5 | 0.00 | 0.00 | 0.00 | 77 | 992.5 |
| 20260906022430 | 80 | 324 | 0.9 | 3.5 | 0.00 | 0.00 | 0.00 | 77 | 992.5 |
| 20260906022329 | 80 | 334 | 0.9 | 3.5 | 0.00 | 0.00 | 0.00 | 77 | 992.5 |
| 20260906022230 | 80 | 0 | 0.9 | 3.5 | 0.00 | 0.00 | 0.00 | 77 | 992.5 |
| 20260906022217 | 80 | 0 | 0.9 | 3.5 | 0.00 | 0.00 | 0.00 | 77 | 992.5 |
| 20260906022129 | 80 | 0 | 0.9 | 3.5 | 0.00 | 0.00 | 0.00 | 77 | 992.5 |
| 20260906022111 | 80 | 306 | 0.9 | 3.5 | 0.00 | 0.00 | 0.00 | 77 | 992.5 |
| 20260906021927 | 80 | 287 | 0.9 | 3.5 | 0.00 | 0.00 | 0.00 | 76 | 992.5 |
| 20260906021827 | 80 | 330 | 0.9 | 3.5 | 0.00 | 0.00 | 0.00 | 77 | 992.5 |
| 20260906021728 | 80 | 0 | 0.9 | 3.5 | 0.00 | 0.00 | 0.00 | 76 | 992.5 |
| 20260906021624 | 80 | 339 | 0.9 | 3.5 | 0.00 | 0.00 | 0.00 | 76 | 992.5 |
| 20260906021524 | 80 | 0 | 0.9 | 3.5 | 0.00 | 0.00 | 0.00 | 76 | 992.5 |
| 20260906021455 | 80 | 338 | 0.9 | 3.5 | 0.00 | 0.00 | 0.00 | 76 | 992.5 |
| 20260906021423 | 80 | 348 | 0.0 | 2.6 | 0.00 | 0.00 | 0.00 | 76 | 992.4 |
| 20260906021322 | 80 | 327 | 0.9 | 2.6 | 0.00 | 0.00 | 0.00 | 76 | 992.5 |
| 20260906021221 | 80 | 0 | 0.0 | 2.6 | 0.00 | 0.00 | 0.00 | 76 | 992.5 |
| 20260906021130 | 80 | 274 | 0.9 | 2.6 | 0.00 | 0.00 | 0.00 | 76 | 992.4 |
| 20260906021017 | 80 | 0 | 0.0 | 2.6 | 0.00 | 0.00 | 0.00 | 76 | 992.4 |
| 20260906020955 | 80 | 0 | 0.0 | 2.6 | 0.00 | 0.00 | 0.00 | 76 | 992.4 |
| 20260906020931 | 80 | 0 | 0.9 | 2.6 | 0.00 | 0.00 | 0.00 | 76 | 992.4 |
| 20260906020817 | 80 | 355 | 0.9 | 2.6 | 0.00 | 0.00 | 0.00 | 76 | 992.4 |
| 20260906020717 | 80 | 321 | 0.9 | 2.6 | 0.00 | 0.00 | 0.00 | 76 | 992.4 |
| 20260906020616 | 80 | 188 | 0.9 | 2.6 | 0.00 | 0.00 | 0.00 | 76 | 992.5 |
| 20260906020516 | 80 | 0 | 0.9 | 2.6 | 0.00 | 0.00 | 0.00 | 76 | 992.4 |
| 20260906020455 | 80 | 0 | 0.9 | 2.6 | 0.00 | 0.00 | 0.00 | 76 | 992.4 |
| 20260906020420 | 80 | 0 | 0.9 | 2.6 | 0.00 | 0.00 | 0.00 | 76 | 992.4 |
| 20260906020312 | 80 | 0 | 0.9 | 2.6 | 0.00 | 0.00 | 0.00 | 76 | 992.4 |
| 20260906020212 | 80 | 340 | 0.9 | 2.6 | 0.00 | 0.00 | 0.00 | 76 | 992.4 |
| 20260906020113 | 80 | 337 | 0.9 | 2.6 | 0.00 | 0.00 | 0.00 | 76 | 992.4 |
| 20260906020012 | 80 | 0 | 0.9 | 2.6 | 0.00 | 0.00 | 0.00 | 76 | 992.4 |
| 20260906015952 | 80 | 220 | 0.9 | 2.6 | 0.00 | 0.00 | 0.00 | 76 | 992.4 |
| 20260906015912 | 80 | 38 | 0.9 | 2.6 | 0.00 | 0.00 | 0.00 | 76 | 992.4 |
| 20260906015812 | 80 | 0 | 0.9 | 2.6 | 0.00 | 0.00 | 0.00 | 76 | 992.4 |
| 20260906015712 | 80 | 11 | 0.9 | 3.5 | 0.00 | 0.00 | 0.00 | 76 | 992.4 |
| 20260906015612 | 80 | 355 | 0.9 | 4.3 | 0.00 | 0.00 | 0.00 | 76 | 992.4 |
| 20260906015512 | 80 | 0 | 0.9 | 4.3 | 0.00 | 0.00 | 0.00 | 76 | 992.4 |
| 20260906015452 | 80 | 0 | 0.9 | 4.3 | 0.00 | 0.00 | 0.00 | 76 | 992.4 |
| 20260906015412 | 80 | 0 | 0.9 | 4.3 | 0.00 | 0.00 | 0.00 | 76 | 992.4 |
| 20260906015312 | 80 | 280 | 0.9 | 4.3 | 0.00 | 0.00 | 0.00 | 76 | 992.4 |
| 20260906015212 | 81 | 0 | 0.9 | 4.3 | 0.00 | 0.00 | 0.00 | 76 | 992.4 |
| 20260906015113 | 81 | 352 | 0.9 | 4.3 | 0.00 | 0.00 | 0.00 | 76 | 992.4 |
| 20260906015012 | 81 | 317 | 0.9 | 4.3 | 0.00 | 0.00 | 0.00 | 76 | 992.4 |
| 20260906014953 | 81 | 262 | 0.9 | 4.3 | 0.00 | 0.00 | 0.00 | 76 | 992.4 |
| 20260906014913 | 81 | 0 | 0.9 | 4.3 | 0.00 | 0.00 | 0.00 | 76 | 992.3 |
| 20260906014812 | 81 | 338 | 0.9 | 4.3 | 0.00 | 0.00 | 0.00 | 76 | 992.3 |
| 20260906014712 | 81 | 304 | 0.9 | 4.3 | 0.00 | 0.00 | 0.00 | 76 | 992.3 |
| 20260906014613 | 81 | 215 | 0.0 | 4.3 | 0.00 | 0.00 | 0.00 | 76 | 992.3 |
| 20260906014513 | 81 | 328 | 0.9 | 3.5 | 0.00 | 0.00 | 0.00 | 76 | 992.3 |
| 20260906014453 | 81 | 348 | 0.9 | 3.5 | 0.00 | 0.00 | 0.00 | 76 | 992.3 |
| 20260906014412 | 81 | 0 | 0.9 | 3.5 | 0.00 | 0.00 | 0.00 | 76 | 992.2 |
| 20260906014312 | 81 | 288 | 0.9 | 3.5 | 0.00 | 0.00 | 0.00 | 76 | 992.2 |
| 20260906014221 | 81 | 358 | 0.9 | 3.5 | 0.00 | 0.00 | 0.00 | 76 | 992.1 |
| 20260906014212 | 81 | 0 | 0.9 | 3.5 | 0.00 | 0.00 | 0.00 | 76 | 992.2 |
| 20260906014122 | 81 | 0 | 0.9 | 3.5 | 0.00 | 0.00 | 0.00 | 76 | 992.2 |
| 20260906014106 | 81 | 359 | 0.9 | 3.5 | 0.00 | 0.00 | 0.00 | 76 | 992.1 |
| 20260906013913 | 81 | 0 | 0.9 | 3.5 | 0.00 | 0.00 | 0.00 | 76 | 992.1 |
| 20260906013812 | 81 | 0 | 0.9 | 5.2 | 0.00 | 0.00 | 0.00 | 76 | 992.1 |
| 20260906013712 | 81 | 356 | 0.9 | 5.2 | 0.00 | 0.00 | 0.00 | 76 | 992.1 |
| 20260906013612 | 81 | 341 | 0.9 | 5.2 | 0.00 | 0.00 | 0.00 | 76 | 992.1 |
| 20260906013512 | 81 | 0 | 0.9 | 5.2 | 0.00 | 0.00 | 0.00 | 76 | 992.1 |
| 20260906013454 | 81 | 340 | 0.9 | 5.2 | 0.00 | 0.00 | 0.00 | 76 | 992.1 |
| 20260906013413 | 81 | 10 | 0.9 | 5.2 | 0.00 | 0.00 | 0.00 | 76 | 992.0 |
| 20260906013312 | 81 | 344 | 0.9 | 5.2 | 0.00 | 0.00 | 0.00 | 76 | 992.0 |
| 20260906013210 | 81 | 347 | 0.9 | 5.2 | 0.00 | 0.00 | 0.00 | 76 | 992.0 |
| 20260906013109 | 81 | 0 | 0.9 | 5.2 | 0.00 | 0.00 | 0.00 | 76 | 992.0 |
| 20260906013009 | 82 | 359 | 0.9 | 5.2 | 0.00 | 0.00 | 0.00 | 76 | 992.0 |
| 20260906012953 | 82 | 359 | 0.9 | 5.2 | 0.00 | 0.00 | 0.00 | 76 | 992.0 |
| 20260906012909 | 82 | 198 | 0.9 | 5.2 | 0.00 | 0.00 | 0.00 | 76 | 991.9 |
| 20260906012809 | 82 | 328 | 0.9 | 4.3 | 0.00 | 0.00 | 0.00 | 76 | 992.0 |
| 20260906012710 | 82 | 0 | 0.9 | 4.3 | 0.00 | 0.00 | 0.00 | 76 | 991.9 |
| 20260906012610 | 82 | 250 | 0.9 | 5.2 | 0.00 | 0.00 | 0.00 | 76 | 991.9 |
| 20260906012509 | 82 | 17 | 0.9 | 5.2 | 0.00 | 0.00 | 0.00 | 76 | 992.0 |
| 20260906012453 | 82 | 349 | 0.9 | 5.2 | 0.00 | 0.00 | 0.00 | 76 | 992.0 |
| 20260906012409 | 82 | 0 | 0.9 | 5.2 | 0.00 | 0.00 | 0.00 | 76 | 991.9 |
| 20260906012309 | 82 | 0 | 0.9 | 5.2 | 0.00 | 0.00 | 0.00 | 76 | 991.9 |
| 20260906012210 | 82 | 0 | 0.9 | 5.2 | 0.00 | 0.00 | 0.00 | 76 | 991.9 |
| 20260906012108 | 82 | 333 | 0.9 | 5.2 | 0.00 | 0.00 | 0.00 | 76 | 991.9 |
| 20260906012008 | 82 | 210 | 0.9 | 5.2 | 0.00 | 0.00 | 0.00 | 76 | 992.0 |
| 20260906011951 | 82 | 227 | 0.9 | 5.2 | 0.00 | 0.00 | 0.00 | 76 | 992.0 |
| 20260906011904 | 82 | 185 | 0.9 | 5.2 | 0.00 | 0.00 | 0.00 | 76 | 991.9 |
| 20260906011804 | 82 | 3 | 0.9 | 5.2 | 0.00 | 0.00 | 0.00 | 76 | 991.9 |
| 20260906011704 | 82 | 353 | 0.9 | 5.2 | 0.00 | 0.00 | 0.00 | 76 | 991.9 |
| 20260906011604 | 82 | 282 | 0.9 | 4.3 | 0.00 | 0.00 | 0.00 | 75 | 991.9 |
| 20260906011503 | 82 | 267 | 0.9 | 4.3 | 0.00 | 0.00 | 0.00 | 75 | 991.9 |
| 20260906011448 | 82 | 183 | 0.9 | 4.3 | 0.00 | 0.00 | 0.00 | 75 | 991.9 |
| 20260906011401 | 82 | 179 | 0.9 | 4.3 | 0.00 | 0.00 | 0.00 | 75 | 991.9 |
| 20260906011301 | 82 | 339 | 0.9 | 4.3 | 0.00 | 0.00 | 0.00 | 75 | 991.9 |
| 20260906011200 | 82 | 0 | 1.7 | 4.3 | 0.00 | 0.00 | 0.00 | 75 | 991.9 |
| 20260906011100 | 82 | 256 | 1.7 | 7.0 | 0.00 | 0.00 | 0.00 | 75 | 991.9 |
| 20260906010948 | 82 | 0 | 1.7 | 7.0 | 0.00 | 0.00 | 0.00 | 75 | 991.9 |
| 20260906010858 | 82 | 342 | 1.7 | 7.0 | 0.00 | 0.00 | 0.00 | 75 | 991.9 |
| 20260906010758 | 83 | 337 | 1.7 | 7.0 | 0.00 | 0.00 | 0.00 | 75 | 991.8 |
| 20260906010710 | 83 | 194 | 1.7 | 7.0 | 0.00 | 0.00 | 0.00 | 75 | 991.8 |
| 20260906010559 | 83 | 316 | 1.7 | 7.0 | 0.00 | 0.00 | 0.00 | 74 | 991.7 |
| 20260906010458 | 83 | 195 | 1.7 | 7.0 | 0.00 | 0.00 | 0.00 | 74 | 991.8 |
| 20260906010444 | 83 | 220 | 1.7 | 7.0 | 0.00 | 0.00 | 0.00 | 74 | 991.8 |
| 20260906010355 | 83 | 14 | 1.7 | 7.0 | 0.00 | 0.00 | 0.00 | 74 | 991.7 |
| 20260906010255 | 83 | 2 | 1.7 | 7.0 | 0.00 | 0.00 | 0.00 | 74 | 991.7 |
| 20260906010155 | 83 | 282 | 1.7 | 7.0 | 0.00 | 0.00 | 0.00 | 74 | 991.7 |
| 20260906010108 | 83 | 195 | 1.7 | 4.3 | 0.00 | 0.00 | 0.00 | 74 | 991.7 |
| 20260906005956 | 83 | 322 | 1.7 | 4.3 | 0.00 | 0.00 | 0.00 | 74 | 991.7 |
| 20260906005945 | 83 | 303 | 1.7 | 4.3 | 0.00 | 0.00 | 0.00 | 74 | 991.7 |
| 20260906005855 | 83 | 210 | 1.7 | 4.3 | 0.00 | 0.00 | 0.00 | 74 | 991.8 |
| 20260906005755 | 83 | 0 | 1.7 | 4.3 | 0.00 | 0.00 | 0.00 | 74 | 991.6 |
| 20260906005655 | 83 | 253 | 0.9 | 4.3 | 0.00 | 0.00 | 0.00 | 74 | 991.7 |
| 20260906005554 | 84 | 0 | 0.9 | 4.3 | 0.00 | 0.00 | 0.00 | 74 | 991.6 |
| 20260906005445 | 84 | 348 | 0.9 | 4.3 | 0.00 | 0.00 | 0.00 | 74 | 991.6 |
| 20260906005356 | 84 | 17 | 0.9 | 4.3 | 0.00 | 0.00 | 0.00 | 74 | 991.6 |
| 20260906005255 | 84 | 274 | 0.9 | 4.3 | 0.00 | 0.00 | 0.00 | 74 | 991.6 |
| 20260906005155 | 84 | 355 | 0.9 | 3.5 | 0.00 | 0.00 | 0.00 | 73 | 991.6 |
| 20260906005055 | 84 | 271 | 0.9 | 3.5 | 0.00 | 0.00 | 0.00 | 73 | 991.6 |
| 20260906004945 | 84 | 346 | 0.9 | 3.5 | 0.00 | 0.00 | 0.00 | 73 | 991.5 |
| 20260906004855 | 84 | 5 | 0.9 | 3.5 | 0.00 | 0.00 | 0.00 | 73 | 991.5 |
| 20260906004755 | 84 | 341 | 0.9 | 3.5 | 0.00 | 0.00 | 0.00 | 73 | 991.5 |
| 20260906004655 | 84 | 359 | 0.9 | 3.5 | 0.00 | 0.00 | 0.00 | 73 | 991.5 |
| 20260906004554 | 84 | 0 | 0.9 | 3.5 | 0.00 | 0.00 | 0.00 | 73 | 991.5 |
| 20260906004456 | 84 | 352 | 0.9 | 3.5 | 0.00 | 0.00 | 0.00 | 73 | 991.4 |
| 20260906004445 | 84 | 351 | 0.9 | 3.5 | 0.00 | 0.00 | 0.00 | 73 | 991.4 |
| 20260906004355 | 85 | 339 | 0.9 | 3.5 | 0.00 | 0.00 | 0.00 | 72 | 991.4 |
| 20260906004255 | 85 | 320 | 0.9 | 3.5 | 0.00 | 0.00 | 0.00 | 72 | 991.4 |
| 20260906004156 | 85 | 0 | 0.9 | 4.3 | 0.00 | 0.00 | 0.00 | 72 | 991.4 |
| 20260906004055 | 85 | 275 | 0.9 | 4.3 | 0.00 | 0.00 | 0.00 | 72 | 991.4 |
| 20260906003945 | 85 | 0 | 0.9 | 4.3 | 0.00 | 0.00 | 0.00 | 72 | 991.4 |
| 20260906003855 | 85 | 0 | 0.9 | 4.3 | 0.00 | 0.00 | 0.00 | 72 | 991.4 |
| 20260906003756 | 85 | 187 | 0.9 | 4.3 | 0.00 | 0.00 | 0.00 | 71 | 991.3 |
| 20260906003655 | 85 | 309 | 0.9 | 4.3 | 0.00 | 0.00 | 0.00 | 71 | 991.3 |
| 20260906003555 | 85 | 2 | 0.9 | 4.3 | 0.00 | 0.00 | 0.00 | 71 | 991.3 |
| 20260906003444 | 85 | 256 | 0.9 | 4.3 | 0.00 | 0.00 | 0.00 | 71 | 991.3 |
| 20260906003355 | 85 | 11 | 0.9 | 4.3 | 0.00 | 0.00 | 0.00 | 71 | 991.3 |
| 20260906003255 | 85 | 341 | 0.9 | 4.3 | 0.00 | 0.00 | 0.00 | 71 | 991.2 |
| 20260906003153 | 85 | 328 | 0.9 | 3.5 | 0.00 | 0.00 | 0.00 | 70 | 991.2 |
| 20260906003052 | 85 | 0 | 0.9 | 4.3 | 0.00 | 0.00 | 0.00 | 70 | 991.2 |
| 20260906002953 | 85 | 0 | 0.9 | 4.3 | 0.00 | 0.00 | 0.00 | 70 | 991.2 |
| 20260906002854 | 85 | 341 | 0.9 | 4.3 | 0.00 | 0.00 | 0.00 | 70 | 991.2 |
| 20260906002753 | 85 | 2 | 0.9 | 4.3 | 0.00 | 0.00 | 0.00 | 70 | 991.2 |
| 20260906002653 | 85 | 205 | 0.9 | 4.3 | 0.00 | 0.00 | 0.00 | 70 | 991.2 |
| 20260906002553 | 85 | 341 | 0.9 | 4.3 | 0.00 | 0.00 | 0.00 | 70 | 991.2 |
| 20260906002453 | 85 | 0 | 1.7 | 4.3 | 0.00 | 0.00 | 0.00 | 70 | 991.2 |
| 20260906002352 | 85 | 325 | 1.7 | 4.3 | 0.00 | 0.00 | 0.00 | 70 | 991.2 |
| 20260906002253 | 85 | 356 | 1.7 | 4.3 | 0.00 | 0.00 | 0.00 | 70 | 991.1 |
| 20260906002150 | 85 | 348 | 1.7 | 4.3 | 0.00 | 0.00 | 0.00 | 70 | 991.1 |
| 20260906002051 | 85 | 354 | 1.7 | 4.3 | 0.00 | 0.00 | 0.00 | 70 | 991.2 |
| 20260906001950 | 85 | 352 | 1.7 | 4.3 | 0.00 | 0.00 | 0.00 | 70 | 991.2 |
| 20260906001931 | 86 | 352 | 1.7 | 4.3 | 0.00 | 0.00 | 0.00 | 70 | 991.2 |
| 20260906001851 | 85 | 350 | 1.7 | 4.3 | 0.00 | 0.00 | 0.00 | 70 | 991.2 |
| 20260906001827 | 86 | 0 | 1.7 | 4.3 | 0.00 | 0.00 | 0.00 | 70 | 991.2 |
| 20260906001651 | 86 | 291 | 1.7 | 4.3 | 0.00 | 0.00 | 0.00 | 70 | 991.2 |
| 20260906001611 | 86 | 341 | 1.7 | 4.3 | 0.00 | 0.00 | 0.00 | 70 | 991.3 |
| 20260906001555 | 86 | 352 | 1.7 | 4.3 | 0.00 | 0.00 | 0.00 | 70 | 991.2 |
| 20260906001351 | 86 | 321 | 1.7 | 4.3 | 0.00 | 0.00 | 0.00 | 70 | 991.3 |
| 20260906001251 | 86 | 289 | 1.7 | 4.3 | 0.00 | 0.00 | 0.00 | 70 | 991.3 |
| 20260906001222 | 86 | 322 | 1.7 | 4.3 | 0.00 | 0.00 | 0.00 | 70 | 991.3 |
| 20260906001150 | 86 | 347 | 1.7 | 3.5 | 0.00 | 0.00 | 0.00 | 70 | 991.3 |
| 20260906001108 | 86 | 245 | 1.7 | 4.3 | 0.00 | 0.00 | 0.00 | 70 | 991.3 |
| 20260906000948 | 86 | 319 | 1.7 | 4.3 | 0.00 | 0.00 | 0.00 | 70 | 991.3 |
| 20260906000847 | 86 | 14 | 0.9 | 4.3 | 0.00 | 0.00 | 0.00 | 70 | 991.3 |
| 20260906000749 | 86 | 0 | 0.9 | 4.3 | 0.00 | 0.00 | 0.00 | 70 | 991.3 |
| 20260906000716 | 86 | 10 | 1.7 | 4.3 | 0.00 | 0.00 | 0.00 | 70 | 991.2 |
| 20260906000647 | 86 | 0 | 0.9 | 4.3 | 0.00 | 0.00 | 0.00 | 70 | 991.3 |
| 20260906000611 | 86 | 341 | 1.7 | 4.3 | 0.00 | 0.00 | 0.00 | 70 | 991.3 |
| 20260906000444 | 86 | 306 | 1.7 | 4.3 | 0.00 | 0.00 | 0.00 | 70 | 991.2 |
| 20260906000341 | 86 | 355 | 1.7 | 4.3 | 0.00 | 0.00 | 0.00 | 70 | 991.2 |
| 20260906000241 | 86 | 274 | 1.7 | 4.3 | 0.00 | 0.00 | 0.00 | 70 | 991.2 |
| 20260906000141 | 86 | 340 | 1.7 | 4.3 | 0.00 | 0.00 | 0.00 | 70 | 991.3 |
| 20260906000041 | 86 | 345 | 1.7 | 6.1 | 0.00 | 0.00 | 0.00 | 70 | 991.3 |
| 20260905235941 | 86 | 0 | 1.7 | 6.1 | 0.00 | 0.00 | 0.00 | 70 | 991.3 |
| 20260905235841 | 86 | 35 | 1.7 | 6.1 | 0.00 | 0.00 | 0.00 | 70 | 991.3 |
| 20260905235741 | 87 | 343 | 1.7 | 6.1 | 0.00 | 0.00 | 0.00 | 70 | 991.3 |
| 20260905235715 | 87 | 325 | 1.7 | 6.1 | 0.00 | 0.00 | 0.00 | 71 | 991.2 |
| 20260905235641 | 87 | 8 | 1.7 | 6.1 | 0.00 | 0.00 | 0.00 | 70 | 991.3 |
| 20260905235607 | 87 | 347 | 1.7 | 6.1 | 0.00 | 0.00 | 0.00 | 70 | 991.3 |
| 20260905235440 | 87 | 0 | 1.7 | 6.1 | 0.00 | 0.00 | 0.00 | 71 | 991.2 |
| 20260905235341 | 87 | 351 | 1.7 | 6.1 | 0.00 | 0.00 | 0.00 | 70 | 991.2 |
| 20260905235241 | 87 | 236 | 1.7 | 6.1 | 0.00 | 0.00 | 0.00 | 70 | 991.2 |
| 20260905235212 | 87 | 337 | 0.9 | 4.3 | 0.00 | 0.00 | 0.00 | 70 | 991.2 |
| 20260905235141 | 87 | 3 | 1.7 | 6.1 | 0.00 | 0.00 | 0.00 | 70 | 991.2 |
| 20260905235107 | 87 | 341 | 0.9 | 6.1 | 0.00 | 0.00 | 0.00 | 70 | 991.2 |
| 20260905234941 | 87 | 350 | 0.9 | 4.3 | 0.00 | 0.00 | 0.00 | 70 | 991.2 |
| 20260905234841 | 87 | 348 | 0.9 | 4.3 | 0.00 | 0.00 | 0.00 | 70 | 991.2 |
| 20260905234742 | 87 | 320 | 0.9 | 4.3 | 0.00 | 0.00 | 0.00 | 70 | 991.1 |
| 20260905234641 | 87 | 3 | 0.9 | 4.3 | 0.00 | 0.00 | 0.00 | 70 | 991.1 |
| 20260905234541 | 87 | 229 | 0.9 | 4.3 | 0.00 | 0.00 | 0.00 | 70 | 991.1 |
| 20260905234451 | 87 | 0 | 1.7 | 4.3 | 0.00 | 0.00 | 0.00 | 70 | 991.1 |
| 20260905234441 | 87 | 245 | 1.7 | 7.0 | 0.00 | 0.00 | 0.00 | 70 | 991.1 |
| 20260905234341 | 87 | 215 | 1.7 | 7.0 | 0.00 | 0.00 | 0.00 | 70 | 991.2 |
| 20260905234243 | 87 | 21 | 1.7 | 7.0 | 0.00 | 0.00 | 0.00 | 70 | 991.1 |
| 20260905234143 | 87 | 212 | 1.7 | 7.0 | 0.00 | 0.00 | 0.00 | 70 | 991.2 |
| 20260905234042 | 87 | 347 | 1.7 | 7.0 | 0.00 | 0.00 | 0.00 | 70 | 991.1 |
| 20260905234005 | 87 | 317 | 1.7 | 7.0 | 0.00 | 0.00 | 0.00 | 70 | 991.1 |
| 20260905233954 | 87 | 313 | 1.7 | 7.0 | 0.00 | 0.00 | 0.00 | 70 | 991.1 |
| 20260905233841 | 87 | 0 | 1.7 | 7.0 | 0.00 | 0.00 | 0.00 | 70 | 991.1 |
| 20260905233741 | 88 | 7 | 1.7 | 7.0 | 0.00 | 0.00 | 0.00 | 70 | 991.1 |
| 20260905233642 | 88 | 222 | 1.7 | 7.0 | 0.00 | 0.00 | 0.00 | 70 | 991.1 |
| 20260905233541 | 88 | 7 | 1.7 | 7.0 | 0.00 | 0.00 | 0.00 | 70 | 991.1 |
| 20260905233451 | 88 | 0 | 1.7 | 7.0 | 0.00 | 0.00 | 0.00 | 70 | 991.1 |
| 20260905233440 | 88 | 193 | 1.7 | 7.0 | 0.00 | 0.00 | 0.00 | 70 | 991.1 |
| 20260905233341 | 88 | 340 | 1.7 | 5.2 | 0.00 | 0.00 | 0.00 | 70 | 991.1 |
| 20260905233241 | 88 | 287 | 1.7 | 5.2 | 0.00 | 0.00 | 0.00 | 69 | 991.1 |
| 20260905233215 | 88 | 2 | 1.7 | 7.8 | 0.00 | 0.00 | 0.00 | 69 | 991.0 |
| 20260905233141 | 88 | 23 | 1.7 | 5.2 | 0.00 | 0.00 | 0.00 | 69 | 991.1 |
| 20260905233105 | 88 | 0 | 1.7 | 5.2 | 0.00 | 0.00 | 0.00 | 69 | 991.1 |
| 20260905232942 | 88 | 304 | 1.7 | 7.8 | 0.00 | 0.00 | 0.00 | 69 | 991.0 |
| 20260905232842 | 88 | 3 | 1.7 | 7.8 | 0.00 | 0.00 | 0.00 | 70 | 991.0 |
| 20260905232741 | 88 | 358 | 1.7 | 7.8 | 0.00 | 0.00 | 0.00 | 70 | 991.0 |
| 20260905232642 | 89 | 340 | 1.7 | 7.8 | 0.00 | 0.00 | 0.00 | 69 | 991.0 |
| 20260905232539 | 89 | 313 | 1.7 | 7.8 | 0.00 | 0.00 | 0.00 | 69 | 991.0 |
| 20260905232449 | 89 | 319 | 1.7 | 7.8 | 0.00 | 0.00 | 0.00 | 69 | 991.0 |
| 20260905232441 | 89 | 330 | 1.7 | 7.8 | 0.00 | 0.00 | 0.00 | 69 | 991.0 |
| 20260905232428 | 89 | 336 | 1.7 | 7.8 | 0.00 | 0.00 | 0.00 | 69 | 990.8 |
| 20260905232339 | 89 | 333 | 1.7 | 7.8 | 0.00 | 0.00 | 0.00 | 69 | 990.9 |
| 20260905232323 | 89 | 252 | 1.7 | 7.8 | 0.00 | 0.00 | 0.00 | 69 | 990.9 |
| 20260905232137 | 89 | 293 | 2.6 | 7.8 | 0.00 | 0.00 | 0.00 | 69 | 990.9 |
| 20260905232100 | 89 | 3 | 1.7 | 7.8 | 0.00 | 0.00 | 0.00 | 69 | 990.8 |
| 20260905231935 | 89 | 326 | 1.7 | 7.8 | 0.00 | 0.00 | 0.00 | 69 | 990.8 |
| 20260905231833 | 89 | 357 | 1.7 | 5.2 | 0.00 | 0.00 | 0.00 | 69 | 990.8 |
| 20260905231733 | 89 | 0 | 1.7 | 5.2 | 0.00 | 0.00 | 0.00 | 69 | 990.7 |
| 20260905231629 | 89 | 29 | 1.7 | 5.2 | 0.00 | 0.00 | 0.00 | 68 | 990.7 |
| 20260905231530 | 90 | 340 | 1.7 | 5.2 | 0.00 | 0.00 | 0.00 | 68 | 990.7 |
| 20260905231444 | 90 | 350 | 1.7 | 5.2 | 0.00 | 0.00 | 0.00 | 68 | 990.7 |
| 20260905231430 | 90 | 351 | 1.7 | 5.2 | 0.00 | 0.00 | 0.00 | 68 | 990.7 |
| 20260905231330 | 90 | 8 | 1.7 | 5.2 | 0.00 | 0.00 | 0.00 | 68 | 990.7 |
| 20260905231230 | 90 | 349 | 1.7 | 4.3 | 0.00 | 0.00 | 0.00 | 68 | 990.6 |
| 20260905231129 | 90 | 0 | 1.7 | 4.3 | 0.00 | 0.00 | 0.00 | 68 | 990.6 |
| 20260905231028 | 90 | 354 | 1.7 | 3.5 | 0.00 | 0.00 | 0.00 | 67 | 990.6 |
| 20260905230944 | 90 | 313 | 1.7 | 3.5 | 0.00 | 0.00 | 0.00 | 67 | 990.5 |
| 20260905230927 | 90 | 336 | 1.7 | 3.5 | 0.00 | 0.00 | 0.00 | 67 | 990.5 |
| 20260905230828 | 90 | 349 | 1.7 | 3.5 | 0.00 | 0.00 | 0.00 | 67 | 990.5 |
| 20260905230728 | 90 | 334 | 0.9 | 3.5 | 0.00 | 0.00 | 0.00 | 66 | 990.5 |
| 20260905230627 | 90 | 353 | 0.9 | 3.5 | 0.00 | 0.00 | 0.00 | 67 | 990.5 |
| 20260905230527 | 90 | 349 | 0.9 | 3.5 | 0.00 | 0.00 | 0.00 | 66 | 990.5 |
| 20260905230440 | 90 | 341 | 0.9 | 3.5 | 0.00 | 0.00 | 0.00 | 66 | 990.5 |
| 20260905230427 | 90 | 32 | 0.9 | 3.5 | 0.00 | 0.00 | 0.00 | 66 | 990.5 |
| 20260905230324 | 90 | 328 | 0.9 | 3.5 | 0.00 | 0.00 | 0.00 | 66 | 990.5 |
| 20260905230227 | 90 | 318 | 0.9 | 3.5 | 0.00 | 0.00 | 0.00 | 66 | 990.5 |
| 20260905230135 | 90 | 339 | 0.9 | 3.5 | 0.00 | 0.00 | 0.00 | 66 | 990.5 |
| 20260905230024 | 90 | 0 | 0.9 | 3.5 | 0.00 | 0.00 | 0.00 | 66 | 990.5 |
| 20260905225921 | 90 | 0 | 0.9 | 3.5 | 0.00 | 0.00 | 0.00 | 66 | 990.5 |
| 20260905225821 | 90 | 321 | 0.9 | 4.3 | 0.00 | 0.00 | 0.00 | 66 | 990.5 |
| 20260905225721 | 90 | 357 | 0.9 | 4.3 | 0.00 | 0.00 | 0.00 | 65 | 990.5 |
| 20260905225622 | 90 | 0 | 1.7 | 4.3 | 0.00 | 0.00 | 0.00 | 66 | 990.5 |
| 20260905225521 | 90 | 335 | 1.7 | 4.3 | 0.00 | 0.00 | 0.00 | 65 | 990.5 |
| 20260905225441 | 90 | 302 | 1.7 | 5.2 | 0.00 | 0.00 | 0.00 | 66 | 990.5 |
| 20260905225421 | 90 | 269 | 1.7 | 5.2 | 0.00 | 0.00 | 0.00 | 66 | 990.5 |
| 20260905225324 | 90 | 293 | 1.7 | 5.2 | 0.00 | 0.00 | 0.00 | 66 | 990.5 |
| 20260905225222 | 90 | 341 | 1.7 | 5.2 | 0.00 | 0.00 | 0.00 | 66 | 990.6 |
| 20260905225122 | 90 | 338 | 1.7 | 5.2 | 0.00 | 0.00 | 0.00 | 66 | 990.6 |
| 20260905225024 | 90 | 223 | 1.7 | 5.2 | 0.00 | 0.00 | 0.00 | 66 | 990.6 |
| 20260905224941 | 90 | 343 | 1.7 | 5.2 | 0.00 | 0.00 | 0.00 | 66 | 990.7 |
| 20260905224921 | 90 | 0 | 1.7 | 5.2 | 0.00 | 0.00 | 0.00 | 66 | 990.7 |
| 20260905224822 | 91 | 10 | 1.7 | 5.2 | 0.00 | 0.00 | 0.00 | 65 | 990.7 |
| 20260905224722 | 91 | 342 | 1.7 | 5.2 | 0.00 | 0.00 | 0.00 | 65 | 990.6 |
| 20260905224622 | 91 | 335 | 1.7 | 5.2 | 0.00 | 0.00 | 0.00 | 65 | 990.7 |
| 20260905224522 | 91 | 7 | 1.7 | 5.2 | 0.00 | 0.00 | 0.00 | 65 | 990.7 |
| 20260905224441 | 91 | 45 | 1.7 | 5.2 | 0.00 | 0.00 | 0.00 | 65 | 990.8 |
| 20260905224424 | 91 | 358 | 1.7 | 5.2 | 0.00 | 0.00 | 0.00 | 65 | 990.8 |
| 20260905224329 | 91 | 336 | 0.9 | 4.3 | 0.00 | 0.00 | 0.00 | 64 | 990.7 |
| 20260905224222 | 91 | 356 | 0.9 | 4.3 | 0.00 | 0.00 | 0.00 | 64 | 990.7 |
| 20260905224121 | 91 | 2 | 0.9 | 2.6 | 0.00 | 0.00 | 0.00 | 64 | 990.7 |
| 20260905224025 | 91 | 43 | 0.9 | 3.5 | 0.00 | 0.00 | 0.00 | 64 | 990.7 |
| 20260905223940 | 91 | 329 | 0.9 | 3.5 | 0.00 | 0.00 | 0.00 | 65 | 990.7 |
| 20260905223921 | 91 | 336 | 0.9 | 3.5 | 0.00 | 0.00 | 0.00 | 65 | 990.7 |
| 20260905223823 | 91 | 41 | 0.9 | 4.3 | 0.00 | 0.00 | 0.00 | 65 | 990.6 |
| 20260905223722 | 91 | 0 | 0.9 | 4.3 | 0.00 | 0.00 | 0.00 | 65 | 990.7 |
| 20260905223622 | 91 | 355 | 0.9 | 4.3 | 0.00 | 0.00 | 0.00 | 65 | 990.6 |
| 20260905223522 | 91 | 346 | 0.9 | 4.3 | 0.00 | 0.00 | 0.00 | 65 | 990.6 |
| 20260905223441 | 91 | 0 | 0.9 | 4.3 | 0.00 | 0.00 | 0.00 | 65 | 990.6 |
| 20260905223424 | 91 | 331 | 0.9 | 4.3 | 0.00 | 0.00 | 0.00 | 65 | 990.6 |
| 20260905223324 | 91 | 0 | 0.9 | 4.3 | 0.00 | 0.00 | 0.00 | 64 | 990.6 |
| 20260905223222 | 91 | 332 | 0.9 | 4.3 | 0.00 | 0.00 | 0.00 | 64 | 990.6 |
| 20260905223122 | 91 | 233 | 0.9 | 4.3 | 0.00 | 0.00 | 0.00 | 64 | 990.6 |
| 20260905223022 | 91 | 348 | 0.9 | 4.3 | 0.00 | 0.00 | 0.00 | 64 | 990.6 |
| 20260905222941 | 91 | 325 | 1.7 | 4.3 | 0.00 | 0.00 | 0.00 | 64 | 990.6 |
| 20260905222922 | 91 | 356 | 1.7 | 4.3 | 0.00 | 0.00 | 0.00 | 64 | 990.6 |
| 20260905222822 | 91 | 17 | 0.9 | 4.3 | 0.00 | 0.00 | 0.00 | 64 | 990.6 |
| 20260905222724 | 91 | 344 | 0.9 | 4.3 | 0.00 | 0.00 | 0.00 | 63 | 990.6 |
| 20260905222623 | 91 | 321 | 0.9 | 4.3 | 0.00 | 0.00 | 0.00 | 63 | 990.7 |
| 20260905222519 | 91 | 1 | 0.9 | 4.3 | 0.00 | 0.00 | 0.00 | 63 | 990.7 |
| 20260905222442 | 91 | 267 | 1.7 | 4.3 | 0.00 | 0.00 | 0.00 | 63 | 990.7 |
| 20260905222420 | 91 | 301 | 1.7 | 4.3 | 0.00 | 0.00 | 0.00 | 63 | 990.7 |
| 20260905222318 | 91 | 0 | 1.7 | 4.3 | 0.00 | 0.00 | 0.00 | 64 | 990.7 |
| 20260905222218 | 91 | 327 | 1.7 | 4.3 | 0.00 | 0.00 | 0.00 | 64 | 990.7 |
| 20260905222117 | 91 | 2 | 1.7 | 4.3 | 0.00 | 0.00 | 0.00 | 64 | 990.7 |
| 20260905222018 | 91 | 324 | 1.7 | 4.3 | 0.00 | 0.00 | 0.00 | 64 | 990.7 |
| 20260905221940 | 91 | 334 | 1.7 | 6.1 | 0.00 | 0.00 | 0.00 | 64 | 990.7 |
| 20260905221917 | 91 | 10 | 1.7 | 6.1 | 0.00 | 0.00 | 0.00 | 64 | 990.7 |
| 20260905221817 | 91 | 273 | 1.7 | 6.1 | 0.00 | 0.00 | 0.00 | 64 | 990.7 |
| 20260905221718 | 91 | 12 | 1.7 | 6.1 | 0.00 | 0.00 | 0.00 | 64 | 990.7 |
| 20260905221615 | 91 | 262 | 1.7 | 6.1 | 0.00 | 0.00 | 0.00 | 64 | 990.7 |
| 20260905221513 | 91 | 355 | 1.7 | 6.1 | 0.00 | 0.00 | 0.00 | 64 | 990.7 |
| 20260905221440 | 91 | 352 | 1.7 | 6.1 | 0.00 | 0.00 | 0.00 | 64 | 990.7 |
| 20260905221410 | 91 | 340 | 1.7 | 6.1 | 0.00 | 0.00 | 0.00 | 64 | 990.7 |
| 20260905221310 | 91 | 308 | 1.7 | 6.1 | 0.00 | 0.00 | 0.00 | 64 | 990.7 |
| 20260905221215 | 92 | 351 | 1.7 | 5.2 | 0.00 | 0.00 | 0.00 | 63 | 990.6 |
| 20260905221207 | 92 | 348 | 1.7 | 6.1 | 0.00 | 0.00 | 0.00 | 64 | 990.7 |
| 20260905221109 | 92 | 342 | 1.7 | 6.1 | 0.00 | 0.00 | 0.00 | 63 | 990.7 |
| 20260905221049 | 92 | 350 | 1.7 | 6.1 | 0.00 | 0.00 | 0.00 | 63 | 990.7 |
| 20260905220904 | 92 | 276 | 1.7 | 5.2 | 0.00 | 0.00 | 0.00 | 63 | 990.6 |
| 20260905220803 | 92 | 33 | 1.7 | 5.2 | 0.00 | 0.00 | 0.00 | 63 | 990.6 |
| 20260905220701 | 92 | 270 | 1.7 | 4.3 | 0.00 | 0.00 | 0.00 | 63 | 990.6 |
| 20260905220601 | 92 | 24 | 1.7 | 4.3 | 0.00 | 0.00 | 0.00 | 63 | 990.6 |
| 20260905220500 | 92 | 0 | 1.7 | 4.3 | 0.00 | 0.00 | 0.00 | 63 | 990.6 |
| 20260905220436 | 91 | 276 | 1.7 | 4.3 | 0.00 | 0.00 | 0.00 | 64 | 990.6 |
| 20260905220358 | 91 | 345 | 1.7 | 4.3 | 0.00 | 0.00 | 0.00 | 64 | 990.6 |
| 20260905220258 | 91 | 4 | 1.7 | 4.3 | 0.00 | 0.00 | 0.00 | 64 | 990.6 |
| 20260905220157 | 91 | 4 | 1.7 | 3.5 | 0.00 | 0.00 | 0.00 | 65 | 990.6 |
| 20260905220108 | 91 | 350 | 1.7 | 4.3 | 0.00 | 0.00 | 0.00 | 64 | 990.6 |
| 20260905215955 | 91 | 252 | 1.7 | 4.3 | 0.00 | 0.00 | 0.00 | 64 | 990.5 |
| 20260905215935 | 91 | 270 | 1.7 | 4.3 | 0.00 | 0.00 | 0.00 | 64 | 990.5 |
| 20260905215855 | 91 | 314 | 2.6 | 4.3 | 0.00 | 0.00 | 0.00 | 64 | 990.5 |
| 20260905215755 | 91 | 351 | 1.7 | 4.3 | 0.00 | 0.00 | 0.00 | 64 | 990.6 |
| 20260905215655 | 91 | 351 | 1.7 | 4.3 | 0.00 | 0.00 | 0.00 | 64 | 990.6 |
| 20260905215556 | 92 | 348 | 1.7 | 4.3 | 0.00 | 0.00 | 0.00 | 63 | 990.5 |
| 20260905215455 | 92 | 355 | 1.7 | 4.3 | 0.00 | 0.00 | 0.00 | 63 | 990.6 |
| 20260905215436 | 92 | 3 | 1.7 | 5.2 | 0.00 | 0.00 | 0.00 | 63 | 990.5 |
| 20260905215355 | 92 | 9 | 1.7 | 5.2 | 0.00 | 0.00 | 0.00 | 63 | 990.5 |
| 20260905215255 | 92 | 0 | 1.7 | 5.2 | 0.00 | 0.00 | 0.00 | 63 | 990.5 |
| 20260905215155 | 92 | 346 | 1.7 | 5.2 | 0.00 | 0.00 | 0.00 | 63 | 990.5 |
| 20260905215055 | 92 | 340 | 1.7 | 5.2 | 0.00 | 0.00 | 0.00 | 63 | 990.5 |
| 20260905214956 | 92 | 312 | 1.7 | 5.2 | 0.00 | 0.00 | 0.00 | 62 | 990.5 |
| 20260905214936 | 92 | 321 | 1.7 | 5.2 | 0.00 | 0.00 | 0.00 | 61 | 990.5 |
| 20260905214855 | 92 | 358 | 1.7 | 5.2 | 0.00 | 0.00 | 0.00 | 61 | 990.5 |
| 20260905214756 | 92 | 3 | 1.7 | 5.2 | 0.00 | 0.00 | 0.00 | 61 | 990.5 |
| 20260905214655 | 92 | 330 | 1.7 | 5.2 | 0.00 | 0.00 | 0.00 | 62 | 990.5 |
| 20260905214555 | 92 | 215 | 1.7 | 5.2 | 0.00 | 0.00 | 0.00 | 62 | 990.5 |
| 20260905214455 | 92 | 329 | 1.7 | 5.2 | 0.00 | 0.00 | 0.00 | 62 | 990.5 |
| 20260905214436 | 92 | 357 | 1.7 | 5.2 | 0.00 | 0.00 | 0.00 | 61 | 990.5 |
| 20260905214355 | 92 | 349 | 1.7 | 5.2 | 0.00 | 0.00 | 0.00 | 61 | 990.5 |
| 20260905214256 | 92 | 341 | 1.7 | 5.2 | 0.00 | 0.00 | 0.00 | 62 | 990.5 |
| 20260905214155 | 92 | 358 | 1.7 | 5.2 | 0.00 | 0.00 | 0.00 | 61 | 990.5 |
| 20260905214057 | 93 | 336 | 1.7 | 5.2 | 0.00 | 0.00 | 0.00 | 61 | 990.5 |
| 20260905213955 | 93 | 332 | 1.7 | 5.2 | 0.00 | 0.00 | 0.00 | 61 | 990.5 |
| 20260905213936 | 93 | 355 | 1.7 | 5.2 | 0.00 | 0.00 | 0.00 | 61 | 990.5 |
| 20260905213856 | 93 | 0 | 1.7 | 5.2 | 0.00 | 0.00 | 0.00 | 61 | 990.5 |
| 20260905213755 | 93 | 349 | 1.7 | 5.2 | 0.00 | 0.00 | 0.00 | 61 | 990.5 |
| 20260905213656 | 93 | 347 | 1.7 | 5.2 | 0.00 | 0.00 | 0.00 | 60 | 990.5 |
| 20260905213556 | 93 | 332 | 0.9 | 3.5 | 0.00 | 0.00 | 0.00 | 61 | 990.5 |
| 20260905213455 | 93 | 0 | 0.9 | 3.5 | 0.00 | 0.00 | 0.00 | 61 | 990.5 |
| 20260905213436 | 93 | 250 | 0.9 | 3.5 | 0.00 | 0.00 | 0.00 | 61 | 990.5 |
| 20260905213355 | 93 | 327 | 0.9 | 3.5 | 0.00 | 0.00 | 0.00 | 61 | 990.5 |
| 20260905213255 | 92 | 0 | 0.9 | 3.5 | 0.00 | 0.00 | 0.00 | 62 | 990.5 |
| 20260905213155 | 92 | 346 | 0.9 | 3.5 | 0.00 | 0.00 | 0.00 | 61 | 990.5 |
| 20260905213055 | 93 | 344 | 0.9 | 3.5 | 0.00 | 0.00 | 0.00 | 61 | 990.5 |
| 20260905212955 | 93 | 0 | 1.7 | 4.3 | 0.00 | 0.00 | 0.00 | 61 | 990.5 |
| 20260905212936 | 93 | 328 | 0.9 | 4.3 | 0.00 | 0.00 | 0.00 | 60 | 990.5 |
| 20260905212856 | 93 | 356 | 0.9 | 4.3 | 0.00 | 0.00 | 0.00 | 60 | 990.5 |
| 20260905212756 | 93 | 345 | 0.9 | 4.3 | 0.00 | 0.00 | 0.00 | 60 | 990.5 |
| 20260905212654 | 93 | 333 | 0.9 | 4.3 | 0.00 | 0.00 | 0.00 | 60 | 990.5 |
| 20260905212608 | 92 | 297 | 1.7 | 4.3 | 0.00 | 0.00 | 0.00 | 60 | 990.4 |
| 20260905212453 | 92 | 355 | 1.7 | 4.3 | 0.00 | 0.00 | 0.00 | 60 | 990.5 |
| 20260905212437 | 92 | 355 | 1.7 | 4.3 | 0.00 | 0.00 | 0.00 | 60 | 990.5 |
| 20260905212433 | 92 | 333 | 1.7 | 4.3 | 0.00 | 0.00 | 0.00 | 62 | 990.5 |
| 20260905212354 | 92 | 0 | 1.7 | 4.3 | 0.00 | 0.00 | 0.00 | 60 | 990.5 |
| 20260905212321 | 92 | 342 | 1.7 | 4.3 | 0.00 | 0.00 | 0.00 | 60 | 990.5 |
| 20260905212154 | 92 | 354 | 1.7 | 4.3 | 0.00 | 0.00 | 0.00 | 61 | 990.5 |
| 20260905212103 | 92 | 0 | 1.7 | 4.3 | 0.00 | 0.00 | 0.00 | 62 | 990.5 |
| 20260905212049 | 92 | 334 | 1.7 | 4.3 | 0.00 | 0.00 | 0.00 | 62 | 990.5 |
| 20260905211854 | 92 | 325 | 1.7 | 4.3 | 0.00 | 0.00 | 0.00 | 62 | 990.5 |
| 20260905211754 | 92 | 39 | 1.7 | 4.3 | 0.00 | 0.00 | 0.00 | 62 | 990.5 |
| 20260905211653 | 92 | 341 | 1.7 | 3.5 | 0.00 | 0.00 | 0.00 | 62 | 990.5 |
| 20260905211553 | 91 | 288 | 1.7 | 3.5 | 0.00 | 0.00 | 0.00 | 63 | 990.5 |
| 20260905211453 | 91 | 352 | 1.7 | 3.5 | 0.00 | 0.00 | 0.00 | 63 | 990.5 |
| 20260905211431 | 91 | 334 | 1.7 | 3.5 | 0.00 | 0.00 | 0.00 | 63 | 990.5 |
| 20260905211353 | 91 | 0 | 1.7 | 3.5 | 0.00 | 0.00 | 0.00 | 64 | 990.5 |
| 20260905211249 | 92 | 341 | 1.7 | 3.5 | 0.00 | 0.00 | 0.00 | 63 | 990.5 |
| 20260905211156 | 92 | 341 | 1.7 | 3.5 | 0.00 | 0.00 | 0.00 | 64 | 990.5 |
| 20260905211149 | 92 | 340 | 1.7 | 3.5 | 0.00 | 0.00 | 0.00 | 63 | 990.5 |
| 20260905211109 | 92 | 5 | 1.7 | 3.5 | 0.00 | 0.00 | 0.00 | 64 | 990.5 |
| 20260905211056 | 92 | 333 | 1.7 | 3.5 | 0.00 | 0.00 | 0.00 | 64 | 990.5 |
| 20260905210850 | 92 | 352 | 1.7 | 3.5 | 0.00 | 0.00 | 0.00 | 64 | 990.5 |
| 20260905210747 | 92 | 4 | 1.7 | 3.5 | 0.00 | 0.00 | 0.00 | 64 | 990.5 |
| 20260905210648 | 92 | 0 | 1.7 | 4.3 | 0.00 | 0.00 | 0.00 | 64 | 990.5 |
| 20260905210546 | 92 | 345 | 1.7 | 4.3 | 0.00 | 0.00 | 0.00 | 63 | 990.5 |
| 20260905210446 | 92 | 339 | 1.7 | 4.3 | 0.00 | 0.00 | 0.00 | 63 | 990.5 |
| 20260905210428 | 92 | 357 | 1.7 | 4.3 | 0.00 | 0.00 | 0.00 | 63 | 990.5 |
| 20260905210345 | 93 | 1 | 1.7 | 4.3 | 0.00 | 0.00 | 0.00 | 62 | 990.5 |
| 20260905210245 | 93 | 343 | 1.7 | 4.3 | 0.00 | 0.00 | 0.00 | 62 | 990.5 |
| 20260905210141 | 93 | 356 | 1.7 | 4.3 | 0.00 | 0.00 | 0.00 | 62 | 990.5 |
| 20260905210042 | 93 | 325 | 1.7 | 4.3 | 0.00 | 0.00 | 0.00 | 61 | 990.5 |
| 20260905205941 | 93 | 342 | 1.7 | 4.3 | 0.00 | 0.00 | 0.00 | 62 | 990.5 |
| 20260905205927 | 93 | 0 | 1.7 | 4.3 | 0.00 | 0.00 | 0.00 | 62 | 990.5 |
| 20260905205841 | 93 | 269 | 1.7 | 4.3 | 0.00 | 0.00 | 0.00 | 62 | 990.5 |
| 20260905205741 | 93 | 330 | 1.7 | 4.3 | 0.00 | 0.00 | 0.00 | 61 | 990.5 |
| 20260905205641 | 93 | 348 | 1.7 | 4.3 | 0.00 | 0.00 | 0.00 | 61 | 990.5 |
| 20260905205541 | 93 | 350 | 1.7 | 4.3 | 0.00 | 0.00 | 0.00 | 60 | 990.5 |
| 20260905205441 | 93 | 323 | 1.7 | 3.5 | 0.00 | 0.00 | 0.00 | 61 | 990.5 |
| 20260905205428 | 93 | 342 | 1.7 | 3.5 | 0.00 | 0.00 | 0.00 | 61 | 990.5 |
| 20260905205342 | 93 | 240 | 1.7 | 3.5 | 0.00 | 0.00 | 0.00 | 61 | 990.5 |
| 20260905205241 | 93 | 341 | 1.7 | 3.5 | 0.00 | 0.00 | 0.00 | 61 | 990.5 |
| 20260905205142 | 93 | 311 | 1.7 | 3.5 | 0.00 | 0.00 | 0.00 | 61 | 990.6 |
| 20260905205042 | 93 | 293 | 1.7 | 3.5 | 0.00 | 0.00 | 0.00 | 61 | 990.6 |
| 20260905204941 | 93 | 347 | 1.7 | 3.5 | 0.00 | 0.00 | 0.00 | 62 | 990.6 |
| 20260905204928 | 93 | 351 | 1.7 | 3.5 | 0.00 | 0.00 | 0.00 | 62 | 990.6 |
| 20260905204841 | 93 | 7 | 1.7 | 4.3 | 0.00 | 0.00 | 0.00 | 62 | 990.6 |
| 20260905204740 | 93 | 333 | 1.7 | 4.3 | 0.00 | 0.00 | 0.00 | 61 | 990.6 |
| 20260905204641 | 93 | 333 | 1.7 | 4.3 | 0.00 | 0.00 | 0.00 | 61 | 990.6 |
| 20260905204541 | 93 | 300 | 1.7 | 4.3 | 0.00 | 0.00 | 0.00 | 61 | 990.6 |
| 20260905204442 | 93 | 332 | 1.7 | 4.3 | 0.00 | 0.00 | 0.00 | 61 | 990.6 |
| 20260905204428 | 93 | 320 | 1.7 | 4.3 | 0.00 | 0.00 | 0.00 | 61 | 990.6 |
| 20260905204341 | 93 | 0 | 1.7 | 4.3 | 0.00 | 0.00 | 0.00 | 61 | 990.6 |
| 20260905204241 | 93 | 343 | 1.7 | 4.3 | 0.00 | 0.00 | 0.00 | 61 | 990.5 |
| 20260905204141 | 93 | 5 | 1.7 | 4.3 | 0.00 | 0.00 | 0.00 | 62 | 990.5 |
| 20260905204044 | 93 | 353 | 1.7 | 4.3 | 0.00 | 0.00 | 0.00 | 62 | 990.5 |
| 20260905203941 | 93 | 329 | 1.7 | 4.3 | 0.00 | 0.00 | 0.00 | 62 | 990.5 |
| 20260905203928 | 93 | 325 | 1.7 | 4.3 | 0.00 | 0.00 | 0.00 | 62 | 990.5 |
| 20260905203842 | 93 | 327 | 1.7 | 4.3 | 0.00 | 0.00 | 0.00 | 62 | 990.5 |
| 20260905203742 | 93 | 346 | 1.7 | 4.3 | 0.00 | 0.00 | 0.00 | 62 | 990.6 |
| 20260905203642 | 93 | 340 | 1.7 | 3.5 | 0.00 | 0.00 | 0.00 | 62 | 990.6 |
| 20260905203541 | 93 | 305 | 1.7 | 3.5 | 0.00 | 0.00 | 0.00 | 62 | 990.6 |
| 20260905203442 | 93 | 243 | 1.7 | 3.5 | 0.00 | 0.00 | 0.00 | 62 | 990.6 |
| 20260905203428 | 93 | 239 | 1.7 | 3.5 | 0.00 | 0.00 | 0.00 | 62 | 990.6 |
| 20260905203342 | 93 | 313 | 1.7 | 4.3 | 0.00 | 0.00 | 0.00 | 62 | 990.6 |
| 20260905203241 | 93 | 5 | 1.7 | 4.3 | 0.00 | 0.00 | 0.00 | 61 | 990.6 |
| 20260905203142 | 93 | 346 | 1.7 | 4.3 | 0.00 | 0.00 | 0.00 | 61 | 990.6 |
| 20260905203041 | 93 | 338 | 1.7 | 4.3 | 0.00 | 0.00 | 0.00 | 61 | 990.7 |
| 20260905202942 | 93 | 333 | 1.7 | 4.3 | 0.00 | 0.00 | 0.00 | 61 | 990.7 |
| 20260905202928 | 93 | 348 | 1.7 | 4.3 | 0.00 | 0.00 | 0.00 | 61 | 990.7 |
| 20260905202841 | 93 | 258 | 1.7 | 4.3 | 0.00 | 0.00 | 0.00 | 61 | 990.7 |
| 20260905202741 | 93 | 333 | 1.7 | 4.3 | 0.00 | 0.00 | 0.00 | 61 | 990.7 |
| 20260905202641 | 93 | 326 | 1.7 | 4.3 | 0.00 | 0.00 | 0.00 | 62 | 990.8 |
| 20260905202542 | 93 | 335 | 1.7 | 4.3 | 0.00 | 0.00 | 0.00 | 61 | 990.8 |
| 20260905202442 | 93 | 347 | 1.7 | 4.3 | 0.00 | 0.00 | 0.00 | 61 | 990.8 |
| 20260905202428 | 93 | 7 | 1.7 | 4.3 | 0.00 | 0.00 | 0.00 | 61 | 990.8 |
| 20260905202342 | 93 | 273 | 1.7 | 4.3 | 0.00 | 0.00 | 0.00 | 60 | 990.7 |
| 20260905202254 | 93 | 353 | 1.7 | 4.3 | 0.00 | 0.00 | 0.00 | 61 | 990.7 |
| 20260905202139 | 93 | 340 | 1.7 | 4.3 | 0.00 | 0.00 | 0.00 | 62 | 990.8 |
| 20260905202037 | 93 | 326 | 1.7 | 4.3 | 0.00 | 0.00 | 0.00 | 62 | 990.8 |
| 20260905201932 | 93 | 358 | 1.7 | 4.3 | 0.00 | 0.00 | 0.00 | 62 | 990.8 |
| 20260905201920 | 93 | 316 | 0.9 | 3.5 | 0.00 | 0.00 | 0.00 | 62 | 990.8 |
| 20260905201833 | 93 | 309 | 1.7 | 4.3 | 0.00 | 0.00 | 0.00 | 61 | 990.8 |
| 20260905201812 | 93 | 343 | 1.7 | 4.3 | 0.00 | 0.00 | 0.00 | 61 | 990.8 |
| 20260905201633 | 93 | 6 | 0.9 | 3.5 | 0.00 | 0.00 | 0.00 | 61 | 990.8 |
| 20260905201548 | 93 | 358 | 0.9 | 3.5 | 0.00 | 0.00 | 0.00 | 62 | 990.8 |
| 20260905201430 | 93 | 282 | 0.9 | 3.5 | 0.00 | 0.00 | 0.00 | 62 | 990.8 |
| 20260905201329 | 93 | 0 | 0.9 | 3.5 | 0.00 | 0.00 | 0.00 | 61 | 990.9 |
| 20260905201228 | 93 | 13 | 0.9 | 3.5 | 0.00 | 0.00 | 0.00 | 61 | 990.9 |
| 20260905201128 | 93 | 326 | 0.9 | 2.6 | 0.00 | 0.00 | 0.00 | 62 | 990.9 |
| 20260905201031 | 93 | 351 | 0.9 | 2.6 | 0.00 | 0.00 | 0.00 | 63 | 990.9 |
| 20260905200931 | 93 | 352 | 0.9 | 2.6 | 0.00 | 0.00 | 0.00 | 62 | 990.9 |
| 20260905200927 | 93 | 0 | 0.9 | 2.6 | 0.00 | 0.00 | 0.00 | 62 | 990.9 |
| 20260905200824 | 92 | 269 | 0.9 | 2.6 | 0.00 | 0.00 | 0.00 | 62 | 990.9 |
| 20260905200726 | 92 | 0 | 0.9 | 2.6 | 0.00 | 0.00 | 0.00 | 63 | 990.9 |
| 20260905200624 | 92 | 0 | 0.9 | 4.3 | 0.00 | 0.00 | 0.00 | 63 | 990.9 |
| 20260905200534 | 92 | 344 | 0.9 | 4.3 | 0.00 | 0.00 | 0.00 | 63 | 990.9 |
| 20260905200426 | 92 | 346 | 0.9 | 4.3 | 0.00 | 0.00 | 0.00 | 63 | 990.9 |
| 20260905200418 | 92 | 352 | 0.9 | 4.3 | 0.00 | 0.00 | 0.00 | 63 | 990.9 |
| 20260905200315 | 92 | 256 | 0.9 | 4.3 | 0.00 | 0.00 | 0.00 | 63 | 990.9 |
| 20260905200215 | 92 | 356 | 0.9 | 4.3 | 0.00 | 0.00 | 0.00 | 64 | 991.0 |
| 20260905200117 | 92 | 353 | 0.9 | 4.3 | 0.00 | 0.00 | 0.00 | 63 | 991.0 |
| 20260905200013 | 92 | 0 | 1.7 | 4.3 | 0.00 | 0.00 | 0.00 | 63 | 990.9 |
| 20260905195925 | 92 | 0 | 1.7 | 4.3 | 0.00 | 0.00 | 0.00 | 63 | 990.9 |
| 20260905195911 | 92 | 317 | 1.7 | 4.3 | 0.00 | 0.00 | 0.00 | 63 | 990.9 |
| 20260905195811 | 92 | 346 | 1.7 | 4.3 | 0.00 | 0.00 | 0.00 | 63 | 990.9 |
| 20260905195711 | 92 | 7 | 1.7 | 4.3 | 0.00 | 0.00 | 0.00 | 63 | 990.9 |
| 20260905195611 | 93 | 353 | 1.7 | 4.3 | 0.00 | 0.00 | 0.00 | 64 | 991.0 |
| 20260905195510 | 93 | 0 | 1.7 | 4.3 | 0.00 | 0.00 | 0.00 | 63 | 991.0 |
| 20260905195423 | 93 | 344 | 1.7 | 4.3 | 0.00 | 0.00 | 0.00 | 62 | 991.0 |
| 20260905195411 | 93 | 340 | 1.7 | 4.3 | 0.00 | 0.00 | 0.00 | 62 | 991.0 |
| 20260905195211 | 93 | 316 | 1.7 | 4.3 | 0.00 | 0.00 | 0.00 | 62 | 991.0 |
| 20260905195111 | 93 | 331 | 1.7 | 4.3 | 0.00 | 0.00 | 0.00 | 62 | 991.0 |
| 20260905195011 | 93 | 201 | 1.7 | 4.3 | 0.00 | 0.00 | 0.00 | 61 | 990.9 |
| 20260905194912 | 94 | 340 | 1.7 | 4.3 | 0.00 | 0.00 | 0.00 | 60 | 990.9 |
| 20260905194811 | 94 | 343 | 0.9 | 3.5 | 0.00 | 0.00 | 0.00 | 60 | 990.9 |
| 20260905194712 | 93 | 349 | 0.9 | 2.6 | 0.00 | 0.00 | 0.00 | 61 | 990.9 |
| 20260905194610 | 93 | 340 | 0.9 | 2.6 | 0.00 | 0.00 | 0.00 | 61 | 990.9 |
| 20260905194511 | 93 | 0 | 0.9 | 2.6 | 0.00 | 0.00 | 0.00 | 61 | 990.9 |
| 20260905194423 | 93 | 345 | 0.9 | 2.6 | 0.00 | 0.00 | 0.00 | 62 | 991.0 |
| 20260905194411 | 93 | 355 | 0.9 | 2.6 | 0.00 | 0.00 | 0.00 | 62 | 991.0 |
| 20260905194312 | 94 | 0 | 0.9 | 2.6 | 0.00 | 0.00 | 0.00 | 61 | 990.9 |
| 20260905194211 | 94 | 347 | 0.9 | 2.6 | 0.00 | 0.00 | 0.00 | 61 | 990.9 |
| 20260905194111 | 94 | 7 | 0.9 | 2.6 | 0.00 | 0.00 | 0.00 | 61 | 990.9 |
| 20260905194011 | 94 | 0 | 0.9 | 2.6 | 0.00 | 0.00 | 0.00 | 61 | 990.9 |
| 20260905193923 | 94 | 329 | 0.9 | 2.6 | 0.00 | 0.00 | 0.00 | 60 | 990.9 |
| 20260905193911 | 94 | 0 | 0.9 | 2.6 | 0.00 | 0.00 | 0.00 | 60 | 990.9 |
| 20260905193824 | 94 | 329 | 1.7 | 2.6 | 0.00 | 0.00 | 0.00 | 60 | 990.9 |
| 20260905193712 | 94 | 19 | 0.9 | 2.6 | 0.00 | 0.00 | 0.00 | 60 | 990.9 |
| 20260905193611 | 94 | 356 | 1.7 | 3.5 | 0.00 | 0.00 | 0.00 | 60 | 990.9 |
| 20260905193512 | 94 | 357 | 1.7 | 3.5 | 0.00 | 0.00 | 0.00 | 60 | 990.9 |
| 20260905193424 | 93 | 326 | 1.7 | 3.5 | 0.00 | 0.00 | 0.00 | 60 | 990.9 |
| 20260905193411 | 93 | 321 | 1.7 | 3.5 | 0.00 | 0.00 | 0.00 | 60 | 990.9 |
| 20260905193312 | 93 | 285 | 1.7 | 3.5 | 0.00 | 0.00 | 0.00 | 61 | 990.9 |
| 20260905193212 | 93 | 337 | 1.7 | 4.3 | 0.00 | 0.00 | 0.00 | 61 | 990.9 |
| 20260905193146 | 93 | 326 | 1.7 | 4.3 | 0.00 | 0.00 | 0.00 | 62 | 990.9 |
| 20260905193111 | 93 | 353 | 1.7 | 4.3 | 0.00 | 0.00 | 0.00 | 61 | 990.9 |
| 20260905193046 | 93 | 324 | 1.7 | 4.3 | 0.00 | 0.00 | 0.00 | 62 | 991.0 |
| 20260905193041 | 93 | 354 | 1.7 | 4.3 | 0.00 | 0.00 | 0.00 | 61 | 990.9 |
| 20260905192911 | 93 | 343 | 1.7 | 4.3 | 0.00 | 0.00 | 0.00 | 62 | 990.9 |
| 20260905192813 | 93 | 6 | 1.7 | 4.3 | 0.00 | 0.00 | 0.00 | 62 | 991.0 |
| 20260905192759 | 93 | 329 | 1.7 | 4.3 | 0.00 | 0.00 | 0.00 | 62 | 991.0 |
| 20260905192610 | 93 | 346 | 1.7 | 4.3 | 0.00 | 0.00 | 0.00 | 62 | 991.0 |
| 20260905192539 | 93 | 271 | 1.7 | 4.3 | 0.00 | 0.00 | 0.00 | 62 | 991.0 |
| 20260905192408 | 93 | 319 | 1.7 | 4.3 | 0.00 | 0.00 | 0.00 | 62 | 991.0 |
| 20260905192306 | 93 | 345 | 1.7 | 4.3 | 0.00 | 0.00 | 0.00 | 61 | 991.0 |
| 20260905192201 | 93 | 325 | 1.7 | 4.3 | 0.00 | 0.00 | 0.00 | 62 | 991.0 |
| 20260905192101 | 93 | 328 | 1.7 | 4.3 | 0.00 | 0.00 | 0.00 | 62 | 991.1 |
| 20260905192000 | 93 | 9 | 1.7 | 4.3 | 0.00 | 0.00 | 0.00 | 62 | 991.1 |
| 20260905191923 | 93 | 351 | 1.7 | 3.5 | 0.00 | 0.00 | 0.00 | 63 | 991.1 |
| 20260905191857 | 93 | 329 | 1.7 | 3.5 | 0.00 | 0.00 | 0.00 | 63 | 991.1 |
| 20260905191757 | 93 | 287 | 0.9 | 3.5 | 0.00 | 0.00 | 0.00 | 63 | 991.1 |
| 20260905191658 | 93 | 336 | 0.9 | 3.5 | 0.00 | 0.00 | 0.00 | 62 | 991.1 |
| 20260905191557 | 93 | 319 | 0.9 | 3.5 | 0.00 | 0.00 | 0.00 | 63 | 991.1 |
| 20260905191457 | 93 | 325 | 0.9 | 2.6 | 0.00 | 0.00 | 0.00 | 62 | 991.1 |
| 20260905191420 | 93 | 311 | 0.9 | 2.6 | 0.00 | 0.00 | 0.00 | 62 | 991.1 |
| 20260905191357 | 93 | 336 | 0.9 | 2.6 | 0.00 | 0.00 | 0.00 | 62 | 991.1 |
| 20260905191257 | 93 | 332 | 0.9 | 2.6 | 0.00 | 0.00 | 0.00 | 63 | 991.1 |
| 20260905191157 | 93 | 229 | 0.9 | 2.6 | 0.00 | 0.00 | 0.00 | 62 | 991.1 |
| 20260905191058 | 93 | 339 | 0.9 | 2.6 | 0.00 | 0.00 | 0.00 | 62 | 991.1 |
| 20260905190957 | 93 | 0 | 0.9 | 2.6 | 0.00 | 0.00 | 0.00 | 61 | 991.1 |
| 20260905190921 | 93 | 0 | 0.9 | 2.6 | 0.00 | 0.00 | 0.00 | 61 | 991.1 |
| 20260905190857 | 93 | 1 | 0.9 | 2.6 | 0.00 | 0.00 | 0.00 | 62 | 991.1 |
| 20260905190756 | 93 | 0 | 0.9 | 2.6 | 0.00 | 0.00 | 0.00 | 62 | 991.1 |
| 20260905190656 | 93 | 0 | 0.9 | 3.5 | 0.00 | 0.00 | 0.00 | 62 | 991.2 |
| 20260905190555 | 93 | 336 | 0.9 | 3.5 | 0.00 | 0.00 | 0.00 | 61 | 991.2 |
| 20260905190455 | 93 | 308 | 0.9 | 3.5 | 0.00 | 0.00 | 0.00 | 61 | 991.2 |
| 20260905190417 | 93 | 2 | 0.9 | 3.5 | 0.00 | 0.00 | 0.00 | 61 | 991.2 |
| 20260905190355 | 93 | 343 | 0.9 | 3.5 | 0.00 | 0.00 | 0.00 | 61 | 991.2 |
| 20260905190255 | 93 | 343 | 0.9 | 3.5 | 0.00 | 0.00 | 0.00 | 61 | 991.2 |
| 20260905190154 | 93 | 0 | 0.9 | 3.5 | 0.00 | 0.00 | 0.00 | 61 | 991.2 |
| 20260905190052 | 93 | 343 | 1.7 | 3.5 | 0.00 | 0.00 | 0.00 | 61 | 991.2 |
| 20260905185949 | 93 | 344 | 1.7 | 3.5 | 0.00 | 0.00 | 0.00 | 61 | 991.2 |
| 20260905185918 | 93 | 34 | 1.7 | 3.5 | 0.00 | 0.00 | 0.00 | 61 | 991.2 |
| 20260905185849 | 93 | 13 | 1.7 | 5.2 | 0.00 | 0.00 | 0.00 | 61 | 991.2 |
| 20260905185749 | 93 | 17 | 1.7 | 5.2 | 0.00 | 0.00 | 0.00 | 61 | 991.2 |
| 20260905185708 | 92 | 221 | 1.7 | 5.2 | 0.00 | 0.00 | 0.00 | 63 | 991.2 |
| 20260905185700 | 92 | 223 | 1.7 | 5.2 | 0.00 | 0.00 | 0.00 | 62 | 991.2 |
| 20260905185548 | 92 | 242 | 1.7 | 5.2 | 0.00 | 0.00 | 0.00 | 62 | 991.2 |
| 20260905185533 | 92 | 266 | 1.7 | 5.2 | 0.00 | 0.00 | 0.00 | 63 | 991.2 |
| 20260905185347 | 92 | 328 | 1.7 | 5.2 | 0.00 | 0.00 | 0.00 | 62 | 991.2 |
| 20260905185248 | 92 | 324 | 1.7 | 5.2 | 0.00 | 0.00 | 0.00 | 63 | 991.2 |
| 20260905185148 | 92 | 207 | 1.7 | 5.2 | 0.00 | 0.00 | 0.00 | 62 | 991.2 |
| 20260905185047 | 92 | 348 | 1.7 | 5.2 | 0.00 | 0.00 | 0.00 | 62 | 991.2 |
| 20260905184948 | 92 | 341 | 1.7 | 5.2 | 0.00 | 0.00 | 0.00 | 62 | 991.2 |
| 20260905184918 | 92 | 1 | 1.7 | 5.2 | 0.00 | 0.00 | 0.00 | 62 | 991.2 |
| 20260905184847 | 92 | 340 | 1.7 | 5.2 | 0.00 | 0.00 | 0.00 | 62 | 991.2 |
| 20260905184748 | 92 | 321 | 0.9 | 3.5 | 0.00 | 0.00 | 0.00 | 62 | 991.2 |
| 20260905184648 | 92 | 0 | 1.7 | 3.5 | 0.00 | 0.00 | 0.00 | 62 | 991.2 |
| 20260905184547 | 92 | 279 | 1.7 | 3.5 | 0.00 | 0.00 | 0.00 | 63 | 991.3 |
| 20260905184418 | 92 | 0 | 1.7 | 3.5 | 0.00 | 0.00 | 0.00 | 63 | 991.3 |
| 20260905184347 | 92 | 202 | 1.7 | 3.5 | 0.00 | 0.00 | 0.00 | 63 | 991.3 |
| 20260905184247 | 92 | 339 | 1.7 | 3.5 | 0.00 | 0.00 | 0.00 | 62 | 991.3 |
| 20260905184148 | 92 | 354 | 1.7 | 3.5 | 0.00 | 0.00 | 0.00 | 62 | 991.3 |
| 20260905184049 | 93 | 3 | 0.9 | 3.5 | 0.00 | 0.00 | 0.00 | 62 | 991.3 |
| 20260905183948 | 93 | 336 | 0.9 | 3.5 | 0.00 | 0.00 | 0.00 | 62 | 991.4 |
| 20260905183918 | 93 | 346 | 0.9 | 3.5 | 0.00 | 0.00 | 0.00 | 62 | 991.4 |
| 20260905183847 | 93 | 18 | 0.9 | 3.5 | 0.00 | 0.00 | 0.00 | 62 | 991.4 |
| 20260905183748 | 93 | 342 | 0.9 | 2.6 | 0.00 | 0.00 | 0.00 | 61 | 991.3 |
| 20260905183647 | 93 | 0 | 0.9 | 2.6 | 0.00 | 0.00 | 0.00 | 61 | 991.3 |
| 20260905183547 | 93 | 348 | 0.9 | 2.6 | 0.00 | 0.00 | 0.00 | 61 | 991.3 |
| 20260905183448 | 93 | 274 | 0.9 | 3.5 | 0.00 | 0.00 | 0.00 | 61 | 991.3 |
| 20260905183418 | 93 | 358 | 0.9 | 3.5 | 0.00 | 0.00 | 0.00 | 61 | 991.3 |
| 20260905183348 | 93 | 351 | 0.9 | 3.5 | 0.00 | 0.00 | 0.00 | 62 | 991.3 |
| 20260905183248 | 93 | 352 | 0.9 | 3.5 | 0.00 | 0.00 | 0.00 | 61 | 991.3 |
| 20260905183149 | 93 | 237 | 0.9 | 3.5 | 0.00 | 0.00 | 0.00 | 61 | 991.3 |
| 20260905183136 | 94 | 340 | 1.7 | 3.5 | 0.00 | 0.00 | 0.00 | 63 | 991.3 |
| 20260905183048 | 94 | 347 | 0.9 | 3.5 | 0.00 | 0.00 | 0.00 | 63 | 991.3 |
| 20260905183035 | 94 | 243 | 0.9 | 3.5 | 0.00 | 0.00 | 0.00 | 63 | 991.3 |
| 20260905182847 | 94 | 322 | 1.7 | 3.5 | 0.00 | 0.00 | 0.00 | 62 | 991.4 |
| 20260905182748 | 94 | 341 | 0.9 | 3.5 | 0.00 | 0.00 | 0.00 | 61 | 991.4 |
| 20260905182647 | 94 | 335 | 0.9 | 3.5 | 0.00 | 0.00 | 0.00 | 61 | 991.4 |
| 20260905182549 | 94 | 334 | 0.9 | 3.5 | 0.00 | 0.00 | 0.00 | 60 | 991.4 |
| 20260905182448 | 95 | 354 | 0.9 | 3.5 | 0.00 | 0.00 | 0.00 | 61 | 991.4 |
| 20260905182418 | 95 | 12 | 0.9 | 2.6 | 0.00 | 0.00 | 0.00 | 61 | 991.4 |
| 20260905182348 | 95 | 3 | 0.9 | 2.6 | 0.00 | 0.00 | 0.00 | 61 | 991.4 |
| 20260905182247 | 95 | 4 | 0.9 | 2.6 | 0.00 | 0.00 | 0.00 | 60 | 991.3 |
| 20260905182148 | 95 | 351 | 0.9 | 2.6 | 0.00 | 0.00 | 0.00 | 60 | 991.3 |
| 20260905182047 | 95 | 9 | 0.9 | 2.6 | 0.00 | 0.00 | 0.00 | 60 | 991.3 |
| 20260905181918 | 95 | 3 | 0.9 | 2.6 | 0.00 | 0.00 | 0.00 | 59 | 991.3 |
| 20260905181847 | 95 | 0 | 0.9 | 2.6 | 0.00 | 0.00 | 0.00 | 59 | 991.3 |
| 20260905181747 | 95 | 0 | 0.9 | 2.6 | 0.00 | 0.00 | 0.00 | 59 | 991.4 |
| 20260905181648 | 96 | 0 | 0.9 | 2.6 | 0.00 | 0.00 | 0.00 | 59 | 991.4 |
| 20260905181547 | 96 | 353 | 0.9 | 2.6 | 0.00 | 0.00 | 0.00 | 59 | 991.4 |
| 20260905181444 | 96 | 344 | 0.9 | 2.6 | 0.00 | 0.00 | 0.00 | 59 | 991.4 |
| 20260905181418 | 96 | 0 | 0.9 | 2.6 | 0.00 | 0.00 | 0.00 | 59 | 991.4 |
| 20260905181345 | 96 | 0 | 0.9 | 2.6 | 0.00 | 0.00 | 0.00 | 58 | 991.4 |
| 20260905181241 | 96 | 4 | 0.9 | 2.6 | 0.00 | 0.00 | 0.00 | 57 | 991.4 |
| 20260905181140 | 96 | 340 | 0.9 | 1.7 | 0.00 | 0.00 | 0.00 | 57 | 991.4 |
| 20260905181041 | 96 | 334 | 0.0 | 1.7 | 0.00 | 0.00 | 0.00 | 58 | 991.4 |
| 20260905180941 | 95 | 269 | 0.0 | 1.7 | 0.00 | 0.00 | 0.00 | 57 | 991.4 |
| 20260905180919 | 95 | 258 | 0.0 | 1.7 | 0.00 | 0.00 | 0.00 | 57 | 991.4 |
| 20260905180915 | 94 | 238 | 0.9 | 2.6 | 0.00 | 0.00 | 0.00 | 59 | 991.4 |
| 20260905180840 | 95 | 47 | 0.9 | 2.6 | 0.00 | 0.00 | 0.00 | 58 | 991.4 |
| 20260905180815 | 95 | 0 | 0.9 | 2.6 | 0.00 | 0.00 | 0.00 | 58 | 991.4 |
| 20260905180651 | 95 | 340 | 0.9 | 2.6 | 0.00 | 0.00 | 0.00 | 58 | 991.4 |
| 20260905180546 | 94 | 273 | 0.9 | 2.6 | 0.00 | 0.00 | 0.00 | 58 | 991.4 |
| 20260905180534 | 94 | 0 | 0.9 | 2.6 | 0.00 | 0.00 | 0.00 | 59 | 991.4 |
| 20260905180339 | 94 | 0 | 0.9 | 2.6 | 0.00 | 0.00 | 0.00 | 59 | 991.4 |
| 20260905180239 | 94 | 0 | 0.9 | 2.6 | 0.00 | 0.00 | 0.00 | 59 | 991.4 |
| 20260905180139 | 94 | 185 | 0.9 | 2.6 | 0.00 | 0.00 | 0.00 | 59 | 991.5 |
| 20260905180038 | 94 | 169 | 0.9 | 2.6 | 0.00 | 0.00 | 0.00 | 60 | 991.5 |
| 20260905175934 | 94 | 0 | 0.9 | 2.6 | 0.00 | 0.00 | 0.00 | 59 | 991.5 |
| 20260905175918 | 94 | 223 | 0.9 | 2.6 | 0.00 | 0.00 | 0.00 | 59 | 991.5 |
| 20260905175832 | 93 | 216 | 0.9 | 2.6 | 0.00 | 0.00 | 0.00 | 60 | 991.5 |
| 20260905175730 | 93 | 0 | 0.9 | 2.6 | 0.00 | 0.00 | 0.00 | 60 | 991.5 |
| 20260905175631 | 93 | 0 | 0.9 | 3.5 | 0.00 | 0.00 | 0.00 | 61 | 991.5 |
| 20260905175530 | 93 | 0 | 0.9 | 3.5 | 0.00 | 0.00 | 0.00 | 62 | 991.6 |
| 20260905175434 | 93 | 0 | 0.9 | 4.3 | 0.00 | 0.00 | 0.00 | 61 | 991.6 |
| 20260905175418 | 93 | 333 | 0.9 | 4.3 | 0.00 | 0.00 | 0.00 | 61 | 991.6 |
| 20260905175328 | 93 | 340 | 1.7 | 4.3 | 0.00 | 0.00 | 0.00 | 61 | 991.6 |
| 20260905175227 | 93 | 342 | 0.9 | 4.3 | 0.00 | 0.00 | 0.00 | 61 | 991.6 |
| 20260905175128 | 93 | 0 | 0.9 | 4.3 | 0.00 | 0.00 | 0.00 | 62 | 991.7 |
| 20260905175028 | 93 | 269 | 0.9 | 4.3 | 0.00 | 0.00 | 0.00 | 61 | 991.7 |
| 20260905174915 | 93 | 352 | 0.9 | 4.3 | 0.00 | 0.00 | 0.00 | 62 | 991.6 |
| 20260905174828 | 93 | 240 | 1.7 | 4.3 | 0.00 | 0.00 | 0.00 | 62 | 991.6 |
| 20260905174727 | 93 | 357 | 0.9 | 4.3 | 0.00 | 0.00 | 0.00 | 63 | 991.6 |
| 20260905174627 | 94 | 0 | 0.9 | 4.3 | 0.00 | 0.00 | 0.00 | 62 | 991.6 |
| 20260905174528 | 94 | 352 | 0.9 | 4.3 | 0.00 | 0.00 | 0.00 | 62 | 991.7 |
| 20260905174432 | 94 | 342 | 0.9 | 3.5 | 0.00 | 0.00 | 0.00 | 61 | 991.6 |
| 20260905174416 | 94 | 332 | 0.9 | 3.5 | 0.00 | 0.00 | 0.00 | 61 | 991.6 |
| 20260905174327 | 94 | 0 | 0.9 | 3.5 | 0.00 | 0.00 | 0.00 | 60 | 991.6 |
| 20260905174228 | 94 | 328 | 0.9 | 3.5 | 0.00 | 0.00 | 0.00 | 61 | 991.7 |
| 20260905174127 | 94 | 320 | 0.9 | 3.5 | 0.00 | 0.00 | 0.00 | 60 | 991.7 |
| 20260905174032 | 94 | 2 | 0.9 | 3.5 | 0.00 | 0.00 | 0.00 | 60 | 991.7 |
| 20260905173931 | 94 | 2 | 0.9 | 3.5 | 0.00 | 0.00 | 0.00 | 60 | 991.7 |
| 20260905173916 | 94 | 345 | 0.9 | 3.5 | 0.00 | 0.00 | 0.00 | 60 | 991.7 |
| 20260905173828 | 94 | 346 | 0.9 | 3.5 | 0.00 | 0.00 | 0.00 | 61 | 991.7 |
| 20260905173728 | 94 | 0 | 0.9 | 3.5 | 0.00 | 0.00 | 0.00 | 60 | 991.7 |
| 20260905173634 | 94 | 0 | 0.9 | 3.5 | 0.00 | 0.00 | 0.00 | 58 | 991.7 |
| 20260905173627 | 94 | 0 | 0.9 | 3.5 | 0.00 | 0.00 | 0.00 | 59 | 991.6 |
| 20260905173542 | 94 | 348 | 0.9 | 3.5 | 0.00 | 0.00 | 0.00 | 59 | 991.7 |
| 20260905173531 | 94 | 0 | 0.9 | 3.5 | 0.00 | 0.00 | 0.00 | 58 | 991.7 |
| 20260905173329 | 94 | 328 | 0.9 | 3.5 | 0.00 | 0.00 | 0.00 | 58 | 991.7 |
| 20260905173228 | 94 | 351 | 0.9 | 5.2 | 0.00 | 0.00 | 0.00 | 58 | 991.7 |
| 20260905173046 | 94 | 0 | 0.9 | 5.2 | 0.00 | 0.00 | 0.00 | 59 | 991.7 |
| 20260905172916 | 93 | 0 | 0.9 | 5.2 | 0.00 | 0.00 | 0.00 | 60 | 991.7 |
| 20260905172828 | 93 | 339 | 0.9 | 5.2 | 0.00 | 0.00 | 0.00 | 61 | 991.7 |
| 20260905172728 | 93 | 0 | 0.9 | 5.2 | 0.00 | 0.00 | 0.00 | 60 | 991.7 |
| 20260905172627 | 93 | 330 | 1.7 | 5.2 | 0.00 | 0.00 | 0.00 | 62 | 991.7 |
| 20260905172527 | 93 | 254 | 1.7 | 5.2 | 0.00 | 0.00 | 0.00 | 62 | 991.7 |
| 20260905172430 | 93 | 0 | 1.7 | 5.2 | 0.00 | 0.00 | 0.00 | 62 | 991.7 |
| 20260905172415 | 93 | 327 | 1.7 | 5.2 | 0.00 | 0.00 | 0.00 | 62 | 991.7 |
| 20260905172340 | 93 | 345 | 1.7 | 5.2 | 0.00 | 0.00 | 0.00 | 61 | 991.7 |
| 20260905172228 | 93 | 344 | 1.7 | 5.2 | 0.00 | 0.00 | 0.00 | 61 | 991.8 |
| 20260905172127 | 93 | 311 | 0.9 | 3.5 | 0.00 | 0.00 | 0.00 | 61 | 991.7 |
| 20260905172043 | 94 | 338 | 0.9 | 3.5 | 0.00 | 0.00 | 0.00 | 61 | 991.8 |
| 20260905171929 | 94 | 325 | 0.9 | 3.5 | 0.00 | 0.00 | 0.00 | 60 | 991.8 |
| 20260905171916 | 94 | 323 | 0.9 | 3.5 | 0.00 | 0.00 | 0.00 | 60 | 991.8 |
| 20260905171828 | 94 | 352 | 0.9 | 3.5 | 0.00 | 0.00 | 0.00 | 60 | 991.8 |
| 20260905171740 | 94 | 354 | 0.9 | 3.5 | 0.00 | 0.00 | 0.00 | 60 | 991.8 |
| 20260905171624 | 93 | 222 | 0.9 | 2.6 | 0.00 | 0.00 | 0.00 | 61 | 991.8 |
| 20260905171524 | 93 | 4 | 0.9 | 2.6 | 0.00 | 0.00 | 0.00 | 61 | 991.8 |
| 20260905171421 | 93 | 333 | 0.9 | 2.6 | 0.00 | 0.00 | 0.00 | 61 | 991.8 |
| 20260905171321 | 93 | 323 | 0.9 | 2.6 | 0.00 | 0.00 | 0.00 | 60 | 991.8 |
| 20260905171221 | 93 | 327 | 0.9 | 3.5 | 0.00 | 0.00 | 0.00 | 60 | 991.8 |
| 20260905171124 | 93 | 0 | 0.9 | 3.5 | 0.00 | 0.00 | 0.00 | 60 | 991.8 |
| 20260905171018 | 93 | 189 | 0.9 | 4.3 | 0.00 | 0.00 | 0.00 | 61 | 991.8 |
| 20260905170921 | 93 | 190 | 0.9 | 4.3 | 0.00 | 0.00 | 0.00 | 62 | 991.8 |
| 20260905170917 | 93 | 190 | 1.7 | 4.3 | 0.00 | 0.00 | 0.00 | 62 | 991.8 |
| 20260905170814 | 92 | 5 | 1.7 | 4.3 | 0.00 | 0.00 | 0.00 | 62 | 991.8 |
| 20260905170712 | 92 | 321 | 1.7 | 4.3 | 0.00 | 0.00 | 0.00 | 62 | 991.9 |
| 20260905170636 | 93 | 0 | 1.7 | 4.3 | 0.00 | 0.00 | 0.00 | 63 | 992.0 |
| 20260905170611 | 92 | 0 | 1.7 | 4.3 | 0.00 | 0.00 | 0.00 | 62 | 991.9 |
| 20260905170533 | 92 | 0 | 1.7 | 4.3 | 0.00 | 0.00 | 0.00 | 63 | 991.9 |
| 20260905170411 | 93 | 0 | 1.7 | 4.3 | 0.00 | 0.00 | 0.00 | 63 | 992.0 |
| 20260905170311 | 93 | 0 | 1.7 | 4.3 | 0.00 | 0.00 | 0.00 | 62 | 992.0 |
| 20260905170210 | 93 | 356 | 1.7 | 4.3 | 0.00 | 0.00 | 0.00 | 62 | 992.0 |
| 20260905170136 | 94 | 344 | 0.9 | 4.3 | 0.00 | 0.00 | 0.00 | 60 | 991.9 |
| 20260905170110 | 93 | 0 | 0.9 | 4.3 | 0.00 | 0.00 | 0.00 | 62 | 992.0 |
| 20260905170038 | 94 | 356 | 0.9 | 4.3 | 0.00 | 0.00 | 0.00 | 60 | 992.0 |
| 20260905165909 | 94 | 2 | 0.9 | 4.3 | 0.00 | 0.00 | 0.00 | 60 | 991.9 |
| 20260905165809 | 93 | 346 | 0.9 | 3.5 | 0.00 | 0.00 | 0.00 | 60 | 991.9 |
| 20260905165710 | 93 | 232 | 0.9 | 3.5 | 0.00 | 0.00 | 0.00 | 60 | 991.9 |
| 20260905165632 | 93 | 0 | 0.9 | 3.5 | 0.00 | 0.00 | 0.00 | 61 | 992.0 |
| 20260905165609 | 93 | 324 | 0.9 | 3.5 | 0.00 | 0.00 | 0.00 | 61 | 991.9 |
| 20260905165531 | 93 | 253 | 0.9 | 3.5 | 0.00 | 0.00 | 0.00 | 61 | 991.9 |
| 20260905165409 | 93 | 0 | 0.9 | 3.5 | 0.00 | 0.00 | 0.00 | 61 | 992.0 |
| 20260905165309 | 93 | 0 | 0.9 | 3.5 | 0.00 | 0.00 | 0.00 | 61 | 992.0 |
| 20260905165207 | 93 | 248 | 0.9 | 3.5 | 0.00 | 0.00 | 0.00 | 62 | 992.0 |
| 20260905165108 | 93 | 0 | 0.9 | 3.5 | 0.00 | 0.00 | 0.00 | 61 | 992.0 |
| 20260905165004 | 93 | 9 | 0.9 | 3.5 | 0.00 | 0.00 | 0.00 | 61 | 992.0 |
| 20260905164911 | 93 | 351 | 0.9 | 2.6 | 0.00 | 0.00 | 0.00 | 61 | 992.0 |
| 20260905164904 | 93 | 358 | 0.9 | 2.6 | 0.00 | 0.00 | 0.00 | 61 | 992.0 |
| 20260905164803 | 93 | 2 | 0.9 | 2.6 | 0.00 | 0.00 | 0.00 | 61 | 992.0 |
| 20260905164703 | 93 | 324 | 0.9 | 2.6 | 0.00 | 0.00 | 0.00 | 61 | 992.0 |
| 20260905164636 | 92 | 333 | 0.9 | 3.5 | 0.00 | 0.00 | 0.00 | 61 | 992.0 |
| 20260905164602 | 92 | 0 | 0.9 | 2.6 | 0.00 | 0.00 | 0.00 | 62 | 992.0 |
| 20260905164525 | 92 | 18 | 0.9 | 2.6 | 0.00 | 0.00 | 0.00 | 62 | 992.0 |
| 20260905164404 | 92 | 353 | 0.9 | 3.5 | 0.00 | 0.00 | 0.00 | 61 | 992.0 |
| 20260905164303 | 92 | 341 | 0.9 | 3.5 | 0.00 | 0.00 | 0.00 | 61 | 992.0 |
| 20260905164204 | 92 | 336 | 0.9 | 3.5 | 0.00 | 0.00 | 0.00 | 61 | 992.0 |
| 20260905164103 | 92 | 309 | 0.9 | 3.5 | 0.00 | 0.00 | 0.00 | 62 | 992.0 |
| 20260905164002 | 92 | 0 | 0.9 | 3.5 | 0.00 | 0.00 | 0.00 | 61 | 992.1 |
| 20260905163910 | 92 | 234 | 0.9 | 3.5 | 0.00 | 0.00 | 0.00 | 62 | 992.1 |
| 20260905163902 | 92 | 259 | 0.9 | 3.5 | 0.00 | 0.00 | 0.00 | 62 | 992.1 |
| 20260905163802 | 92 | 18 | 0.9 | 3.5 | 0.00 | 0.00 | 0.00 | 63 | 992.1 |
| 20260905163703 | 91 | 1 | 0.9 | 3.5 | 0.00 | 0.00 | 0.00 | 63 | 992.1 |
| 20260905163604 | 91 | 325 | 0.9 | 3.5 | 0.00 | 0.00 | 0.00 | 63 | 992.1 |
| 20260905163503 | 91 | 350 | 0.9 | 3.5 | 0.00 | 0.00 | 0.00 | 63 | 992.1 |
| 20260905163409 | 91 | 347 | 0.9 | 3.5 | 0.00 | 0.00 | 0.00 | 63 | 992.1 |
| 20260905163404 | 91 | 337 | 0.9 | 3.5 | 0.00 | 0.00 | 0.00 | 63 | 992.1 |
| 20260905163302 | 91 | 0 | 0.9 | 3.5 | 0.00 | 0.00 | 0.00 | 64 | 992.1 |
| 20260905163201 | 91 | 0 | 1.7 | 3.5 | 0.00 | 0.00 | 0.00 | 64 | 992.1 |
| 20260905163100 | 91 | 357 | 1.7 | 3.5 | 0.00 | 0.00 | 0.00 | 64 | 992.1 |
| 20260905163000 | 91 | 354 | 1.7 | 3.5 | 0.00 | 0.00 | 0.00 | 64 | 992.1 |
| 20260905162910 | 90 | 359 | 1.7 | 3.5 | 0.00 | 0.00 | 0.00 | 64 | 992.1 |
| 20260905162900 | 90 | 341 | 1.7 | 3.5 | 0.00 | 0.00 | 0.00 | 64 | 992.1 |
| 20260905162800 | 90 | 0 | 1.7 | 3.5 | 0.00 | 0.00 | 0.00 | 64 | 992.1 |
| 20260905162701 | 90 | 339 | 1.7 | 3.5 | 0.00 | 0.00 | 0.00 | 64 | 992.1 |
| 20260905162600 | 90 | 339 | 1.7 | 3.5 | 0.00 | 0.00 | 0.00 | 66 | 992.1 |
| 20260905162500 | 90 | 354 | 1.7 | 3.5 | 0.00 | 0.00 | 0.00 | 65 | 992.1 |
| 20260905162408 | 90 | 283 | 1.7 | 3.5 | 0.00 | 0.00 | 0.00 | 66 | 992.1 |
| 20260905162359 | 90 | 310 | 1.7 | 3.5 | 0.00 | 0.00 | 0.00 | 65 | 992.1 |
| 20260905162259 | 90 | 334 | 1.7 | 3.5 | 0.00 | 0.00 | 0.00 | 65 | 992.1 |
| 20260905162159 | 91 | 316 | 0.9 | 3.5 | 0.00 | 0.00 | 0.00 | 65 | 992.1 |
| 20260905161959 | 91 | 334 | 0.9 | 3.5 | 0.00 | 0.00 | 0.00 | 64 | 992.1 |
| 20260905161908 | 91 | 344 | 0.9 | 3.5 | 0.00 | 0.00 | 0.00 | 64 | 992.1 |
| 20260905161858 | 91 | 326 | 0.9 | 3.5 | 0.00 | 0.00 | 0.00 | 64 | 992.1 |
| 20260905161759 | 90 | 3 | 0.9 | 3.5 | 0.00 | 0.00 | 0.00 | 64 | 992.2 |
| 20260905161659 | 90 | 315 | 0.9 | 2.6 | 0.00 | 0.00 | 0.00 | 64 | 992.1 |
| 20260905161559 | 90 | 0 | 0.9 | 2.6 | 0.00 | 0.00 | 0.00 | 64 | 992.2 |
| 20260905161459 | 90 | 337 | 0.9 | 2.6 | 0.00 | 0.00 | 0.00 | 65 | 992.2 |
| 20260905161408 | 90 | 337 | 0.9 | 2.6 | 0.00 | 0.00 | 0.00 | 65 | 992.2 |
| 20260905161359 | 90 | 337 | 0.9 | 2.6 | 0.00 | 0.00 | 0.00 | 65 | 992.2 |
| 20260905161259 | 90 | 0 | 0.9 | 2.6 | 0.00 | 0.00 | 0.00 | 64 | 992.2 |
| 20260905161159 | 90 | 353 | 0.9 | 2.6 | 0.00 | 0.00 | 0.00 | 64 | 992.2 |
| 20260905161112 | 90 | 338 | 0.9 | 2.6 | 0.00 | 0.00 | 0.00 | 65 | 992.1 |
| 20260905160959 | 90 | 336 | 0.9 | 2.6 | 0.00 | 0.00 | 0.00 | 65 | 992.1 |
| 20260905160911 | 90 | 319 | 0.9 | 2.6 | 0.00 | 0.00 | 0.00 | 65 | 992.1 |
| 20260905160858 | 90 | 319 | 0.9 | 2.6 | 0.00 | 0.00 | 0.00 | 64 | 992.1 |
| 20260905160759 | 90 | 316 | 0.9 | 2.6 | 0.00 | 0.00 | 0.00 | 64 | 992.0 |
| 20260905160659 | 90 | 194 | 0.9 | 2.6 | 0.00 | 0.00 | 0.00 | 65 | 992.0 |
| 20260905160558 | 90 | 193 | 0.9 | 2.6 | 0.00 | 0.00 | 0.00 | 65 | 992.1 |
| 20260905160459 | 90 | 0 | 0.9 | 2.6 | 0.00 | 0.00 | 0.00 | 64 | 992.1 |
| 20260905160410 | 90 | 0 | 0.9 | 2.6 | 0.00 | 0.00 | 0.00 | 64 | 992.1 |
| 20260905160359 | 90 | 343 | 0.9 | 2.6 | 0.00 | 0.00 | 0.00 | 64 | 992.1 |
| 20260905160259 | 90 | 326 | 0.9 | 2.6 | 0.00 | 0.00 | 0.00 | 65 | 992.1 |
| 20260905160159 | 90 | 0 | 0.9 | 2.6 | 0.00 | 0.00 | 0.00 | 65 | 992.1 |
| 20260905160108 | 90 | 325 | 0.9 | 2.6 | 0.00 | 0.00 | 0.00 | 66 | 992.1 |
| 20260905155946 | 89 | 328 | 0.9 | 2.6 | 0.00 | 0.00 | 0.00 | 66 | 992.1 |
| 20260905155854 | 89 | 347 | 0.9 | 2.6 | 0.00 | 0.00 | 0.00 | 66 | 992.1 |
| 20260905155845 | 89 | 350 | 0.9 | 2.6 | 0.00 | 0.00 | 0.00 | 66 | 992.0 |
| 20260905155745 | 89 | 0 | 0.9 | 2.6 | 0.00 | 0.00 | 0.00 | 65 | 992.0 |
| 20260905155646 | 89 | 28 | 0.9 | 2.6 | 0.00 | 0.00 | 0.00 | 65 | 992.0 |
| 20260905155533 | 89 | 342 | 0.9 | 2.6 | 0.00 | 0.00 | 0.00 | 65 | 992.0 |
| 20260905155430 | 89 | 354 | 0.9 | 2.6 | 0.00 | 0.00 | 0.00 | 65 | 992.0 |
| 20260905155354 | 89 | 354 | 0.9 | 2.6 | 0.00 | 0.00 | 0.00 | 65 | 992.0 |
| 20260905155330 | 89 | 339 | 0.9 | 2.6 | 0.00 | 0.00 | 0.00 | 65 | 991.9 |
| 20260905155217 | 89 | 351 | 0.9 | 1.7 | 0.00 | 0.00 | 0.00 | 65 | 992.0 |
| 20260905155121 | 89 | 338 | 0.9 | 1.7 | 0.00 | 0.00 | 0.00 | 65 | 992.0 |
| 20260905155117 | 89 | 0 | 0.9 | 1.7 | 0.00 | 0.00 | 0.00 | 65 | 991.9 |
| 20260905155023 | 89 | 335 | 0.9 | 1.7 | 0.00 | 0.00 | 0.00 | 64 | 992.0 |
| 20260905155005 | 89 | 338 | 0.9 | 1.7 | 0.00 | 0.00 | 0.00 | 65 | 992.0 |
| 20260905154801 | 89 | 333 | 0.9 | 1.7 | 0.00 | 0.00 | 0.00 | 65 | 992.0 |
| 20260905154701 | 89 | 333 | 0.9 | 1.7 | 0.00 | 0.00 | 0.00 | 65 | 992.0 |
| 20260905154601 | 89 | 336 | 0.9 | 1.7 | 0.00 | 0.00 | 0.00 | 65 | 992.0 |
| 20260905154501 | 89 | 212 | 0.9 | 1.7 | 0.00 | 0.00 | 0.00 | 66 | 992.0 |
| 20260905154401 | 89 | 359 | 0.9 | 1.7 | 0.00 | 0.00 | 0.00 | 66 | 992.0 |
| 20260905154301 | 89 | 0 | 0.9 | 1.7 | 0.00 | 0.00 | 0.00 | 66 | 992.0 |
| 20260905154202 | 89 | 339 | 0.9 | 2.6 | 0.00 | 0.00 | 0.00 | 66 | 992.0 |
| 20260905154101 | 89 | 329 | 1.7 | 2.6 | 0.00 | 0.00 | 0.00 | 67 | 992.0 |
| 20260905154001 | 89 | 14 | 1.7 | 2.6 | 0.00 | 0.00 | 0.00 | 66 | 992.0 |
| 20260905153900 | 89 | 0 | 1.7 | 2.6 | 0.00 | 0.00 | 0.00 | 66 | 991.9 |
| 20260905153801 | 89 | 0 | 1.7 | 2.6 | 0.00 | 0.00 | 0.00 | 65 | 991.9 |
| 20260905153701 | 89 | 266 | 1.7 | 2.6 | 0.00 | 0.00 | 0.00 | 66 | 991.9 |
| 20260905153601 | 89 | 346 | 1.7 | 2.6 | 0.00 | 0.00 | 0.00 | 66 | 991.9 |
| 20260905153502 | 89 | 334 | 1.7 | 2.6 | 0.00 | 0.00 | 0.00 | 66 | 991.9 |
| 20260905153401 | 89 | 329 | 1.7 | 2.6 | 0.00 | 0.00 | 0.00 | 65 | 991.9 |
| 20260905153301 | 89 | 337 | 0.9 | 2.6 | 0.00 | 0.00 | 0.00 | 65 | 991.9 |
| 20260905153201 | 89 | 348 | 0.9 | 2.6 | 0.00 | 0.00 | 0.00 | 65 | 991.9 |
| 20260905153101 | 89 | 14 | 0.9 | 2.6 | 0.00 | 0.00 | 0.00 | 66 | 991.9 |
| 20260905153001 | 89 | 355 | 0.9 | 2.6 | 0.00 | 0.00 | 0.00 | 66 | 991.9 |
| 20260905152904 | 89 | 184 | 0.9 | 1.7 | 0.00 | 0.00 | 0.00 | 66 | 991.8 |
| 20260905152853 | 89 | 349 | 0.9 | 1.7 | 0.00 | 0.00 | 0.00 | 67 | 991.9 |
| 20260905152801 | 89 | 342 | 0.9 | 1.7 | 0.00 | 0.00 | 0.00 | 67 | 991.9 |
| 20260905152701 | 88 | 337 | 0.9 | 2.6 | 0.00 | 0.00 | 0.00 | 66 | 991.8 |
| 20260905152602 | 88 | 327 | 0.9 | 2.6 | 0.00 | 0.00 | 0.00 | 67 | 991.8 |
| 20260905152500 | 88 | 0 | 0.9 | 2.6 | 0.00 | 0.00 | 0.00 | 67 | 991.8 |
| 20260905152359 | 88 | 0 | 0.9 | 2.6 | 0.00 | 0.00 | 0.00 | 66 | 991.8 |
| 20260905152300 | 88 | 244 | 0.9 | 2.6 | 0.00 | 0.00 | 0.00 | 66 | 991.8 |
| 20260905152200 | 88 | 243 | 0.9 | 2.6 | 0.00 | 0.00 | 0.00 | 66 | 991.8 |
| 20260905152100 | 88 | 322 | 0.9 | 2.6 | 0.00 | 0.00 | 0.00 | 66 | 991.8 |
| 20260905152000 | 88 | 338 | 0.9 | 2.6 | 0.00 | 0.00 | 0.00 | 66 | 991.8 |
| 20260905151859 | 88 | 235 | 0.9 | 2.6 | 0.00 | 0.00 | 0.00 | 66 | 991.9 |
| 20260905151800 | 88 | 315 | 0.9 | 2.6 | 0.00 | 0.00 | 0.00 | 66 | 991.9 |
| 20260905151700 | 88 | 354 | 0.9 | 2.6 | 0.00 | 0.00 | 0.00 | 66 | 991.9 |
| 20260905151618 | 88 | 0 | 0.9 | 2.6 | 0.00 | 0.00 | 0.00 | 66 | 991.9 |
| 20260905151600 | 88 | 336 | 0.9 | 2.6 | 0.00 | 0.00 | 0.00 | 66 | 991.9 |
| 20260905151519 | 88 | 340 | 0.9 | 2.6 | 0.00 | 0.00 | 0.00 | 67 | 991.9 |
| 20260905151504 | 88 | 0 | 0.9 | 2.6 | 0.00 | 0.00 | 0.00 | 66 | 991.9 |
| 20260905151300 | 88 | 344 | 0.9 | 2.6 | 0.00 | 0.00 | 0.00 | 66 | 991.9 |
| 20260905151200 | 88 | 342 | 0.9 | 2.6 | 0.00 | 0.00 | 0.00 | 66 | 991.8 |
| 20260905151110 | 87 | 308 | 0.9 | 1.7 | 0.00 | 0.00 | 0.00 | 68 | 991.9 |
| 20260905151100 | 88 | 328 | 0.9 | 2.6 | 0.00 | 0.00 | 0.00 | 67 | 991.9 |
| 20260905151008 | 88 | 323 | 0.9 | 2.6 | 0.00 | 0.00 | 0.00 | 67 | 991.9 |
| 20260905150951 | 87 | 308 | 0.9 | 1.7 | 0.00 | 0.00 | 0.00 | 68 | 991.9 |
| 20260905150747 | 87 | 353 | 0.9 | 1.7 | 0.00 | 0.00 | 0.00 | 67 | 991.8 |
| 20260905150647 | 87 | 0 | 0.9 | 3.5 | 0.00 | 0.00 | 0.00 | 67 | 991.8 |
| 20260905150547 | 87 | 0 | 0.9 | 3.5 | 0.00 | 0.00 | 0.00 | 67 | 991.8 |
| 20260905150446 | 87 | 0 | 0.9 | 3.5 | 0.00 | 0.00 | 0.00 | 67 | 991.8 |
| 20260905150347 | 87 | 0 | 0.9 | 3.5 | 0.00 | 0.00 | 0.00 | 67 | 991.8 |
| 20260905150246 | 87 | 309 | 0.9 | 3.5 | 0.00 | 0.00 | 0.00 | 67 | 991.7 |
| 20260905150132 | 87 | 325 | 0.9 | 3.5 | 0.00 | 0.00 | 0.00 | 67 | 991.7 |
| 20260905150033 | 87 | 6 | 0.9 | 3.5 | 0.00 | 0.00 | 0.00 | 68 | 991.8 |
| 20260905145932 | 87 | 352 | 0.9 | 3.5 | 0.00 | 0.00 | 0.00 | 68 | 991.8 |
| 20260905145832 | 87 | 0 | 0.9 | 3.5 | 0.00 | 0.00 | 0.00 | 68 | 991.8 |
| 20260905145717 | 87 | 349 | 0.9 | 3.5 | 0.00 | 0.00 | 0.00 | 68 | 991.8 |
| 20260905145617 | 87 | 330 | 0.9 | 2.6 | 0.00 | 0.00 | 0.00 | 69 | 991.8 |
| 20260905145518 | 87 | 333 | 0.9 | 2.6 | 0.00 | 0.00 | 0.00 | 70 | 991.8 |
| 20260905145417 | 87 | 329 | 0.9 | 2.6 | 0.00 | 0.00 | 0.00 | 69 | 991.7 |
| 20260905145339 | 87 | 10 | 0.9 | 2.6 | 0.00 | 0.00 | 0.00 | 69 | 991.7 |
| 20260905145302 | 87 | 193 | 0.9 | 2.6 | 0.00 | 0.00 | 0.00 | 69 | 991.7 |
| 20260905145203 | 87 | 0 | 0.9 | 2.6 | 0.00 | 0.00 | 0.00 | 69 | 991.7 |
| 20260905145102 | 86 | 350 | 0.9 | 2.6 | 0.00 | 0.00 | 0.00 | 69 | 991.7 |
| 20260905145002 | 86 | 352 | 0.9 | 2.6 | 0.00 | 0.00 | 0.00 | 69 | 991.7 |
| 20260905144902 | 86 | 356 | 0.0 | 2.6 | 0.00 | 0.00 | 0.00 | 69 | 991.7 |
| 20260905144824 | 86 | 0 | 0.0 | 2.6 | 0.00 | 0.00 | 0.00 | 70 | 991.7 |
| 20260905144802 | 86 | 0 | 0.0 | 2.6 | 0.00 | 0.00 | 0.00 | 70 | 991.7 |
| 20260905144701 | 86 | 342 | 0.9 | 2.6 | 0.00 | 0.00 | 0.00 | 70 | 991.7 |
| 20260905144602 | 86 | 0 | 0.9 | 2.6 | 0.00 | 0.00 | 0.00 | 70 | 991.7 |
| 20260905144502 | 86 | 345 | 0.9 | 2.6 | 0.00 | 0.00 | 0.00 | 71 | 991.7 |
| 20260905144403 | 86 | 355 | 0.0 | 2.6 | 0.00 | 0.00 | 0.00 | 71 | 991.7 |
| 20260905144325 | 86 | 352 | 0.9 | 2.6 | 0.00 | 0.00 | 0.00 | 71 | 991.6 |
| 20260905144302 | 86 | 352 | 0.9 | 2.6 | 0.00 | 0.00 | 0.00 | 71 | 991.6 |
| 20260905144201 | 86 | 0 | 0.9 | 2.6 | 0.00 | 0.00 | 0.00 | 71 | 991.6 |
| 20260905144101 | 86 | 0 | 0.9 | 2.6 | 0.00 | 0.00 | 0.00 | 71 | 991.6 |
| 20260905144003 | 86 | 0 | 0.9 | 2.6 | 0.00 | 0.00 | 0.00 | 71 | 991.6 |
| 20260905143902 | 85 | 335 | 0.9 | 2.6 | 0.00 | 0.00 | 0.00 | 71 | 991.6 |
| 20260905143825 | 85 | 335 | 0.9 | 2.6 | 0.00 | 0.00 | 0.00 | 71 | 991.6 |
| 20260905143802 | 85 | 329 | 0.9 | 2.6 | 0.00 | 0.00 | 0.00 | 71 | 991.6 |
| 20260905143702 | 85 | 307 | 0.9 | 2.6 | 0.00 | 0.00 | 0.00 | 72 | 991.6 |
| 20260905143602 | 85 | 0 | 0.9 | 2.6 | 0.00 | 0.00 | 0.00 | 72 | 991.6 |
| 20260905143503 | 85 | 0 | 0.9 | 2.6 | 0.00 | 0.00 | 0.00 | 72 | 991.6 |
| 20260905143402 | 85 | 330 | 0.9 | 2.6 | 0.00 | 0.00 | 0.00 | 72 | 991.6 |
| 20260905143326 | 85 | 334 | 0.0 | 2.6 | 0.00 | 0.00 | 0.00 | 72 | 991.6 |
| 20260905143312 | 85 | 0 | 0.0 | 1.7 | 0.00 | 0.00 | 0.00 | 72 | 991.6 |
| 20260905143302 | 85 | 10 | 0.0 | 1.7 | 0.00 | 0.00 | 0.00 | 72 | 991.6 |
| 20260905143212 | 85 | 325 | 0.0 | 1.7 | 0.00 | 0.00 | 0.00 | 72 | 991.6 |
| 20260905143159 | 85 | 0 | 0.0 | 1.7 | 0.00 | 0.00 | 0.00 | 72 | 991.6 |
| 20260905143002 | 85 | 0 | 0.0 | 1.7 | 0.00 | 0.00 | 0.00 | 72 | 991.6 |
| 20260905142940 | 85 | 0 | 0.0 | 1.7 | 0.00 | 0.00 | 0.00 | 72 | 991.6 |
| 20260905142802 | 85 | 0 | 0.0 | 1.7 | 0.00 | 0.00 | 0.00 | 72 | 991.6 |
| 20260905142702 | 85 | 239 | 0.0 | 1.7 | 0.00 | 0.00 | 0.00 | 72 | 991.6 |
| 20260905142602 | 85 | 263 | 0.0 | 1.7 | 0.00 | 0.00 | 0.00 | 72 | 991.5 |
| 20260905142503 | 85 | 247 | 0.0 | 1.7 | 0.00 | 0.00 | 0.00 | 72 | 991.6 |
| 20260905142401 | 84 | 187 | 0.0 | 1.7 | 0.00 | 0.00 | 0.00 | 72 | 991.5 |
| 20260905142324 | 84 | 186 | 0.0 | 1.7 | 0.00 | 0.00 | 0.00 | 72 | 991.5 |
| 20260905142301 | 84 | 186 | 0.0 | 1.7 | 0.00 | 0.00 | 0.00 | 73 | 991.5 |
| 20260905142201 | 84 | 0 | 0.0 | 1.7 | 0.00 | 0.00 | 0.00 | 73 | 991.5 |
| 20260905142101 | 84 | 0 | 0.0 | 1.7 | 0.00 | 0.00 | 0.00 | 73 | 991.5 |
| 20260905142001 | 84 | 0 | 0.0 | 1.7 | 0.00 | 0.00 | 0.00 | 73 | 991.5 |
| 20260905141901 | 84 | 0 | 0.0 | 1.7 | 0.00 | 0.00 | 0.00 | 73 | 991.5 |
| 20260905141825 | 84 | 0 | 0.0 | 1.7 | 0.00 | 0.00 | 0.00 | 73 | 991.5 |
| 20260905141801 | 84 | 0 | 0.0 | 1.7 | 0.00 | 0.00 | 0.00 | 73 | 991.5 |
| 20260905141702 | 84 | 0 | 0.0 | 1.7 | 0.00 | 0.00 | 0.00 | 73 | 991.4 |
| 20260905141601 | 84 | 0 | 0.0 | 1.7 | 0.00 | 0.00 | 0.00 | 73 | 991.4 |
| 20260905141544 | 84 | 220 | 0.0 | 1.7 | 0.00 | 0.00 | 0.00 | 73 | 991.5 |
| 20260905141501 | 84 | 0 | 0.0 | 1.7 | 0.00 | 0.00 | 0.00 | 73 | 991.5 |
| 20260905141440 | 84 | 0 | 0.0 | 1.7 | 0.00 | 0.00 | 0.00 | 73 | 991.5 |
| 20260905141301 | 84 | 220 | 0.0 | 1.7 | 0.00 | 0.00 | 0.00 | 73 | 991.5 |
| 20260905141144 | 84 | 222 | 0.0 | 1.7 | 0.00 | 0.00 | 0.00 | 73 | 991.5 |
| 20260905141042 | 83 | 0 | 0.0 | 1.7 | 0.00 | 0.00 | 0.00 | 73 | 991.5 |
| 20260905140942 | 83 | 0 | 0.0 | 1.7 | 0.00 | 0.00 | 0.00 | 73 | 991.4 |
| 20260905140825 | 83 | 0 | 0.0 | 1.7 | 0.00 | 0.00 | 0.00 | 73 | 991.4 |
| 20260905140745 | 83 | 0 | 0.0 | 1.7 | 0.00 | 0.00 | 0.00 | 73 | 991.4 |
| 20260905140644 | 83 | 0 | 0.0 | 1.7 | 0.00 | 0.00 | 0.00 | 73 | 991.4 |
| 20260905140529 | 83 | 186 | 0.0 | 1.7 | 0.00 | 0.00 | 0.00 | 73 | 991.4 |
| 20260905140429 | 83 | 0 | 0.0 | 1.7 | 0.00 | 0.00 | 0.00 | 73 | 991.4 |
| 20260905140330 | 83 | 0 | 0.0 | 1.7 | 0.00 | 0.00 | 0.00 | 73 | 991.4 |
| 20260905140230 | 83 | 0 | 0.0 | 1.7 | 0.00 | 0.00 | 0.00 | 73 | 991.4 |
| 20260905140129 | 83 | 0 | 0.0 | 1.7 | 0.00 | 0.00 | 0.00 | 74 | 991.4 |
| 20260905140045 | 83 | 0 | 0.0 | 1.7 | 0.00 | 0.00 | 0.00 | 75 | 991.5 |
| 20260905140030 | 83 | 249 | 0.0 | 1.7 | 0.00 | 0.00 | 0.00 | 74 | 991.4 |
| 20260905135942 | 83 | 176 | 0.0 | 1.7 | 0.00 | 0.00 | 0.00 | 74 | 991.5 |
| 20260905135813 | 83 | 0 | 0.0 | 1.7 | 0.00 | 0.00 | 0.00 | 75 | 991.5 |
| 20260905135713 | 83 | 0 | 0.9 | 1.7 | 0.00 | 0.00 | 0.00 | 75 | 991.5 |
| 20260905135613 | 83 | 0 | 0.9 | 1.7 | 0.00 | 0.00 | 0.00 | 75 | 991.5 |
| 20260905135601 | 83 | 0 | 0.9 | 1.7 | 0.00 | 0.00 | 0.00 | 75 | 991.5 |
| 20260905135513 | 83 | 0 | 0.9 | 1.7 | 0.00 | 0.00 | 0.00 | 75 | 991.5 |
| 20260905135441 | 83 | 0 | 0.9 | 1.7 | 0.00 | 0.00 | 0.00 | 75 | 991.5 |
| 20260905135313 | 83 | 0 | 0.9 | 1.7 | 0.00 | 0.00 | 0.00 | 75 | 991.5 |
| 20260905135213 | 82 | 352 | 0.9 | 1.7 | 0.00 | 0.00 | 0.00 | 75 | 991.5 |
| 20260905135059 | 82 | 347 | 0.9 | 1.7 | 0.00 | 0.00 | 0.00 | 75 | 991.5 |
| 20260905134959 | 82 | 354 | 0.9 | 1.7 | 0.00 | 0.00 | 0.00 | 76 | 991.5 |
| 20260905134859 | 82 | 350 | 0.9 | 1.7 | 0.00 | 0.00 | 0.00 | 76 | 991.5 |
| 20260905134811 | 82 | 337 | 0.0 | 1.7 | 0.00 | 0.00 | 0.00 | 77 | 991.4 |
| 20260905134759 | 82 | 334 | 0.0 | 1.7 | 0.00 | 0.00 | 0.00 | 77 | 991.4 |
| 20260905134658 | 82 | 339 | 0.0 | 1.7 | 0.00 | 0.00 | 0.00 | 77 | 991.4 |
| 20260905134558 | 82 | 0 | 0.0 | 1.7 | 0.00 | 0.00 | 0.00 | 77 | 991.3 |
| 20260905134458 | 82 | 0 | 0.0 | 1.7 | 0.00 | 0.00 | 0.00 | 77 | 991.3 |
| 20260905134358 | 82 | 347 | 0.0 | 1.7 | 0.00 | 0.00 | 0.00 | 77 | 991.3 |
| 20260905134311 | 82 | 347 | 0.0 | 1.7 | 0.00 | 0.00 | 0.00 | 77 | 991.3 |
| 20260905134258 | 82 | 0 | 0.0 | 1.7 | 0.00 | 0.00 | 0.00 | 77 | 991.3 |
| 20260905134158 | 82 | 0 | 0.0 | 1.7 | 0.00 | 0.00 | 0.00 | 77 | 991.3 |
| 20260905134058 | 82 | 188 | 0.0 | 1.7 | 0.00 | 0.00 | 0.00 | 77 | 991.3 |
| 20260905133959 | 82 | 134 | 0.0 | 1.7 | 0.00 | 0.00 | 0.00 | 77 | 991.3 |
| 20260905133858 | 82 | 0 | 0.0 | 1.7 | 0.00 | 0.00 | 0.00 | 78 | 991.3 |
| 20260905133810 | 82 | 253 | 0.0 | 1.7 | 0.00 | 0.00 | 0.00 | 78 | 991.3 |
| 20260905133758 | 82 | 253 | 0.0 | 1.7 | 0.00 | 0.00 | 0.00 | 78 | 991.3 |
| 20260905133658 | 82 | 0 | 0.0 | 1.7 | 0.00 | 0.00 | 0.00 | 77 | 991.2 |
| 20260905133558 | 82 | 0 | 0.0 | 1.7 | 0.00 | 0.00 | 0.00 | 78 | 991.3 |
| 20260905133459 | 81 | 0 | 0.0 | 1.7 | 0.00 | 0.00 | 0.00 | 78 | 991.3 |
| 20260905133359 | 81 | 0 | 0.0 | 1.7 | 0.00 | 0.00 | 0.00 | 78 | 991.3 |
| 20260905133311 | 81 | 352 | 0.0 | 1.7 | 0.00 | 0.00 | 0.00 | 78 | 991.3 |
| 20260905133259 | 81 | 352 | 0.0 | 1.7 | 0.00 | 0.00 | 0.00 | 78 | 991.3 |
| 20260905133158 | 81 | 0 | 0.0 | 0.9 | 0.00 | 0.00 | 0.00 | 78 | 991.3 |
| 20260905133059 | 81 | 0 | 0.0 | 0.9 | 0.00 | 0.00 | 0.00 | 78 | 991.2 |
| 20260905132958 | 81 | 0 | 0.0 | 0.9 | 0.00 | 0.00 | 0.00 | 78 | 991.2 |
| 20260905132859 | 81 | 0 | 0.0 | 0.9 | 0.00 | 0.00 | 0.00 | 78 | 991.2 |
| 20260905132811 | 81 | 0 | 0.0 | 0.9 | 0.00 | 0.00 | 0.00 | 78 | 991.2 |
| 20260905132759 | 81 | 0 | 0.0 | 0.9 | 0.00 | 0.00 | 0.00 | 78 | 991.2 |
| 20260905132659 | 81 | 0 | 0.0 | 0.9 | 0.00 | 0.00 | 0.00 | 78 | 991.2 |
| 20260905132559 | 81 | 31 | 0.0 | 0.9 | 0.00 | 0.00 | 0.00 | 78 | 991.2 |
| 20260905132459 | 81 | 164 | 0.0 | 0.9 | 0.00 | 0.00 | 0.00 | 79 | 991.2 |
| 20260905132355 | 81 | 0 | 0.0 | 0.0 | 0.00 | 0.00 | 0.00 | 79 | 991.3 |
| 20260905132311 | 81 | 0 | 0.0 | 0.0 | 0.00 | 0.00 | 0.00 | 79 | 991.3 |
| 20260905132257 | 81 | 0 | 0.0 | 0.0 | 0.00 | 0.00 | 0.00 | 80 | 991.3 |
| 20260905132157 | 80 | 0 | 0.0 | 0.0 | 0.00 | 0.00 | 0.00 | 80 | 991.4 |
| 20260905132058 | 80 | 0 | 0.0 | 0.0 | 0.00 | 0.00 | 0.00 | 80 | 991.4 |
| 20260905131957 | 80 | 0 | 0.0 | 0.0 | 0.00 | 0.00 | 0.00 | 80 | 991.5 |
| 20260905131857 | 80 | 0 | 0.0 | 0.0 | 0.00 | 0.00 | 0.00 | 81 | 991.5 |
| 20260905131811 | 80 | 0 | 0.0 | 0.0 | 0.00 | 0.00 | 0.00 | 81 | 991.5 |
| 20260905131757 | 80 | 0 | 0.0 | 0.0 | 0.00 | 0.00 | 0.00 | 81 | 991.5 |
| 20260905131657 | 80 | 0 | 0.0 | 0.0 | 0.00 | 0.00 | 0.00 | 81 | 991.5 |
| 20260905131557 | 80 | 0 | 0.0 | 0.0 | 0.00 | 0.00 | 0.00 | 82 | 991.5 |
| 20260905131458 | 80 | 0 | 0.0 | 0.0 | 0.00 | 0.00 | 0.00 | 82 | 991.5 |
| 20260905131357 | 80 | 0 | 0.0 | 0.0 | 0.00 | 0.00 | 0.00 | 82 | 991.5 |
| 20260905131312 | 80 | 0 | 0.0 | 0.0 | 0.00 | 0.00 | 0.00 | 82 | 991.5 |
| 20260905131258 | 80 | 0 | 0.0 | 0.0 | 0.00 | 0.00 | 0.00 | 82 | 991.5 |
| 20260905131157 | 80 | 0 | 0.0 | 0.0 | 0.00 | 0.00 | 0.00 | 82 | 991.5 |
| 20260905131057 | 80 | 0 | 0.0 | 0.0 | 0.00 | 0.00 | 0.00 | 83 | 991.5 |
| 20260905130958 | 80 | 0 | 0.0 | 0.0 | 0.00 | 0.00 | 0.00 | 83 | 991.5 |
| 20260905130857 | 80 | 0 | 0.0 | 0.0 | 0.00 | 0.00 | 0.00 | 83 | 991.5 |
| 20260905130812 | 80 | 0 | 0.0 | 0.0 | 0.00 | 0.00 | 0.00 | 83 | 991.5 |
| 20260905130807 | 79 | 0 | 0.0 | 0.0 | 0.00 | 0.00 | 0.00 | 83 | 991.5 |
| 20260905130757 | 80 | 0 | 0.0 | 0.0 | 0.00 | 0.00 | 0.00 | 83 | 991.5 |
| 20260905130702 | 80 | 0 | 0.0 | 0.0 | 0.00 | 0.00 | 0.00 | 83 | 991.5 |
| 20260905130646 | 80 | 0 | 0.0 | 0.0 | 0.00 | 0.00 | 0.00 | 83 | 991.5 |
| 20260905130457 | 80 | 0 | 0.0 | 0.0 | 0.00 | 0.00 | 0.00 | 83 | 991.5 |
| 20260905130427 | 79 | 0 | 0.0 | 0.0 | 0.00 | 0.00 | 0.00 | 83 | 991.5 |
| 20260905130258 | 79 | 0 | 0.0 | 0.0 | 0.00 | 0.00 | 0.00 | 83 | 991.5 |
| 20260905130158 | 79 | 0 | 0.0 | 0.0 | 0.00 | 0.00 | 0.00 | 83 | 991.5 |
| 20260905130058 | 79 | 0 | 0.0 | 0.0 | 0.00 | 0.00 | 0.00 | 83 | 991.5 |
| 20260905125958 | 79 | 0 | 0.0 | 0.0 | 0.00 | 0.00 | 0.00 | 84 | 991.5 |
| 20260905125858 | 79 | 0 | 0.0 | 0.0 | 0.00 | 0.00 | 0.00 | 84 | 991.4 |
| 20260905125811 | 79 | 0 | 0.0 | 0.0 | 0.00 | 0.00 | 0.00 | 84 | 991.4 |
| 20260905125758 | 79 | 0 | 0.0 | 0.0 | 0.00 | 0.00 | 0.00 | 84 | 991.4 |
| 20260905125658 | 79 | 0 | 0.0 | 0.0 | 0.00 | 0.00 | 0.00 | 85 | 991.4 |
| 20260905125557 | 79 | 0 | 0.0 | 0.0 | 0.00 | 0.00 | 0.00 | 85 | 991.4 |
| 20260905125457 | 79 | 0 | 0.0 | 0.0 | 0.00 | 0.00 | 0.00 | 85 | 991.4 |
| 20260905125358 | 79 | 0 | 0.0 | 0.0 | 0.00 | 0.00 | 0.00 | 86 | 991.3 |
| 20260905125311 | 79 | 0 | 0.0 | 0.0 | 0.00 | 0.00 | 0.00 | 86 | 991.3 |
| 20260905125244 | 79 | 0 | 0.0 | 0.0 | 0.00 | 0.00 | 0.00 | 86 | 991.3 |
| 20260905125130 | 78 | 0 | 0.0 | 0.0 | 0.00 | 0.00 | 0.00 | 86 | 991.3 |
| 20260905125029 | 78 | 0 | 0.0 | 0.0 | 0.00 | 0.00 | 0.00 | 86 | 991.3 |
| 20260905124929 | 78 | 0 | 0.0 | 0.0 | 0.00 | 0.00 | 0.00 | 86 | 991.3 |
| 20260905124829 | 78 | 0 | 0.0 | 0.0 | 0.00 | 0.00 | 0.00 | 86 | 991.2 |
| 20260905124757 | 78 | 0 | 0.0 | 0.0 | 0.00 | 0.00 | 0.00 | 86 | 991.2 |
| 20260905124729 | 78 | 0 | 0.0 | 0.0 | 0.00 | 0.00 | 0.00 | 87 | 991.2 |
| 20260905124630 | 78 | 0 | 0.0 | 0.0 | 0.00 | 0.00 | 0.00 | 87 | 991.2 |
| 20260905124529 | 78 | 0 | 0.0 | 0.0 | 0.00 | 0.00 | 0.00 | 87 | 991.2 |
| 20260905124429 | 78 | 0 | 0.0 | 0.0 | 0.00 | 0.00 | 0.00 | 87 | 991.2 |
| 20260905124330 | 78 | 0 | 0.0 | 0.0 | 0.00 | 0.00 | 0.00 | 87 | 991.2 |
| 20260905124256 | 78 | 0 | 0.0 | 0.0 | 0.00 | 0.00 | 0.00 | 87 | 991.2 |
| 20260905124229 | 78 | 0 | 0.0 | 0.0 | 0.00 | 0.00 | 0.00 | 88 | 991.2 |
| 20260905124129 | 78 | 0 | 0.0 | 0.0 | 0.00 | 0.00 | 0.00 | 88 | 991.2 |
| 20260905124030 | 78 | 0 | 0.0 | 0.0 | 0.00 | 0.00 | 0.00 | 88 | 991.2 |
| 20260905123931 | 78 | 0 | 0.0 | 0.0 | 0.00 | 0.00 | 0.00 | 88 | 991.2 |
| 20260905123830 | 78 | 0 | 0.0 | 0.0 | 0.00 | 0.00 | 0.00 | 88 | 991.2 |
| 20260905123757 | 78 | 0 | 0.0 | 0.0 | 0.00 | 0.00 | 0.00 | 88 | 991.2 |
| 20260905123730 | 78 | 0 | 0.0 | 0.0 | 0.00 | 0.00 | 0.00 | 88 | 991.1 |
| 20260905123629 | 78 | 0 | 0.0 | 0.0 | 0.00 | 0.00 | 0.00 | 88 | 991.2 |
| 20260905123529 | 78 | 0 | 0.0 | 0.0 | 0.00 | 0.00 | 0.00 | 89 | 991.2 |
| 20260905123429 | 78 | 0 | 0.0 | 0.0 | 0.00 | 0.00 | 0.00 | 89 | 991.2 |
| 20260905123329 | 78 | 0 | 0.0 | 0.0 | 0.00 | 0.00 | 0.00 | 89 | 991.2 |
| 20260905123229 | 78 | 0 | 0.0 | 0.0 | 0.00 | 0.00 | 0.00 | 89 | 991.2 |
| 20260905123129 | 78 | 0 | 0.0 | 0.0 | 0.00 | 0.00 | 0.00 | 90 | 991.2 |
| 20260905123031 | 78 | 0 | 0.0 | 0.0 | 0.00 | 0.00 | 0.00 | 90 | 991.2 |
| 20260905122929 | 78 | 0 | 0.0 | 0.0 | 0.00 | 0.00 | 0.00 | 90 | 991.2 |
| 20260905122830 | 78 | 0 | 0.0 | 0.0 | 0.00 | 0.00 | 0.00 | 90 | 991.2 |
| 20260905122730 | 78 | 0 | 0.0 | 0.0 | 0.00 | 0.00 | 0.00 | 90 | 991.2 |
| 20260905122630 | 78 | 0 | 0.0 | 0.0 | 0.00 | 0.00 | 0.00 | 90 | 991.2 |
| 20260905122529 | 78 | 0 | 0.0 | 0.0 | 0.00 | 0.00 | 0.00 | 90 | 991.2 |
| 20260905122431 | 77 | 0 | 0.0 | 0.0 | 0.00 | 0.00 | 0.00 | 90 | 991.2 |
| 20260905122329 | 77 | 0 | 0.0 | 0.0 | 0.00 | 0.00 | 0.00 | 90 | 991.1 |
| 20260905122229 | 77 | 0 | 0.0 | 0.0 | 0.00 | 0.00 | 0.00 | 90 | 991.1 |
| 20260905122129 | 77 | 0 | 0.0 | 0.0 | 0.00 | 0.00 | 0.00 | 90 | 991.1 |
| 20260905122036 | 77 | 0 | 0.0 | 0.0 | 0.00 | 0.00 | 0.00 | 91 | 991.1 |
| 20260905121930 | 77 | 0 | 0.0 | 0.0 | 0.00 | 0.00 | 0.00 | 91 | 991.1 |
| 20260905121829 | 77 | 0 | 0.0 | 0.0 | 0.00 | 0.00 | 0.00 | 91 | 991.1 |
| 20260905121734 | 77 | 0 | 0.0 | 0.0 | 0.00 | 0.00 | 0.00 | 91 | 991.1 |
| 20260905121630 | 77 | 0 | 0.0 | 0.0 | 0.00 | 0.00 | 0.00 | 91 | 991.1 |
| 20260905121530 | 77 | 0 | 0.0 | 0.0 | 0.00 | 0.00 | 0.00 | 91 | 991.1 |
| 20260905121516 | 77 | 0 | 0.0 | 0.0 | 0.00 | 0.00 | 0.00 | 91 | 991.1 |
| 20260905121430 | 77 | 0 | 0.0 | 0.0 | 0.00 | 0.00 | 0.00 | 91 | 991.1 |
| 20260905121412 | 77 | 0 | 0.0 | 0.0 | 0.00 | 0.00 | 0.00 | 91 | 991.1 |
| 20260905121233 | 77 | 0 | 0.0 | 0.0 | 0.00 | 0.00 | 0.00 | 91 | 991.1 |
| 20260905121130 | 77 | 0 | 0.0 | 0.0 | 0.00 | 0.00 | 0.00 | 91 | 991.1 |
| 20260905121030 | 77 | 0 | 0.0 | 0.0 | 0.00 | 0.00 | 0.00 | 91 | 991.0 |
| 20260905120932 | 77 | 0 | 0.0 | 0.0 | 0.00 | 0.00 | 0.00 | 91 | 991.0 |
| 20260905120830 | 77 | 0 | 0.0 | 0.0 | 0.00 | 0.00 | 0.00 | 91 | 991.0 |
| 20260905120730 | 77 | 0 | 0.0 | 0.0 | 0.00 | 0.00 | 0.00 | 91 | 991.0 |
| 20260905120630 | 77 | 0 | 0.0 | 0.0 | 0.00 | 0.00 | 0.00 | 91 | 991.0 |
| 20260905120534 | 77 | 0 | 0.0 | 0.0 | 0.00 | 0.00 | 0.00 | 91 | 991.0 |
| 20260905120430 | 77 | 0 | 0.0 | 0.0 | 0.00 | 0.00 | 0.00 | 91 | 991.0 |
| 20260905120330 | 77 | 0 | 0.0 | 0.0 | 0.00 | 0.00 | 0.00 | 91 | 991.0 |
| 20260905120230 | 77 | 0 | 0.0 | 0.0 | 0.00 | 0.00 | 0.00 | 91 | 991.0 |
| 20260905120130 | 77 | 0 | 0.0 | 0.0 | 0.00 | 0.00 | 0.00 | 91 | 991.1 |
| 20260905120031 | 77 | 0 | 0.0 | 0.0 | 0.00 | 0.00 | 0.00 | 91 | 991.1 |
| 20260905120022 | 77 | 0 | 0.0 | 0.0 | 0.00 | 0.00 | 0.00 | 91 | 991.0 |
| 20260905115930 | 77 | 0 | 0.0 | 0.0 | 0.00 | 0.00 | 0.00 | 91 | 991.1 |
| 20260905115912 | 77 | 0 | 0.0 | 0.0 | 0.00 | 0.00 | 0.00 | 91 | 991.0 |
| 20260905115730 | 77 | 0 | 0.0 | 0.0 | 0.00 | 0.00 | 0.00 | 91 | 991.0 |
| 20260905115630 | 77 | 0 | 0.0 | 0.0 | 0.00 | 0.00 | 0.00 | 91 | 991.0 |
| 20260905115518 | 77 | 0 | 0.0 | 0.0 | 0.00 | 0.00 | 0.00 | 91 | 991.0 |
| 20260905115404 | 77 | 0 | 0.0 | 0.0 | 0.00 | 0.00 | 0.00 | 92 | 991.0 |
| 20260905115306 | 77 | 0 | 0.0 | 0.0 | 0.00 | 0.00 | 0.00 | 92 | 991.0 |
| 20260905115242 | 77 | 0 | 0.0 | 0.0 | 0.00 | 0.00 | 0.00 | 92 | 990.9 |
| 20260905115204 | 77 | 0 | 0.0 | 0.0 | 0.00 | 0.00 | 0.00 | 92 | 990.9 |
| 20260905115103 | 77 | 0 | 0.0 | 0.0 | 0.00 | 0.00 | 0.00 | 92 | 990.9 |
| 20260905115004 | 77 | 0 | 0.0 | 0.0 | 0.00 | 0.00 | 0.00 | 92 | 990.9 |
| 20260905114903 | 77 | 0 | 0.0 | 0.0 | 0.00 | 0.00 | 0.00 | 92 | 990.9 |
| 20260905114803 | 77 | 0 | 0.0 | 0.0 | 0.00 | 0.00 | 0.00 | 92 | 990.9 |
| 20260905114743 | 77 | 0 | 0.0 | 0.0 | 0.00 | 0.00 | 0.00 | 92 | 990.9 |
| 20260905114703 | 77 | 0 | 0.0 | 0.0 | 0.00 | 0.00 | 0.00 | 92 | 990.9 |
| 20260905114603 | 77 | 0 | 0.0 | 0.0 | 0.00 | 0.00 | 0.00 | 92 | 990.9 |
| 20260905114504 | 77 | 0 | 0.0 | 0.0 | 0.00 | 0.00 | 0.00 | 92 | 990.8 |
| 20260905114403 | 77 | 0 | 0.0 | 0.0 | 0.00 | 0.00 | 0.00 | 92 | 990.8 |
| 20260905114304 | 77 | 0 | 0.0 | 0.0 | 0.00 | 0.00 | 0.00 | 92 | 990.8 |
| 20260905114242 | 77 | 0 | 0.0 | 0.0 | 0.00 | 0.00 | 0.00 | 91 | 990.8 |
| 20260905114203 | 77 | 0 | 0.0 | 0.0 | 0.00 | 0.00 | 0.00 | 91 | 990.8 |
| 20260905114104 | 77 | 0 | 0.0 | 0.0 | 0.00 | 0.00 | 0.00 | 91 | 990.8 |
| 20260905114003 | 77 | 0 | 0.0 | 0.0 | 0.00 | 0.00 | 0.00 | 91 | 990.8 |
| 20260905113904 | 77 | 0 | 0.0 | 0.0 | 0.00 | 0.00 | 0.00 | 91 | 990.8 |
| 20260905113743 | 77 | 0 | 0.0 | 0.0 | 0.00 | 0.00 | 0.00 | 91 | 990.8 |
| 20260905113704 | 77 | 0 | 0.0 | 0.0 | 0.00 | 0.00 | 0.00 | 91 | 990.8 |
| 20260905113603 | 77 | 0 | 0.0 | 0.0 | 0.00 | 0.00 | 0.00 | 91 | 990.8 |
| 20260905113504 | 77 | 0 | 0.0 | 0.0 | 0.00 | 0.00 | 0.00 | 91 | 990.8 |
| 20260905113404 | 77 | 0 | 0.0 | 0.0 | 0.00 | 0.00 | 0.00 | 91 | 990.8 |
| 20260905113243 | 77 | 0 | 0.0 | 0.0 | 0.00 | 0.00 | 0.00 | 91 | 990.8 |
| 20260905113203 | 77 | 0 | 0.0 | 0.0 | 0.00 | 0.00 | 0.00 | 91 | 990.8 |
| 20260905113103 | 77 | 0 | 0.0 | 0.0 | 0.00 | 0.00 | 0.00 | 91 | 990.8 |
| 20260905113004 | 77 | 0 | 0.0 | 0.0 | 0.00 | 0.00 | 0.00 | 91 | 990.8 |
| 20260905112903 | 77 | 0 | 0.0 | 0.0 | 0.00 | 0.00 | 0.00 | 91 | 990.8 |
| 20260905112743 | 77 | 0 | 0.0 | 0.0 | 0.00 | 0.00 | 0.00 | 91 | 990.8 |
| 20260905112707 | 77 | 0 | 0.0 | 0.0 | 0.00 | 0.00 | 0.00 | 91 | 990.8 |
| 20260905112603 | 77 | 0 | 0.0 | 0.0 | 0.00 | 0.00 | 0.00 | 91 | 990.8 |
| 20260905112502 | 77 | 0 | 0.0 | 0.0 | 0.00 | 0.00 | 0.00 | 91 | 990.8 |
| 20260905112402 | 77 | 0 | 0.0 | 0.0 | 0.00 | 0.00 | 0.00 | 91 | 990.7 |
| 20260905112243 | 77 | 0 | 0.0 | 0.0 | 0.00 | 0.00 | 0.00 | 91 | 990.7 |
| 20260905112202 | 77 | 0 | 0.0 | 0.0 | 0.00 | 0.00 | 0.00 | 91 | 990.7 |
| 20260905112102 | 77 | 0 | 0.0 | 0.0 | 0.00 | 0.00 | 0.00 | 91 | 990.7 |
| 20260905112003 | 77 | 0 | 0.0 | 0.0 | 0.00 | 0.00 | 0.00 | 91 | 990.7 |
| 20260905111903 | 77 | 0 | 0.0 | 0.0 | 0.00 | 0.00 | 0.00 | 91 | 990.7 |
| 20260905111744 | 77 | 0 | 0.0 | 0.0 | 0.00 | 0.00 | 0.00 | 91 | 990.7 |
| 20260905111703 | 77 | 0 | 0.0 | 0.0 | 0.00 | 0.00 | 0.00 | 91 | 990.6 |
| 20260905111602 | 77 | 0 | 0.0 | 0.0 | 0.00 | 0.00 | 0.00 | 91 | 990.6 |
| 20260905111503 | 77 | 0 | 0.0 | 0.0 | 0.00 | 0.00 | 0.00 | 91 | 990.6 |
| 20260905111402 | 77 | 0 | 0.0 | 0.0 | 0.00 | 0.00 | 0.00 | 91 | 990.6 |
| 20260905111243 | 77 | 0 | 0.0 | 0.0 | 0.00 | 0.00 | 0.00 | 91 | 990.6 |
| 20260905111203 | 77 | 0 | 0.0 | 0.0 | 0.00 | 0.00 | 0.00 | 91 | 990.6 |
| 20260905111102 | 77 | 0 | 0.0 | 0.0 | 0.00 | 0.00 | 0.00 | 91 | 990.6 |
| 20260905111003 | 77 | 0 | 0.0 | 0.0 | 0.00 | 0.00 | 0.00 | 91 | 990.7 |
| 20260905110850 | 77 | 0 | 0.0 | 0.0 | 0.00 | 0.00 | 0.00 | 91 | 990.7 |
| 20260905110749 | 77 | 0 | 0.0 | 0.9 | 0.00 | 0.00 | 0.00 | 91 | 990.7 |
| 20260905110649 | 77 | 0 | 0.0 | 0.9 | 0.00 | 0.00 | 0.00 | 91 | 990.6 |
| 20260905110549 | 77 | 0 | 0.0 | 0.9 | 0.00 | 0.00 | 0.00 | 91 | 990.6 |
| 20260905110449 | 77 | 0 | 0.0 | 0.9 | 0.00 | 0.00 | 0.00 | 91 | 990.6 |
| 20260905110349 | 77 | 0 | 0.0 | 0.9 | 0.00 | 0.00 | 0.00 | 91 | 990.6 |
| 20260905110249 | 77 | 0 | 0.0 | 0.9 | 0.00 | 0.00 | 0.00 | 91 | 990.6 |
| 20260905110149 | 77 | 0 | 0.0 | 0.9 | 0.00 | 0.00 | 0.00 | 91 | 990.6 |
| 20260905110050 | 77 | 0 | 0.0 | 0.9 | 0.00 | 0.00 | 0.00 | 91 | 990.6 |
| 20260905105949 | 77 | 0 | 0.0 | 0.9 | 0.00 | 0.00 | 0.00 | 91 | 990.6 |
| 20260905105849 | 77 | 0 | 0.0 | 0.9 | 0.00 | 0.00 | 0.00 | 91 | 990.6 |
| 20260905105735 | 77 | 0 | 0.0 | 0.9 | 0.00 | 0.00 | 0.00 | 91 | 990.6 |
| 20260905105637 | 77 | 0 | 0.0 | 0.0 | 0.00 | 0.00 | 0.00 | 91 | 990.6 |
| 20260905105522 | 78 | 0 | 0.0 | 0.0 | 0.00 | 0.00 | 0.00 | 91 | 990.6 |
| 20260905105446 | 78 | 0 | 0.0 | 0.0 | 0.00 | 0.00 | 0.00 | 90 | 990.6 |
| 20260905105416 | 78 | 0 | 0.0 | 0.0 | 0.00 | 0.00 | 0.00 | 91 | 990.6 |
| 20260905105344 | 78 | 0 | 0.0 | 0.0 | 0.00 | 0.00 | 0.00 | 90 | 990.6 |
| 20260905105216 | 78 | 0 | 0.0 | 0.0 | 0.00 | 0.00 | 0.00 | 90 | 990.6 |
| 20260905105116 | 78 | 0 | 0.0 | 0.0 | 0.00 | 0.00 | 0.00 | 90 | 990.6 |
| 20260905105016 | 78 | 0 | 0.0 | 0.0 | 0.00 | 0.00 | 0.00 | 90 | 990.6 |
| 20260905104917 | 78 | 0 | 0.0 | 0.0 | 0.00 | 0.00 | 0.00 | 90 | 990.6 |
| 20260905104816 | 78 | 0 | 0.0 | 0.0 | 0.00 | 0.00 | 0.00 | 90 | 990.6 |
| 20260905104717 | 78 | 0 | 0.0 | 0.0 | 0.00 | 0.00 | 0.00 | 90 | 990.6 |
| 20260905104617 | 78 | 0 | 0.0 | 0.0 | 0.00 | 0.00 | 0.00 | 90 | 990.6 |
| 20260905104516 | 78 | 0 | 0.0 | 0.0 | 0.00 | 0.00 | 0.00 | 90 | 990.6 |
| 20260905104416 | 78 | 0 | 0.0 | 0.0 | 0.00 | 0.00 | 0.00 | 90 | 990.6 |
| 20260905104316 | 78 | 0 | 0.0 | 0.0 | 0.00 | 0.00 | 0.00 | 90 | 990.6 |
| 20260905104225 | 78 | 0 | 0.0 | 0.0 | 0.00 | 0.00 | 0.00 | 90 | 990.7 |
| 20260905104116 | 78 | 0 | 0.0 | 0.0 | 0.00 | 0.00 | 0.00 | 90 | 990.7 |
| 20260905104017 | 78 | 0 | 0.0 | 0.0 | 0.00 | 0.00 | 0.00 | 90 | 990.7 |
| 20260905103916 | 78 | 0 | 0.0 | 0.0 | 0.00 | 0.00 | 0.00 | 90 | 990.7 |
| 20260905103817 | 78 | 0 | 0.0 | 0.0 | 0.00 | 0.00 | 0.00 | 90 | 990.7 |
| 20260905103717 | 78 | 0 | 0.0 | 0.0 | 0.00 | 0.00 | 0.00 | 90 | 990.7 |
| 20260905103617 | 78 | 0 | 0.0 | 0.0 | 0.00 | 0.00 | 0.00 | 90 | 990.7 |
| 20260905103516 | 78 | 0 | 0.0 | 0.0 | 0.00 | 0.00 | 0.00 | 90 | 990.7 |
| 20260905103416 | 78 | 0 | 0.0 | 0.0 | 0.00 | 0.00 | 0.00 | 90 | 990.7 |
| 20260905103316 | 78 | 0 | 0.0 | 0.0 | 0.00 | 0.00 | 0.00 | 90 | 990.7 |
| 20260905103222 | 78 | 0 | 0.0 | 0.0 | 0.00 | 0.00 | 0.00 | 90 | 990.6 |
| 20260905103216 | 78 | 0 | 0.0 | 0.0 | 0.00 | 0.00 | 0.00 | 90 | 990.7 |
| 20260905103121 | 78 | 0 | 0.0 | 0.0 | 0.00 | 0.00 | 0.00 | 90 | 990.7 |
| 20260905103109 | 78 | 0 | 0.0 | 0.0 | 0.00 | 0.00 | 0.00 | 90 | 990.7 |
| 20260905102917 | 78 | 0 | 0.0 | 0.0 | 0.00 | 0.00 | 0.00 | 90 | 990.7 |
| 20260905102845 | 78 | 0 | 0.0 | 0.0 | 0.00 | 0.00 | 0.00 | 90 | 990.7 |
| 20260905102717 | 78 | 0 | 0.0 | 0.0 | 0.00 | 0.00 | 0.00 | 90 | 990.6 |
| 20260905102616 | 78 | 0 | 0.0 | 0.0 | 0.00 | 0.00 | 0.00 | 90 | 990.6 |
| 20260905102516 | 78 | 0 | 0.0 | 0.0 | 0.00 | 0.00 | 0.00 | 90 | 990.6 |
| 20260905102417 | 78 | 0 | 0.0 | 0.0 | 0.00 | 0.00 | 0.00 | 90 | 990.6 |
| 20260905102317 | 78 | 0 | 0.0 | 0.0 | 0.00 | 0.00 | 0.00 | 90 | 990.6 |
| 20260905102216 | 78 | 0 | 0.0 | 0.0 | 0.00 | 0.00 | 0.00 | 90 | 990.7 |
| 20260905102117 | 78 | 0 | 0.0 | 0.0 | 0.00 | 0.00 | 0.00 | 90 | 990.7 |
| 20260905102017 | 78 | 0 | 0.0 | 0.0 | 0.00 | 0.00 | 0.00 | 90 | 990.7 |
| 20260905101917 | 78 | 0 | 0.0 | 0.0 | 0.00 | 0.00 | 0.00 | 90 | 990.7 |
| 20260905101817 | 78 | 0 | 0.0 | 0.0 | 0.00 | 0.00 | 0.00 | 90 | 990.7 |
| 20260905101717 | 78 | 0 | 0.0 | 0.0 | 0.00 | 0.00 | 0.00 | 90 | 990.7 |
| 20260905101617 | 78 | 0 | 0.0 | 0.0 | 0.00 | 0.00 | 0.00 | 90 | 990.7 |
| 20260905101517 | 78 | 0 | 0.0 | 0.0 | 0.00 | 0.00 | 0.00 | 90 | 990.7 |
| 20260905101417 | 78 | 0 | 0.0 | 0.0 | 0.00 | 0.00 | 0.00 | 90 | 990.7 |
| 20260905101317 | 78 | 0 | 0.0 | 0.0 | 0.00 | 0.00 | 0.00 | 90 | 990.7 |
| 20260905101216 | 78 | 0 | 0.0 | 0.0 | 0.00 | 0.00 | 0.00 | 90 | 990.8 |
| 20260905101117 | 78 | 0 | 0.0 | 0.0 | 0.00 | 0.00 | 0.00 | 90 | 990.8 |
| 20260905101017 | 78 | 0 | 0.0 | 0.0 | 0.00 | 0.00 | 0.00 | 90 | 990.8 |
| 20260905100952 | 78 | 0 | 0.0 | 0.0 | 0.00 | 0.00 | 0.00 | 90 | 990.8 |
| 20260905100917 | 78 | 0 | 0.0 | 0.0 | 0.00 | 0.00 | 0.00 | 90 | 990.8 |
| 20260905100845 | 78 | 0 | 0.0 | 0.0 | 0.00 | 0.00 | 0.00 | 90 | 990.8 |
| 20260905100717 | 78 | 0 | 0.0 | 0.0 | 0.00 | 0.00 | 0.00 | 90 | 990.8 |
| 20260905100617 | 78 | 0 | 0.0 | 0.0 | 0.00 | 0.00 | 0.00 | 90 | 990.8 |
| 20260905100517 | 78 | 0 | 0.0 | 0.0 | 0.00 | 0.00 | 0.00 | 90 | 990.8 |
| 20260905100417 | 78 | 0 | 0.0 | 0.0 | 0.00 | 0.00 | 0.00 | 90 | 990.8 |
| 20260905100317 | 78 | 0 | 0.0 | 0.0 | 0.00 | 0.00 | 0.00 | 90 | 990.8 |
| 20260905100217 | 78 | 0 | 0.0 | 0.0 | 0.00 | 0.00 | 0.00 | 90 | 990.8 |
| 20260905100117 | 78 | 0 | 0.0 | 0.0 | 0.00 | 0.00 | 0.00 | 90 | 990.8 |
| 20260905100017 | 78 | 0 | 0.0 | 0.0 | 0.00 | 0.00 | 0.00 | 90 | 990.8 |
| 20260905095953 | 78 | 0 | 0.0 | 0.0 | 0.00 | 0.00 | 0.00 | 90 | 990.8 |
| 20260905095917 | 78 | 0 | 0.0 | 0.0 | 0.00 | 0.00 | 0.00 | 90 | 990.8 |
| 20260905095844 | 78 | 0 | 0.0 | 0.0 | 0.00 | 0.00 | 0.00 | 90 | 990.8 |
| 20260905095717 | 78 | 0 | 0.0 | 0.0 | 0.00 | 0.00 | 0.00 | 90 | 990.8 |
| 20260905095603 | 78 | 0 | 0.0 | 0.0 | 0.00 | 0.00 | 0.00 | 90 | 990.8 |
| 20260905095503 | 78 | 0 | 0.0 | 0.0 | 0.00 | 0.00 | 0.00 | 90 | 990.8 |
| 20260905095404 | 78 | 0 | 0.0 | 0.0 | 0.00 | 0.00 | 0.00 | 90 | 990.8 |
| 20260905095305 | 78 | 0 | 0.0 | 0.0 | 0.00 | 0.00 | 0.00 | 90 | 990.7 |
| 20260905095221 | 78 | 0 | 0.0 | 0.0 | 0.00 | 0.00 | 0.00 | 90 | 990.7 |
| 20260905095203 | 78 | 0 | 0.0 | 0.0 | 0.00 | 0.00 | 0.00 | 90 | 990.7 |
| 20260905095103 | 78 | 0 | 0.0 | 0.0 | 0.00 | 0.00 | 0.00 | 90 | 990.7 |
| 20260905095003 | 78 | 0 | 0.0 | 0.0 | 0.00 | 0.00 | 0.00 | 90 | 990.7 |
| 20260905094903 | 78 | 0 | 0.0 | 0.0 | 0.00 | 0.00 | 0.00 | 90 | 990.7 |
| 20260905094803 | 78 | 0 | 0.0 | 0.0 | 0.00 | 0.00 | 0.00 | 90 | 990.7 |
| 20260905094718 | 78 | 0 | 0.0 | 0.0 | 0.00 | 0.00 | 0.00 | 90 | 990.7 |
| 20260905094703 | 78 | 0 | 0.0 | 0.0 | 0.00 | 0.00 | 0.00 | 90 | 990.7 |
| 20260905094603 | 78 | 0 | 0.0 | 0.0 | 0.00 | 0.00 | 0.00 | 90 | 990.7 |
| 20260905094503 | 78 | 0 | 0.0 | 0.0 | 0.00 | 0.00 | 0.00 | 90 | 990.7 |
| 20260905094403 | 78 | 0 | 0.0 | 0.0 | 0.00 | 0.00 | 0.00 | 90 | 990.7 |
| 20260905094303 | 78 | 0 | 0.0 | 0.0 | 0.00 | 0.00 | 0.00 | 90 | 990.7 |
| 20260905094222 | 78 | 0 | 0.0 | 0.0 | 0.00 | 0.00 | 0.00 | 90 | 990.7 |
| 20260905094203 | 78 | 0 | 0.0 | 0.0 | 0.00 | 0.00 | 0.00 | 90 | 990.7 |
| 20260905094103 | 78 | 0 | 0.0 | 0.0 | 0.00 | 0.00 | 0.00 | 89 | 990.7 |
| 20260905094003 | 78 | 0 | 0.0 | 0.0 | 0.00 | 0.00 | 0.00 | 89 | 990.7 |
| 20260905093903 | 78 | 0 | 0.0 | 0.9 | 0.00 | 0.00 | 0.00 | 89 | 990.7 |
| 20260905093804 | 78 | 0 | 0.0 | 0.9 | 0.00 | 0.00 | 0.00 | 89 | 990.7 |
| 20260905093717 | 78 | 0 | 0.0 | 0.9 | 0.00 | 0.00 | 0.00 | 89 | 990.7 |
| 20260905093703 | 78 | 0 | 0.0 | 0.9 | 0.00 | 0.00 | 0.00 | 89 | 990.7 |
| 20260905093603 | 78 | 0 | 0.0 | 0.9 | 0.00 | 0.00 | 0.00 | 89 | 990.7 |
| 20260905093502 | 78 | 0 | 0.0 | 0.9 | 0.00 | 0.00 | 0.00 | 89 | 990.7 |
| 20260905093403 | 78 | 0 | 0.0 | 0.9 | 0.00 | 0.00 | 0.00 | 89 | 990.7 |
| 20260905093334 | 78 | 0 | 0.0 | 0.9 | 0.00 | 0.00 | 0.00 | 89 | 990.7 |
| 20260905093221 | 78 | 0 | 0.0 | 0.9 | 0.00 | 0.00 | 0.00 | 89 | 990.7 |
| 20260905093203 | 78 | 0 | 0.0 | 0.9 | 0.00 | 0.00 | 0.00 | 89 | 990.7 |
| 20260905093103 | 78 | 351 | 0.0 | 0.9 | 0.00 | 0.00 | 0.00 | 89 | 990.7 |
| 20260905093001 | 78 | 351 | 0.0 | 0.9 | 0.00 | 0.00 | 0.00 | 89 | 990.7 |
| 20260905092901 | 78 | 0 | 0.0 | 0.0 | 0.00 | 0.00 | 0.00 | 89 | 990.7 |
| 20260905092801 | 78 | 0 | 0.0 | 0.0 | 0.00 | 0.00 | 0.00 | 89 | 990.7 |
| 20260905092721 | 78 | 0 | 0.0 | 0.0 | 0.00 | 0.00 | 0.00 | 89 | 990.7 |
| 20260905092701 | 78 | 0 | 0.0 | 0.0 | 0.00 | 0.00 | 0.00 | 89 | 990.7 |
| 20260905092601 | 78 | 0 | 0.0 | 0.0 | 0.00 | 0.00 | 0.00 | 89 | 990.7 |
| 20260905092501 | 78 | 0 | 0.0 | 0.0 | 0.00 | 0.00 | 0.00 | 89 | 990.7 |
| 20260905092401 | 78 | 0 | 0.0 | 0.0 | 0.00 | 0.00 | 0.00 | 89 | 990.7 |
| 20260905092301 | 78 | 0 | 0.0 | 0.0 | 0.00 | 0.00 | 0.00 | 88 | 990.7 |
| 20260905092219 | 78 | 0 | 0.0 | 0.0 | 0.00 | 0.00 | 0.00 | 88 | 990.7 |
| 20260905092202 | 78 | 0 | 0.0 | 0.0 | 0.00 | 0.00 | 0.00 | 88 | 990.7 |
| 20260905092101 | 78 | 0 | 0.0 | 0.0 | 0.00 | 0.00 | 0.00 | 88 | 990.7 |
| 20260905092001 | 78 | 0 | 0.0 | 0.0 | 0.00 | 0.00 | 0.00 | 88 | 990.7 |
| 20260905091902 | 78 | 8 | 0.0 | 0.0 | 0.00 | 0.00 | 0.00 | 88 | 990.7 |
| 20260905091802 | 78 | 0 | 0.0 | 0.0 | 0.00 | 0.00 | 0.00 | 88 | 990.7 |
| 20260905091719 | 78 | 0 | 0.0 | 0.0 | 0.00 | 0.00 | 0.00 | 88 | 990.7 |
| 20260905091701 | 78 | 0 | 0.0 | 0.0 | 0.00 | 0.00 | 0.00 | 88 | 990.7 |
| 20260905091602 | 78 | 0 | 0.0 | 0.0 | 0.00 | 0.00 | 0.00 | 88 | 990.7 |
| 20260905091502 | 78 | 0 | 0.0 | 0.0 | 0.00 | 0.00 | 0.00 | 88 | 990.7 |
| 20260905091402 | 78 | 0 | 0.0 | 0.0 | 0.00 | 0.00 | 0.00 | 88 | 990.7 |
| 20260905091301 | 78 | 0 | 0.0 | 0.0 | 0.00 | 0.00 | 0.00 | 88 | 990.7 |
| 20260905091219 | 78 | 0 | 0.0 | 0.0 | 0.00 | 0.00 | 0.00 | 88 | 990.7 |
| 20260905091201 | 78 | 0 | 0.0 | 0.0 | 0.00 | 0.00 | 0.00 | 88 | 990.7 |
| 20260905091101 | 79 | 0 | 0.0 | 0.0 | 0.00 | 0.00 | 0.00 | 88 | 990.7 |
| 20260905091002 | 79 | 0 | 0.0 | 0.0 | 0.00 | 0.00 | 0.00 | 88 | 990.7 |
| 20260905090902 | 79 | 0 | 0.0 | 0.0 | 0.00 | 0.00 | 0.00 | 88 | 990.7 |
| 20260905090802 | 79 | 0 | 0.0 | 0.0 | 0.00 | 0.00 | 0.00 | 88 | 990.7 |
| 20260905090718 | 79 | 0 | 0.0 | 0.0 | 0.00 | 0.00 | 0.00 | 88 | 990.7 |
| 20260905090701 | 79 | 0 | 0.0 | 0.0 | 0.00 | 0.00 | 0.00 | 88 | 990.7 |
| 20260905090602 | 79 | 0 | 0.0 | 0.0 | 0.00 | 0.00 | 0.00 | 88 | 990.6 |
| 20260905090501 | 79 | 0 | 0.0 | 0.0 | 0.00 | 0.00 | 0.00 | 88 | 990.6 |
| 20260905090402 | 79 | 0 | 0.0 | 0.0 | 0.00 | 0.00 | 0.00 | 88 | 990.6 |
| 20260905090302 | 79 | 0 | 0.0 | 0.0 | 0.00 | 0.00 | 0.00 | 88 | 990.6 |
| 20260905090219 | 79 | 0 | 0.0 | 0.0 | 0.00 | 0.00 | 0.00 | 88 | 990.6 |
| 20260905090201 | 79 | 0 | 0.0 | 0.0 | 0.00 | 0.00 | 0.00 | 88 | 990.6 |
| 20260905090002 | 79 | 0 | 0.0 | 0.0 | 0.00 | 0.00 | 0.00 | 88 | 990.7 |
| 20260905085902 | 79 | 0 | 0.0 | 0.0 | 0.00 | 0.00 | 0.00 | 88 | 990.7 |
| 20260905085752 | 79 | 0 | 0.0 | 0.0 | 0.00 | 0.00 | 0.00 | 88 | 990.7 |
| 20260905085708 | 79 | 0 | 0.0 | 0.0 | 0.00 | 0.00 | 0.00 | 88 | 990.7 |
| 20260905085646 | 79 | 0 | 0.0 | 0.0 | 0.00 | 0.00 | 0.00 | 88 | 990.8 |
| 20260905085546 | 79 | 0 | 0.0 | 0.0 | 0.00 | 0.00 | 0.00 | 88 | 990.8 |
| 20260905085445 | 79 | 0 | 0.0 | 0.0 | 0.00 | 0.00 | 0.00 | 88 | 990.8 |
| 20260905085346 | 79 | 0 | 0.0 | 0.0 | 0.00 | 0.00 | 0.00 | 88 | 990.8 |
| 20260905085245 | 79 | 0 | 0.0 | 0.0 | 0.00 | 0.00 | 0.00 | 88 | 990.8 |
| 20260905085203 | 79 | 0 | 0.0 | 0.0 | 0.00 | 0.00 | 0.00 | 88 | 990.8 |
| 20260905085146 | 79 | 0 | 0.0 | 0.0 | 0.00 | 0.00 | 0.00 | 88 | 990.8 |
| 20260905085045 | 79 | 0 | 0.0 | 0.0 | 0.00 | 0.00 | 0.00 | 88 | 990.8 |
| 20260905084946 | 79 | 0 | 0.0 | 0.0 | 0.00 | 0.00 | 0.00 | 88 | 990.8 |
| 20260905084846 | 79 | 0 | 0.0 | 0.0 | 0.00 | 0.00 | 0.00 | 88 | 990.8 |
| 20260905084745 | 79 | 0 | 0.0 | 0.0 | 0.00 | 0.00 | 0.00 | 88 | 990.9 |
| 20260905084704 | 79 | 0 | 0.0 | 0.0 | 0.00 | 0.00 | 0.00 | 88 | 990.9 |
| 20260905084646 | 79 | 0 | 0.0 | 0.0 | 0.00 | 0.00 | 0.00 | 88 | 990.8 |
| 20260905084546 | 79 | 0 | 0.0 | 0.0 | 0.00 | 0.00 | 0.00 | 88 | 990.9 |
| 20260905084446 | 79 | 0 | 0.0 | 0.0 | 0.00 | 0.00 | 0.00 | 88 | 990.9 |
| 20260905084346 | 79 | 0 | 0.0 | 0.0 | 0.00 | 0.00 | 0.00 | 88 | 990.8 |
| 20260905084245 | 79 | 0 | 0.0 | 0.0 | 0.00 | 0.00 | 0.00 | 88 | 990.8 |
| 20260905084204 | 79 | 0 | 0.0 | 0.0 | 0.00 | 0.00 | 0.00 | 88 | 990.8 |
| 20260905084145 | 79 | 0 | 0.0 | 0.0 | 0.00 | 0.00 | 0.00 | 88 | 990.8 |
| 20260905084046 | 79 | 0 | 0.0 | 0.0 | 0.00 | 0.00 | 0.00 | 88 | 990.8 |
| 20260905083946 | 79 | 0 | 0.0 | 0.0 | 0.00 | 0.00 | 0.00 | 87 | 990.8 |
| 20260905083846 | 79 | 0 | 0.0 | 0.0 | 0.00 | 0.00 | 0.00 | 87 | 990.8 |
| 20260905083746 | 79 | 0 | 0.0 | 0.0 | 0.00 | 0.00 | 0.00 | 87 | 990.8 |
| 20260905083704 | 79 | 0 | 0.0 | 0.0 | 0.00 | 0.00 | 0.00 | 87 | 990.8 |
| 20260905083645 | 79 | 0 | 0.0 | 0.0 | 0.00 | 0.00 | 0.00 | 87 | 990.9 |
| 20260905083546 | 79 | 0 | 0.0 | 0.0 | 0.00 | 0.00 | 0.00 | 87 | 990.9 |
| 20260905083446 | 79 | 0 | 0.0 | 0.0 | 0.00 | 0.00 | 0.00 | 87 | 990.9 |
| 20260905083426 | 79 | 0 | 0.0 | 0.0 | 0.00 | 0.00 | 0.00 | 87 | 990.9 |
| 20260905083346 | 79 | 0 | 0.0 | 0.0 | 0.00 | 0.00 | 0.00 | 87 | 990.9 |
| 20260905083315 | 79 | 0 | 0.0 | 0.0 | 0.00 | 0.00 | 0.00 | 87 | 990.9 |
| 20260905083146 | 79 | 0 | 0.0 | 0.0 | 0.00 | 0.00 | 0.00 | 87 | 990.9 |
| 20260905083046 | 79 | 0 | 0.0 | 0.0 | 0.00 | 0.00 | 0.00 | 87 | 990.8 |
| 20260905082946 | 79 | 0 | 0.0 | 0.0 | 0.00 | 0.00 | 0.00 | 87 | 990.8 |
| 20260905082846 | 79 | 0 | 0.0 | 0.0 | 0.00 | 0.00 | 0.00 | 87 | 990.8 |
| 20260905082747 | 79 | 0 | 0.0 | 0.0 | 0.00 | 0.00 | 0.00 | 87 | 990.8 |
| 20260905082647 | 79 | 0 | 0.0 | 0.0 | 0.00 | 0.00 | 0.00 | 87 | 990.8 |
| 20260905082546 | 79 | 0 | 0.0 | 0.0 | 0.00 | 0.00 | 0.00 | 87 | 990.8 |
| 20260905082446 | 79 | 0 | 0.0 | 0.0 | 0.00 | 0.00 | 0.00 | 87 | 990.8 |
| 20260905082346 | 79 | 0 | 0.0 | 0.0 | 0.00 | 0.00 | 0.00 | 87 | 990.8 |
| 20260905082246 | 79 | 0 | 0.0 | 0.0 | 0.00 | 0.00 | 0.00 | 87 | 990.8 |
| 20260905082146 | 79 | 0 | 0.0 | 0.0 | 0.00 | 0.00 | 0.00 | 87 | 990.8 |
| 20260905082046 | 79 | 0 | 0.0 | 0.0 | 0.00 | 0.00 | 0.00 | 87 | 990.8 |
| 20260905081946 | 79 | 0 | 0.0 | 0.0 | 0.00 | 0.00 | 0.00 | 87 | 990.8 |
| 20260905081846 | 79 | 0 | 0.0 | 0.0 | 0.00 | 0.00 | 0.00 | 87 | 990.8 |
| 20260905081746 | 79 | 0 | 0.0 | 0.0 | 0.00 | 0.00 | 0.00 | 87 | 990.9 |
| 20260905081647 | 79 | 0 | 0.0 | 0.0 | 0.00 | 0.00 | 0.00 | 87 | 990.9 |
| 20260905081643 | 80 | 0 | 0.0 | 0.0 | 0.00 | 0.00 | 0.00 | 87 | 990.9 |
| 20260905081551 | 79 | 0 | 0.0 | 0.0 | 0.00 | 0.00 | 0.00 | 87 | 990.9 |
| 20260905081535 | 79 | 0 | 0.0 | 0.0 | 0.00 | 0.00 | 0.00 | 87 | 990.9 |
| 20260905081346 | 79 | 0 | 0.0 | 0.0 | 0.00 | 0.00 | 0.00 | 87 | 990.9 |
| 20260905081316 | 80 | 0 | 0.0 | 0.0 | 0.00 | 0.00 | 0.00 | 87 | 990.9 |
| 20260905081147 | 80 | 0 | 0.0 | 0.0 | 0.00 | 0.00 | 0.00 | 87 | 990.9 |
| 20260905081046 | 80 | 0 | 0.0 | 0.0 | 0.00 | 0.00 | 0.00 | 87 | 990.9 |
| 20260905080946 | 80 | 0 | 0.0 | 0.0 | 0.00 | 0.00 | 0.00 | 87 | 990.9 |
| 20260905080846 | 80 | 0 | 0.0 | 0.0 | 0.00 | 0.00 | 0.00 | 87 | 990.9 |
| 20260905080746 | 80 | 0 | 0.0 | 0.0 | 0.00 | 0.00 | 0.00 | 87 | 990.9 |
| 20260905080647 | 80 | 0 | 0.0 | 0.0 | 0.00 | 0.00 | 0.00 | 87 | 990.9 |
| 20260905080547 | 80 | 0 | 0.0 | 0.0 | 0.00 | 0.00 | 0.00 | 87 | 990.9 |
| 20260905080447 | 80 | 0 | 0.0 | 0.0 | 0.00 | 0.00 | 0.00 | 87 | 990.9 |
| 20260905080346 | 80 | 0 | 0.0 | 0.0 | 0.00 | 0.00 | 0.00 | 87 | 990.9 |
| 20260905080247 | 80 | 0 | 0.0 | 0.0 | 0.00 | 0.00 | 0.00 | 87 | 990.9 |
| 20260905080147 | 80 | 0 | 0.0 | 0.0 | 0.00 | 0.00 | 0.00 | 86 | 990.9 |
| 20260905080046 | 80 | 0 | 0.0 | 0.0 | 0.00 | 0.00 | 0.00 | 86 | 990.9 |
| 20260905075936 | 80 | 1 | 0.0 | 0.0 | 0.00 | 0.00 | 0.00 | 86 | 990.9 |
| 20260905075820 | 80 | 0 | 0.0 | 0.0 | 0.00 | 0.00 | 0.00 | 86 | 990.9 |
| 20260905075722 | 80 | 0 | 0.0 | 0.0 | 0.00 | 0.00 | 0.00 | 86 | 990.9 |
| 20260905075702 | 80 | 0 | 0.0 | 0.0 | 0.00 | 0.00 | 0.00 | 86 | 990.9 |
| 20260905075621 | 80 | 0 | 0.0 | 0.0 | 0.00 | 0.00 | 0.00 | 86 | 990.9 |
| 20260905075521 | 80 | 0 | 0.0 | 0.0 | 0.00 | 0.00 | 0.00 | 86 | 990.9 |
| 20260905075437 | 80 | 0 | 0.0 | 0.0 | 0.00 | 0.00 | 0.00 | 86 | 991.0 |
| 20260905075340 | 80 | 0 | 0.0 | 0.0 | 0.00 | 0.00 | 0.00 | 86 | 991.0 |
| 20260905075327 | 80 | 0 | 0.0 | 0.0 | 0.00 | 0.00 | 0.00 | 86 | 991.0 |
| 20260905075121 | 80 | 0 | 0.0 | 0.0 | 0.00 | 0.00 | 0.00 | 86 | 991.0 |
| 20260905075020 | 80 | 0 | 0.0 | 0.0 | 0.00 | 0.00 | 0.00 | 86 | 991.0 |
| 20260905074921 | 80 | 0 | 0.0 | 0.0 | 0.00 | 0.00 | 0.00 | 86 | 991.0 |
| 20260905074821 | 80 | 0 | 0.0 | 0.0 | 0.00 | 0.00 | 0.00 | 86 | 991.1 |
| 20260905074721 | 80 | 0 | 0.0 | 0.0 | 0.00 | 0.00 | 0.00 | 87 | 991.1 |
| 20260905074702 | 80 | 0 | 0.0 | 0.0 | 0.00 | 0.00 | 0.00 | 87 | 991.1 |
| 20260905074621 | 80 | 0 | 0.0 | 0.0 | 0.00 | 0.00 | 0.00 | 87 | 991.1 |
| 20260905074521 | 80 | 0 | 0.0 | 0.0 | 0.00 | 0.00 | 0.00 | 87 | 991.1 |
| 20260905074426 | 80 | 0 | 0.0 | 0.0 | 0.00 | 0.00 | 0.00 | 87 | 991.1 |
| 20260905074420 | 80 | 0 | 0.0 | 0.0 | 0.00 | 0.00 | 0.00 | 87 | 991.1 |
| 20260905074325 | 80 | 0 | 0.0 | 0.0 | 0.00 | 0.00 | 0.00 | 87 | 991.1 |
| 20260905074312 | 80 | 0 | 0.0 | 0.0 | 0.00 | 0.00 | 0.00 | 87 | 991.1 |
| 20260905074259 | 80 | 0 | 0.0 | 0.0 | 0.00 | 0.00 | 0.00 | 87 | 991.1 |
| 20260905074121 | 80 | 0 | 0.0 | 0.0 | 0.00 | 0.00 | 0.00 | 87 | 991.1 |
| 20260905074100 | 80 | 0 | 0.0 | 0.0 | 0.00 | 0.00 | 0.00 | 87 | 991.1 |
| 20260905073921 | 80 | 0 | 0.0 | 0.0 | 0.00 | 0.00 | 0.00 | 87 | 991.1 |
| 20260905073827 | 80 | 0 | 0.0 | 0.0 | 0.00 | 0.00 | 0.00 | 87 | 991.1 |
| 20260905073810 | 80 | 0 | 0.0 | 0.0 | 0.00 | 0.00 | 0.00 | 87 | 991.1 |
| 20260905073608 | 80 | 0 | 0.0 | 0.0 | 0.00 | 0.00 | 0.00 | 87 | 991.1 |
| 20260905073508 | 80 | 0 | 0.0 | 0.0 | 0.00 | 0.00 | 0.00 | 87 | 991.1 |
| 20260905073409 | 80 | 0 | 0.0 | 0.0 | 0.00 | 0.00 | 0.00 | 87 | 991.1 |
| 20260905073309 | 80 | 0 | 0.0 | 0.0 | 0.00 | 0.00 | 0.00 | 87 | 991.1 |
| 20260905073210 | 80 | 0 | 0.0 | 0.0 | 0.00 | 0.00 | 0.00 | 87 | 991.1 |
| 20260905073202 | 80 | 0 | 0.0 | 0.0 | 0.00 | 0.00 | 0.00 | 87 | 991.1 |
| 20260905073108 | 80 | 0 | 0.0 | 0.0 | 0.00 | 0.00 | 0.00 | 87 | 991.1 |
| 20260905073008 | 80 | 0 | 0.0 | 0.0 | 0.00 | 0.00 | 0.00 | 87 | 991.1 |
| 20260905072906 | 80 | 0 | 0.0 | 0.0 | 0.00 | 0.00 | 0.00 | 87 | 991.1 |
| 20260905072805 | 80 | 0 | 0.0 | 0.0 | 0.00 | 0.00 | 0.00 | 87 | 991.1 |
| 20260905072708 | 80 | 0 | 0.0 | 0.0 | 0.00 | 0.00 | 0.00 | 87 | 991.1 |
| 20260905072701 | 80 | 0 | 0.0 | 0.0 | 0.00 | 0.00 | 0.00 | 87 | 991.1 |
| 20260905072605 | 80 | 0 | 0.0 | 0.0 | 0.00 | 0.00 | 0.00 | 87 | 991.1 |
| 20260905072506 | 80 | 0 | 0.0 | 0.0 | 0.00 | 0.00 | 0.00 | 87 | 991.1 |
| 20260905072405 | 80 | 0 | 0.0 | 0.0 | 0.00 | 0.00 | 0.00 | 87 | 991.1 |
| 20260905072307 | 80 | 0 | 0.0 | 0.0 | 0.00 | 0.00 | 0.00 | 87 | 991.1 |
| 20260905072208 | 80 | 0 | 0.0 | 0.0 | 0.00 | 0.00 | 0.00 | 87 | 991.1 |
| 20260905072201 | 80 | 0 | 0.0 | 0.0 | 0.00 | 0.00 | 0.00 | 87 | 991.1 |
| 20260905072106 | 80 | 0 | 0.0 | 0.0 | 0.00 | 0.00 | 0.00 | 87 | 991.1 |
| 20260905072005 | 80 | 0 | 0.0 | 0.0 | 0.00 | 0.00 | 0.00 | 87 | 991.1 |
| 20260905071905 | 80 | 0 | 0.0 | 0.0 | 0.00 | 0.00 | 0.00 | 87 | 991.1 |
| 20260905071805 | 80 | 0 | 0.0 | 0.0 | 0.00 | 0.00 | 0.00 | 87 | 991.1 |
| 20260905071721 | 80 | 0 | 0.0 | 0.0 | 0.00 | 0.00 | 0.00 | 86 | 991.1 |
| 20260905071714 | 80 | 0 | 0.0 | 0.0 | 0.00 | 0.00 | 0.00 | 86 | 991.1 |
| 20260905071605 | 80 | 0 | 0.0 | 0.0 | 0.00 | 0.00 | 0.00 | 86 | 991.1 |
| 20260905071505 | 80 | 0 | 0.0 | 0.0 | 0.00 | 0.00 | 0.00 | 86 | 991.1 |
| 20260905071405 | 80 | 0 | 0.0 | 0.0 | 0.00 | 0.00 | 0.00 | 86 | 991.1 |
| 20260905071305 | 80 | 0 | 0.0 | 0.0 | 0.00 | 0.00 | 0.00 | 86 | 991.1 |
| 20260905071208 | 80 | 0 | 0.0 | 0.0 | 0.00 | 0.00 | 0.00 | 86 | 991.1 |
| 20260905071202 | 80 | 0 | 0.0 | 0.0 | 0.00 | 0.00 | 0.00 | 86 | 991.1 |
| 20260905071105 | 80 | 0 | 0.0 | 0.0 | 0.00 | 0.00 | 0.00 | 86 | 991.1 |
| 20260905071005 | 80 | 0 | 0.0 | 0.0 | 0.00 | 0.00 | 0.00 | 86 | 991.1 |
| 20260905070905 | 80 | 0 | 0.0 | 0.0 | 0.00 | 0.00 | 0.00 | 86 | 991.1 |
| 20260905070807 | 80 | 0 | 0.0 | 0.0 | 0.00 | 0.00 | 0.00 | 86 | 991.1 |
| 20260905070708 | 80 | 0 | 0.0 | 0.0 | 0.00 | 0.00 | 0.00 | 86 | 991.1 |
| 20260905070701 | 80 | 0 | 0.0 | 0.0 | 0.00 | 0.00 | 0.00 | 86 | 991.1 |
| 20260905070606 | 80 | 0 | 0.0 | 0.0 | 0.00 | 0.00 | 0.00 | 86 | 991.1 |
| 20260905070506 | 80 | 0 | 0.0 | 0.0 | 0.00 | 0.00 | 0.00 | 86 | 991.1 |
| 20260905070406 | 80 | 0 | 0.0 | 0.0 | 0.00 | 0.00 | 0.00 | 86 | 991.1 |
| 20260905070305 | 80 | 0 | 0.0 | 0.0 | 0.00 | 0.00 | 0.00 | 86 | 991.1 |
| 20260905070208 | 80 | 0 | 0.0 | 0.9 | 0.00 | 0.00 | 0.00 | 86 | 991.1 |
| 20260905070201 | 80 | 0 | 0.0 | 0.9 | 0.00 | 0.00 | 0.00 | 86 | 991.1 |
| 20260905070113 | 80 | 0 | 0.0 | 0.9 | 0.00 | 0.00 | 0.00 | 86 | 991.1 |
| 20260905070005 | 80 | 0 | 0.0 | 0.9 | 0.00 | 0.00 | 0.00 | 86 | 991.1 |
| 20260905065906 | 80 | 0 | 0.0 | 0.9 | 0.00 | 0.00 | 0.00 | 86 | 991.1 |
| 20260905065806 | 80 | 0 | 0.0 | 0.9 | 0.00 | 0.00 | 0.00 | 86 | 991.1 |
| 20260905065708 | 80 | 0 | 0.0 | 0.9 | 0.00 | 0.00 | 0.00 | 86 | 991.1 |
| 20260905065701 | 81 | 0 | 0.0 | 0.9 | 0.00 | 0.00 | 0.00 | 86 | 991.1 |
| 20260905065605 | 81 | 0 | 0.0 | 0.9 | 0.00 | 0.00 | 0.00 | 86 | 991.1 |
| 20260905065506 | 81 | 0 | 0.0 | 0.9 | 0.00 | 0.00 | 0.00 | 86 | 991.1 |
| 20260905065406 | 81 | 0 | 0.0 | 0.9 | 0.00 | 0.00 | 0.00 | 86 | 991.1 |
| 20260905065308 | 81 | 0 | 0.0 | 0.9 | 0.00 | 0.00 | 0.00 | 86 | 991.1 |
| 20260905065209 | 81 | 0 | 0.0 | 0.9 | 0.00 | 0.00 | 0.00 | 86 | 991.0 |
| 20260905065202 | 81 | 0 | 0.0 | 0.9 | 0.00 | 0.00 | 0.00 | 86 | 991.0 |
| 20260905065105 | 81 | 0 | 0.0 | 0.9 | 0.00 | 0.00 | 0.00 | 86 | 991.0 |
| 20260905065006 | 81 | 0 | 0.0 | 0.9 | 0.00 | 0.00 | 0.00 | 86 | 991.0 |
| 20260905064905 | 81 | 0 | 0.0 | 0.9 | 0.00 | 0.00 | 0.00 | 86 | 991.0 |
| 20260905064806 | 81 | 0 | 0.0 | 0.9 | 0.00 | 0.00 | 0.00 | 85 | 991.0 |
| 20260905064709 | 81 | 0 | 0.0 | 0.9 | 0.00 | 0.00 | 0.00 | 86 | 991.0 |
| 20260905064702 | 81 | 0 | 0.0 | 0.9 | 0.00 | 0.00 | 0.00 | 85 | 991.1 |
| 20260905064606 | 81 | 0 | 0.0 | 0.0 | 0.00 | 0.00 | 0.00 | 85 | 991.1 |
| 20260905064505 | 81 | 0 | 0.0 | 0.0 | 0.00 | 0.00 | 0.00 | 86 | 991.1 |
| 20260905064425 | 81 | 0 | 0.0 | 0.0 | 0.00 | 0.00 | 0.00 | 85 | 991.1 |
| 20260905064406 | 81 | 0 | 0.0 | 0.0 | 0.00 | 0.00 | 0.00 | 85 | 991.1 |
| 20260905064325 | 81 | 0 | 0.0 | 0.0 | 0.00 | 0.00 | 0.00 | 85 | 991.1 |
| 20260905064309 | 81 | 0 | 0.0 | 0.0 | 0.00 | 0.00 | 0.00 | 85 | 991.1 |
| 20260905064105 | 81 | 0 | 0.0 | 0.0 | 0.00 | 0.00 | 0.00 | 85 | 991.1 |
| 20260905064006 | 81 | 0 | 0.0 | 0.0 | 0.00 | 0.00 | 0.00 | 85 | 991.1 |
| 20260905063906 | 81 | 0 | 0.0 | 0.0 | 0.00 | 0.00 | 0.00 | 85 | 991.1 |
| 20260905063807 | 81 | 0 | 0.0 | 0.0 | 0.00 | 0.00 | 0.00 | 85 | 991.1 |
| 20260905063709 | 81 | 0 | 0.0 | 0.0 | 0.00 | 0.00 | 0.00 | 85 | 991.1 |
| 20260905063702 | 81 | 0 | 0.0 | 0.0 | 0.00 | 0.00 | 0.00 | 85 | 991.1 |
| 20260905063606 | 81 | 0 | 0.0 | 0.0 | 0.00 | 0.00 | 0.00 | 85 | 991.1 |
| 20260905063506 | 81 | 0 | 0.0 | 0.0 | 0.00 | 0.00 | 0.00 | 85 | 991.1 |
| 20260905063405 | 81 | 0 | 0.0 | 0.0 | 0.00 | 0.00 | 0.00 | 85 | 991.2 |
| 20260905063305 | 81 | 0 | 0.0 | 0.0 | 0.00 | 0.00 | 0.00 | 85 | 991.2 |
| 20260905063209 | 81 | 0 | 0.0 | 0.0 | 0.00 | 0.00 | 0.00 | 85 | 991.3 |
| 20260905063202 | 81 | 0 | 0.0 | 0.0 | 0.00 | 0.00 | 0.00 | 85 | 991.3 |
| 20260905063105 | 81 | 0 | 0.0 | 0.0 | 0.00 | 0.00 | 0.00 | 85 | 991.3 |
| 20260905063005 | 81 | 0 | 0.0 | 0.0 | 0.00 | 0.00 | 0.00 | 85 | 991.3 |
| 20260905062905 | 81 | 0 | 0.0 | 0.0 | 0.00 | 0.00 | 0.00 | 85 | 991.3 |
| 20260905062804 | 81 | 0 | 0.0 | 0.0 | 0.00 | 0.00 | 0.00 | 85 | 991.3 |
| 20260905062707 | 81 | 0 | 0.0 | 0.0 | 0.00 | 0.00 | 0.00 | 85 | 991.3 |
| 20260905062658 | 81 | 0 | 0.0 | 0.0 | 0.00 | 0.00 | 0.00 | 85 | 991.3 |
| 20260905062615 | 81 | 0 | 0.0 | 0.0 | 0.00 | 0.00 | 0.00 | 85 | 991.3 |
| 20260905062503 | 81 | 0 | 0.0 | 0.0 | 0.00 | 0.00 | 0.00 | 85 | 991.3 |
| 20260905062423 | 81 | 0 | 0.0 | 0.0 | 0.00 | 0.00 | 0.00 | 85 | 991.3 |
| 20260905062404 | 81 | 0 | 0.0 | 0.0 | 0.00 | 0.00 | 0.00 | 85 | 991.3 |
| 20260905062320 | 81 | 0 | 0.0 | 0.0 | 0.00 | 0.00 | 0.00 | 85 | 991.3 |
| 20260905062306 | 81 | 0 | 0.0 | 0.0 | 0.00 | 0.00 | 0.00 | 85 | 991.3 |
| 20260905062103 | 81 | 0 | 0.0 | 0.0 | 0.00 | 0.00 | 0.00 | 85 | 991.3 |
| 20260905062003 | 81 | 0 | 0.0 | 0.0 | 0.00 | 0.00 | 0.00 | 85 | 991.3 |
| 20260905061903 | 81 | 0 | 0.0 | 0.0 | 0.00 | 0.00 | 0.00 | 85 | 991.3 |
| 20260905061804 | 81 | 0 | 0.0 | 0.0 | 0.00 | 0.00 | 0.00 | 85 | 991.3 |
| 20260905061706 | 81 | 0 | 0.0 | 0.0 | 0.00 | 0.00 | 0.00 | 85 | 991.3 |
| 20260905061657 | 81 | 0 | 0.0 | 0.0 | 0.00 | 0.00 | 0.00 | 85 | 991.3 |
| 20260905061604 | 81 | 0 | 0.0 | 0.0 | 0.00 | 0.00 | 0.00 | 85 | 991.4 |
| 20260905061504 | 81 | 0 | 0.0 | 0.0 | 0.00 | 0.00 | 0.00 | 85 | 991.4 |
| 20260905061403 | 81 | 0 | 0.0 | 0.0 | 0.00 | 0.00 | 0.00 | 85 | 991.4 |
| 20260905061303 | 81 | 0 | 0.0 | 0.0 | 0.00 | 0.00 | 0.00 | 85 | 991.4 |
| 20260905061206 | 81 | 0 | 0.0 | 0.0 | 0.00 | 0.00 | 0.00 | 85 | 991.4 |
| 20260905061157 | 81 | 0 | 0.0 | 0.0 | 0.00 | 0.00 | 0.00 | 85 | 991.4 |
| 20260905061104 | 81 | 0 | 0.0 | 0.0 | 0.00 | 0.00 | 0.00 | 85 | 991.4 |
| 20260905061003 | 81 | 0 | 0.0 | 0.0 | 0.00 | 0.00 | 0.00 | 85 | 991.4 |
| 20260905060804 | 81 | 0 | 0.0 | 0.0 | 0.00 | 0.00 | 0.00 | 85 | 991.5 |
| 20260905060706 | 81 | 0 | 0.0 | 0.0 | 0.00 | 0.00 | 0.00 | 85 | 991.5 |
| 20260905060657 | 81 | 0 | 0.0 | 0.0 | 0.00 | 0.00 | 0.00 | 85 | 991.5 |
| 20260905060603 | 81 | 0 | 0.0 | 0.0 | 0.00 | 0.00 | 0.00 | 85 | 991.5 |
| 20260905060504 | 81 | 0 | 0.0 | 0.0 | 0.00 | 0.00 | 0.00 | 86 | 991.5 |
| 20260905060415 | 81 | 0 | 0.0 | 0.0 | 0.00 | 0.00 | 0.00 | 86 | 991.5 |
| 20260905060304 | 81 | 0 | 0.0 | 0.0 | 0.00 | 0.00 | 0.00 | 86 | 991.5 |
| 20260905060206 | 81 | 0 | 0.0 | 0.0 | 0.00 | 0.00 | 0.00 | 86 | 991.5 |
| 20260905060158 | 81 | 0 | 0.0 | 0.0 | 0.00 | 0.00 | 0.00 | 86 | 991.5 |
| 20260905060116 | 81 | 0 | 0.0 | 0.0 | 0.00 | 0.00 | 0.00 | 85 | 991.5 |
| 20260905060004 | 81 | 0 | 0.0 | 0.0 | 0.00 | 0.00 | 0.00 | 85 | 991.5 |
| 20260905055904 | 81 | 0 | 0.0 | 0.0 | 0.00 | 0.00 | 0.00 | 85 | 991.5 |
| 20260905055804 | 81 | 0 | 0.0 | 0.0 | 0.00 | 0.00 | 0.00 | 85 | 991.5 |
| 20260905055706 | 81 | 0 | 0.0 | 0.0 | 0.00 | 0.00 | 0.00 | 85 | 991.5 |
| 20260905055658 | 81 | 0 | 0.0 | 0.0 | 0.00 | 0.00 | 0.00 | 85 | 991.5 |
| 20260905055604 | 81 | 0 | 0.0 | 0.0 | 0.00 | 0.00 | 0.00 | 85 | 991.4 |
| 20260905055504 | 81 | 0 | 0.0 | 0.0 | 0.00 | 0.00 | 0.00 | 85 | 991.4 |
| 20260905055404 | 81 | 0 | 0.0 | 0.0 | 0.00 | 0.00 | 0.00 | 85 | 991.4 |
| 20260905055306 | 81 | 0 | 0.0 | 0.0 | 0.00 | 0.00 | 0.00 | 85 | 991.4 |
| 20260905055207 | 81 | 0 | 0.0 | 0.0 | 0.00 | 0.00 | 0.00 | 85 | 991.4 |
| 20260905055158 | 81 | 0 | 0.0 | 0.0 | 0.00 | 0.00 | 0.00 | 85 | 991.4 |
| 20260905055103 | 82 | 0 | 0.0 | 0.0 | 0.00 | 0.00 | 0.00 | 85 | 991.4 |
| 20260905055004 | 82 | 0 | 0.0 | 0.0 | 0.00 | 0.00 | 0.00 | 85 | 991.4 |
| 20260905054904 | 82 | 0 | 0.0 | 0.0 | 0.00 | 0.00 | 0.00 | 85 | 991.4 |
| 20260905054804 | 82 | 0 | 0.0 | 0.0 | 0.00 | 0.00 | 0.00 | 85 | 991.5 |
| 20260905054707 | 82 | 0 | 0.0 | 0.0 | 0.00 | 0.00 | 0.00 | 85 | 991.5 |
| 20260905054658 | 82 | 0 | 0.0 | 0.0 | 0.00 | 0.00 | 0.00 | 85 | 991.5 |
| 20260905054604 | 82 | 0 | 0.0 | 0.0 | 0.00 | 0.00 | 0.00 | 85 | 991.4 |
| 20260905054503 | 82 | 0 | 0.0 | 0.0 | 0.00 | 0.00 | 0.00 | 85 | 991.4 |
| 20260905054404 | 82 | 0 | 0.0 | 0.0 | 0.00 | 0.00 | 0.00 | 85 | 991.4 |
| 20260905054303 | 82 | 0 | 0.0 | 0.0 | 0.00 | 0.00 | 0.00 | 85 | 991.4 |
| 20260905054207 | 82 | 0 | 0.0 | 0.0 | 0.00 | 0.00 | 0.00 | 85 | 991.4 |
| 20260905054159 | 82 | 0 | 0.0 | 0.0 | 0.00 | 0.00 | 0.00 | 85 | 991.4 |
| 20260905054104 | 82 | 0 | 0.0 | 0.0 | 0.00 | 0.00 | 0.00 | 85 | 991.4 |
| 20260905054004 | 82 | 0 | 0.0 | 0.0 | 0.00 | 0.00 | 0.00 | 85 | 991.4 |
| 20260905053922 | 82 | 0 | 0.0 | 0.0 | 0.00 | 0.00 | 0.00 | 85 | 991.4 |
| 20260905053904 | 82 | 0 | 0.0 | 0.0 | 0.00 | 0.00 | 0.00 | 85 | 991.4 |
| 20260905053821 | 82 | 0 | 0.0 | 0.0 | 0.00 | 0.00 | 0.00 | 85 | 991.4 |
| 20260905053807 | 82 | 0 | 0.0 | 0.0 | 0.00 | 0.00 | 0.00 | 85 | 991.4 |
| 20260905053604 | 82 | 0 | 0.0 | 0.9 | 0.00 | 0.00 | 0.00 | 85 | 991.4 |
| 20260905053508 | 82 | 0 | 0.0 | 0.9 | 0.00 | 0.00 | 0.00 | 85 | 991.4 |
| 20260905053403 | 82 | 0 | 0.0 | 0.9 | 0.00 | 0.00 | 0.00 | 85 | 991.4 |
| 20260905053304 | 82 | 0 | 0.0 | 0.9 | 0.00 | 0.00 | 0.00 | 85 | 991.4 |
| 20260905053207 | 82 | 0 | 0.0 | 0.9 | 0.00 | 0.00 | 0.00 | 85 | 991.4 |
| 20260905053158 | 82 | 0 | 0.0 | 0.9 | 0.00 | 0.00 | 0.00 | 85 | 991.4 |
| 20260905053104 | 82 | 0 | 0.0 | 0.9 | 0.00 | 0.00 | 0.00 | 84 | 991.4 |
| 20260905053005 | 82 | 0 | 0.0 | 0.9 | 0.00 | 0.00 | 0.00 | 84 | 991.4 |
| 20260905052904 | 82 | 0 | 0.0 | 0.9 | 0.00 | 0.00 | 0.00 | 84 | 991.4 |
| 20260905052805 | 82 | 0 | 0.0 | 0.9 | 0.00 | 0.00 | 0.00 | 84 | 991.4 |
| 20260905052707 | 82 | 0 | 0.0 | 0.9 | 0.00 | 0.00 | 0.00 | 84 | 991.4 |
| 20260905052642 | 82 | 0 | 0.0 | 0.0 | 0.00 | 0.00 | 0.00 | 84 | 991.3 |
| 20260905052602 | 82 | 0 | 0.0 | 0.9 | 0.00 | 0.00 | 0.00 | 84 | 991.3 |
| 20260905052538 | 82 | 0 | 0.0 | 0.9 | 0.00 | 0.00 | 0.00 | 84 | 991.3 |
| 20260905052405 | 82 | 0 | 0.0 | 0.0 | 0.00 | 0.00 | 0.00 | 84 | 991.3 |
| 20260905052318 | 82 | 0 | 0.0 | 0.0 | 0.00 | 0.00 | 0.00 | 84 | 991.3 |
| 20260905052306 | 82 | 0 | 0.0 | 0.0 | 0.00 | 0.00 | 0.00 | 84 | 991.3 |
| 20260905052103 | 82 | 0 | 0.0 | 0.0 | 0.00 | 0.00 | 0.00 | 84 | 991.3 |
| 20260905052003 | 82 | 0 | 0.0 | 0.0 | 0.00 | 0.00 | 0.00 | 84 | 991.3 |
| 20260905051903 | 82 | 0 | 0.0 | 0.0 | 0.00 | 0.00 | 0.00 | 84 | 991.3 |
| 20260905051803 | 82 | 0 | 0.0 | 0.0 | 0.00 | 0.00 | 0.00 | 84 | 991.3 |
| 20260905051656 | 82 | 0 | 0.0 | 0.0 | 0.00 | 0.00 | 0.00 | 84 | 991.3 |
| 20260905051603 | 82 | 0 | 0.0 | 0.0 | 0.00 | 0.00 | 0.00 | 84 | 991.3 |
| 20260905051503 | 82 | 0 | 0.0 | 0.0 | 0.00 | 0.00 | 0.00 | 84 | 991.3 |
| 20260905051403 | 82 | 0 | 0.0 | 0.0 | 0.00 | 0.00 | 0.00 | 84 | 991.3 |
| 20260905051303 | 82 | 0 | 0.0 | 0.0 | 0.00 | 0.00 | 0.00 | 84 | 991.3 |
| 20260905051156 | 82 | 0 | 0.0 | 0.0 | 0.00 | 0.00 | 0.00 | 84 | 991.3 |
| 20260905051103 | 82 | 0 | 0.0 | 0.0 | 0.00 | 0.00 | 0.00 | 84 | 991.2 |
| 20260905051004 | 82 | 0 | 0.0 | 0.0 | 0.00 | 0.00 | 0.00 | 84 | 991.2 |
| 20260905050902 | 82 | 0 | 0.0 | 0.9 | 0.00 | 0.00 | 0.00 | 84 | 991.2 |
| 20260905050802 | 82 | 0 | 0.0 | 0.9 | 0.00 | 0.00 | 0.00 | 84 | 991.2 |
| 20260905050656 | 82 | 0 | 0.0 | 0.9 | 0.00 | 0.00 | 0.00 | 84 | 991.2 |
| 20260905050603 | 82 | 0 | 0.0 | 0.9 | 0.00 | 0.00 | 0.00 | 84 | 991.2 |
| 20260905050503 | 82 | 0 | 0.0 | 0.9 | 0.00 | 0.00 | 0.00 | 84 | 991.2 |
| 20260905050403 | 82 | 0 | 0.0 | 0.9 | 0.00 | 0.00 | 0.00 | 84 | 991.2 |
| 20260905050303 | 82 | 0 | 0.0 | 0.9 | 0.00 | 0.00 | 0.00 | 84 | 991.2 |
| 20260905050156 | 82 | 0 | 0.0 | 0.9 | 0.00 | 0.00 | 0.00 | 84 | 991.2 |
| 20260905050111 | 82 | 0 | 0.0 | 0.9 | 0.00 | 0.00 | 0.00 | 84 | 991.2 |
| 20260905050004 | 82 | 0 | 0.0 | 0.9 | 0.00 | 0.00 | 0.00 | 84 | 991.2 |
| 20260905045903 | 82 | 345 | 0.0 | 0.9 | 0.00 | 0.00 | 0.00 | 84 | 991.2 |
| 20260905045802 | 82 | 0 | 0.0 | 0.9 | 0.00 | 0.00 | 0.00 | 83 | 991.2 |
| 20260905045656 | 82 | 345 | 0.0 | 0.9 | 0.00 | 0.00 | 0.00 | 83 | 991.2 |
| 20260905045603 | 82 | 0 | 0.0 | 0.0 | 0.00 | 0.00 | 0.00 | 83 | 991.2 |
| 20260905045503 | 82 | 0 | 0.0 | 0.0 | 0.00 | 0.00 | 0.00 | 83 | 991.2 |
| 20260905045402 | 82 | 0 | 0.0 | 0.0 | 0.00 | 0.00 | 0.00 | 83 | 991.2 |
| 20260905045305 | 82 | 0 | 0.0 | 0.0 | 0.00 | 0.00 | 0.00 | 83 | 991.2 |
| 20260905045157 | 82 | 0 | 0.0 | 0.0 | 0.00 | 0.00 | 0.00 | 83 | 991.2 |
| 20260905045102 | 82 | 0 | 0.0 | 0.0 | 0.00 | 0.00 | 0.00 | 83 | 991.2 |
| 20260905045004 | 82 | 0 | 0.0 | 0.0 | 0.00 | 0.00 | 0.00 | 83 | 991.3 |
| 20260905044903 | 82 | 0 | 0.0 | 0.0 | 0.00 | 0.00 | 0.00 | 83 | 991.3 |
| 20260905044803 | 82 | 0 | 0.0 | 0.0 | 0.00 | 0.00 | 0.00 | 83 | 991.3 |
| 20260905044656 | 82 | 0 | 0.0 | 0.0 | 0.00 | 0.00 | 0.00 | 83 | 991.3 |
| 20260905044603 | 82 | 0 | 0.0 | 0.0 | 0.00 | 0.00 | 0.00 | 83 | 991.3 |
| 20260905044503 | 82 | 0 | 0.0 | 0.0 | 0.00 | 0.00 | 0.00 | 83 | 991.4 |
| 20260905044403 | 83 | 0 | 0.0 | 0.0 | 0.00 | 0.00 | 0.00 | 83 | 991.4 |
| 20260905044303 | 83 | 0 | 0.0 | 0.0 | 0.00 | 0.00 | 0.00 | 83 | 991.4 |
| 20260905044156 | 83 | 0 | 0.0 | 0.9 | 0.00 | 0.00 | 0.00 | 83 | 991.4 |
| 20260905044102 | 83 | 0 | 0.0 | 0.9 | 0.00 | 0.00 | 0.00 | 83 | 991.4 |
| 20260905044003 | 83 | 0 | 0.0 | 0.9 | 0.00 | 0.00 | 0.00 | 83 | 991.4 |
| 20260905043903 | 83 | 0 | 0.0 | 0.9 | 0.00 | 0.00 | 0.00 | 83 | 991.4 |
| 20260905043803 | 83 | 0 | 0.0 | 0.9 | 0.00 | 0.00 | 0.00 | 83 | 991.4 |
| 20260905043656 | 83 | 0 | 0.0 | 0.9 | 0.00 | 0.00 | 0.00 | 83 | 991.4 |
| 20260905043603 | 83 | 0 | 0.0 | 0.9 | 0.00 | 0.00 | 0.00 | 83 | 991.3 |
| 20260905043502 | 83 | 0 | 0.0 | 0.9 | 0.00 | 0.00 | 0.00 | 83 | 991.3 |
| 20260905043403 | 83 | 0 | 0.0 | 0.9 | 0.00 | 0.00 | 0.00 | 83 | 991.3 |
| 20260905043300 | 83 | 357 | 0.0 | 0.9 | 0.00 | 0.00 | 0.00 | 83 | 991.3 |
| 20260905043157 | 83 | 70 | 0.0 | 0.9 | 0.00 | 0.00 | 0.00 | 83 | 991.3 |
| 20260905043056 | 83 | 0 | 0.0 | 0.9 | 0.00 | 0.00 | 0.00 | 83 | 991.3 |
| 20260905042957 | 83 | 0 | 0.0 | 0.9 | 0.00 | 0.00 | 0.00 | 83 | 991.3 |
| 20260905042857 | 83 | 0 | 0.0 | 0.9 | 0.00 | 0.00 | 0.00 | 83 | 991.3 |
| 20260905042756 | 83 | 0 | 0.0 | 0.9 | 0.00 | 0.00 | 0.00 | 83 | 991.3 |
| 20260905042656 | 83 | 0 | 0.0 | 0.9 | 0.00 | 0.00 | 0.00 | 82 | 991.3 |
| 20260905042556 | 83 | 357 | 0.0 | 0.9 | 0.00 | 0.00 | 0.00 | 82 | 991.3 |
| 20260905042455 | 83 | 0 | 0.0 | 0.0 | 0.00 | 0.00 | 0.00 | 82 | 991.3 |
| 20260905042355 | 83 | 0 | 0.0 | 0.0 | 0.00 | 0.00 | 0.00 | 82 | 991.3 |
| 20260905042255 | 83 | 0 | 0.0 | 0.0 | 0.00 | 0.00 | 0.00 | 82 | 991.3 |
| 20260905042155 | 83 | 0 | 0.0 | 0.0 | 0.00 | 0.00 | 0.00 | 82 | 991.3 |
| 20260905042056 | 83 | 0 | 0.0 | 0.0 | 0.00 | 0.00 | 0.00 | 82 | 991.2 |
| 20260905041955 | 83 | 0 | 0.0 | 0.0 | 0.00 | 0.00 | 0.00 | 82 | 991.2 |
| 20260905041856 | 83 | 0 | 0.0 | 0.0 | 0.00 | 0.00 | 0.00 | 82 | 991.2 |
| 20260905041755 | 83 | 0 | 0.0 | 0.0 | 0.00 | 0.00 | 0.00 | 82 | 991.2 |
| 20260905041655 | 83 | 0 | 0.0 | 0.0 | 0.00 | 0.00 | 0.00 | 82 | 991.2 |
| 20260905041555 | 83 | 0 | 0.0 | 0.0 | 0.00 | 0.00 | 0.00 | 82 | 991.2 |
| 20260905041455 | 83 | 0 | 0.0 | 0.0 | 0.00 | 0.00 | 0.00 | 82 | 991.2 |
| 20260905041356 | 83 | 0 | 0.0 | 0.0 | 0.00 | 0.00 | 0.00 | 82 | 991.2 |
| 20260905041255 | 83 | 0 | 0.0 | 0.0 | 0.00 | 0.00 | 0.00 | 82 | 991.2 |
| 20260905041155 | 83 | 0 | 0.0 | 0.0 | 0.00 | 0.00 | 0.00 | 82 | 991.2 |
| 20260905041055 | 83 | 0 | 0.0 | 0.0 | 0.00 | 0.00 | 0.00 | 81 | 991.2 |
| 20260905040955 | 83 | 0 | 0.0 | 0.0 | 0.00 | 0.00 | 0.00 | 81 | 991.2 |
| 20260905040923 | 83 | 0 | 0.0 | 0.0 | 0.00 | 0.00 | 0.00 | 81 | 991.1 |
| 20260905040855 | 83 | 0 | 0.0 | 0.0 | 0.00 | 0.00 | 0.00 | 81 | 991.2 |
| 20260905040815 | 83 | 0 | 0.0 | 0.0 | 0.00 | 0.00 | 0.00 | 81 | 991.1 |
| 20260905040759 | 83 | 0 | 0.0 | 0.0 | 0.00 | 0.00 | 0.00 | 81 | 991.1 |
| 20260905040555 | 83 | 0 | 0.0 | 0.0 | 0.00 | 0.00 | 0.00 | 81 | 991.1 |
| 20260905040455 | 83 | 0 | 0.0 | 0.0 | 0.00 | 0.00 | 0.00 | 81 | 991.1 |
| 20260905040355 | 83 | 0 | 0.0 | 0.0 | 0.00 | 0.00 | 0.00 | 81 | 991.1 |
| 20260905040255 | 83 | 0 | 0.0 | 0.0 | 0.00 | 0.00 | 0.00 | 81 | 991.1 |